<?xml version='1.0' encoding='UTF-8'?><gpx version="1.1" creator="JPX - https://github.com/jenetics/jpx" xmlns="http://www.topografix.com/GPX/1/1"><trk><trkseg><trkpt lat="43.590063500343255" lon="11.333652260355201"><ele>347.0</ele><time>2026-04-04T15:44:10.001Z</time></trkpt><trkpt lat="43.59013430748852" lon="11.333688482003467"><ele>347.0</ele><time>2026-04-04T15:44:12.001Z</time></trkpt><trkpt lat="43.59021495358048" lon="11.333730700642786"><ele>347.0</ele><time>2026-04-04T15:44:14Z</time></trkpt><trkpt lat="43.590281847150536" lon="11.333840678170365"><ele>347.0</ele><time>2026-04-04T15:44:16Z</time></trkpt><trkpt lat="43.59033847944168" lon="11.333954644861807"><ele>347.0</ele><time>2026-04-04T15:44:18Z</time></trkpt><trkpt lat="43.5903780172076" lon="11.334062935753211"><ele>345.83333333333337</ele><time>2026-04-04T15:44:20Z</time></trkpt><trkpt lat="43.59040497286581" lon="11.334181845185254"><ele>344.6666666666667</ele><time>2026-04-04T15:44:22Z</time></trkpt><trkpt lat="43.59041615744317" lon="11.334318875600713"><ele>343.5</ele><time>2026-04-04T15:44:24Z</time></trkpt><trkpt lat="43.59042376730503" lon="11.334432757469642"><ele>342.3333333333333</ele><time>2026-04-04T15:44:26Z</time></trkpt><trkpt lat="43.59044975223828" lon="11.334515185441242"><ele>341.16666666666663</ele><time>2026-04-04T15:44:27Z</time></trkpt><trkpt lat="43.590505143447224" lon="11.334614107342741"><ele>340.0</ele><time>2026-04-04T15:44:29Z</time></trkpt><trkpt lat="43.59056162131442" lon="11.33468069647703"><ele>343.3333333333333</ele><time>2026-04-04T15:44:31Z</time></trkpt><trkpt lat="43.59063552615267" lon="11.334723422215664"><ele>346.66666666666663</ele><time>2026-04-04T15:44:33Z</time></trkpt><trkpt lat="43.59068417286506" lon="11.334782016508996"><ele>350.0</ele><time>2026-04-04T15:44:35Z</time></trkpt><trkpt lat="43.590698128168206" lon="11.334873172439991"><ele>353.3333333333333</ele><time>2026-04-04T15:44:58Z</time></trkpt><trkpt lat="43.59062057607961" lon="11.334876448996809"><ele>356.6666666666667</ele><time>2026-04-04T15:45:00Z</time></trkpt><trkpt lat="43.59054470646237" lon="11.33481356927146"><ele>360.0</ele><time>2026-04-04T15:45:02Z</time></trkpt><trkpt lat="43.59047142950998" lon="11.334766889424634"><ele>360.0</ele><time>2026-04-04T15:45:04Z</time></trkpt><trkpt lat="43.5903864068919" lon="11.334722855435613"><ele>360.0</ele><time>2026-04-04T15:45:06Z</time></trkpt><trkpt lat="43.59030962692546" lon="11.334670131135397"><ele>360.0</ele><time>2026-04-04T15:45:08Z</time></trkpt><trkpt lat="43.59023627897577" lon="11.334610383221532"><ele>360.0</ele><time>2026-04-04T15:45:10Z</time></trkpt><trkpt lat="43.59015805000584" lon="11.334608313160597"><ele>360.0</ele><time>2026-04-04T15:45:13Z</time></trkpt><trkpt lat="43.59015718102082" lon="11.33472753151275"><ele>360.0</ele><time>2026-04-04T15:45:16Z</time></trkpt><trkpt lat="43.590253240661774" lon="11.334820699349187"><ele>360.0</ele><time>2026-04-04T15:45:18Z</time></trkpt><trkpt lat="43.590303494912135" lon="11.334879596049467"><ele>360.0</ele><time>2026-04-04T15:45:19Z</time></trkpt><trkpt lat="43.59035719585737" lon="11.334945606539229"><ele>360.0</ele><time>2026-04-04T15:45:20Z</time></trkpt><trkpt lat="43.59041313917215" lon="11.335006729568315"><ele>360.0</ele><time>2026-04-04T15:45:21Z</time></trkpt><trkpt lat="43.590474599602565" lon="11.33507655732795"><ele>360.0</ele><time>2026-04-04T15:45:22Z</time></trkpt><trkpt lat="43.59054180988483" lon="11.335165278030654"><ele>360.0</ele><time>2026-04-04T15:45:23Z</time></trkpt><trkpt lat="43.59060738927521" lon="11.335262007920369"><ele>360.0</ele><time>2026-04-04T15:45:23.999Z</time></trkpt><trkpt lat="43.59067164826127" lon="11.335356698720656"><ele>360.0</ele><time>2026-04-04T15:45:24.999Z</time></trkpt><trkpt lat="43.59073435817917" lon="11.335446862796616"><ele>360.0</ele><time>2026-04-04T15:45:25.999Z</time></trkpt><trkpt lat="43.59080674018981" lon="11.335551107785841"><ele>360.0</ele><time>2026-04-04T15:45:26.999Z</time></trkpt><trkpt lat="43.59088800453731" lon="11.335657913593804"><ele>360.0</ele><time>2026-04-04T15:45:27.999Z</time></trkpt><trkpt lat="43.59095988724007" lon="11.335783743660539"><ele>358.0</ele><time>2026-04-04T15:45:28.999Z</time></trkpt><trkpt lat="43.591047050921816" lon="11.335873862358918"><ele>356.0</ele><time>2026-04-04T15:45:29.999Z</time></trkpt><trkpt lat="43.59111467766395" lon="11.336003932717206"><ele>354.0</ele><time>2026-04-04T15:45:30.999Z</time></trkpt><trkpt lat="43.59119627500915" lon="11.336118442376671"><ele>352.0</ele><time>2026-04-04T15:45:31.999Z</time></trkpt><trkpt lat="43.59126095296614" lon="11.336256977077602"><ele>356.5</ele><time>2026-04-04T15:45:32.999Z</time></trkpt><trkpt lat="43.591319762573114" lon="11.336403684130952"><ele>361.0</ele><time>2026-04-04T15:45:33.999Z</time></trkpt><trkpt lat="43.591339440308566" lon="11.336574450505005"><ele>365.5</ele><time>2026-04-04T15:45:34.999Z</time></trkpt><trkpt lat="43.59136223458334" lon="11.336751079485417"><ele>370.0</ele><time>2026-04-04T15:45:35.999Z</time></trkpt><trkpt lat="43.59137834299332" lon="11.33692238904256"><ele>370.0</ele><time>2026-04-04T15:45:36.999Z</time></trkpt><trkpt lat="43.59140900737377" lon="11.337104591597708"><ele>370.0</ele><time>2026-04-04T15:45:37.999Z</time></trkpt><trkpt lat="43.59147489100191" lon="11.337256698843166"><ele>370.0</ele><time>2026-04-04T15:45:38.999Z</time></trkpt><trkpt lat="43.59155342399032" lon="11.33740636673429"><ele>370.0</ele><time>2026-04-04T15:45:39.999Z</time></trkpt><trkpt lat="43.59163319843657" lon="11.337551223429044"><ele>371.0</ele><time>2026-04-04T15:45:40.999Z</time></trkpt><trkpt lat="43.591735203340924" lon="11.337678184129036"><ele>372.0</ele><time>2026-04-04T15:45:41.999Z</time></trkpt><trkpt lat="43.59185478449471" lon="11.33777584742288"><ele>373.0</ele><time>2026-04-04T15:45:42.999Z</time></trkpt><trkpt lat="43.59196307695896" lon="11.337875021635071"><ele>374.0</ele><time>2026-04-04T15:45:43.999Z</time></trkpt><trkpt lat="43.592060609605" lon="11.337996548019147"><ele>377.75</ele><time>2026-04-04T15:45:45Z</time></trkpt><trkpt lat="43.592124423997795" lon="11.338146406439042"><ele>381.5</ele><time>2026-04-04T15:45:46Z</time></trkpt><trkpt lat="43.59216765207922" lon="11.338314522438544"><ele>385.25</ele><time>2026-04-04T15:45:47Z</time></trkpt><trkpt lat="43.592211264195534" lon="11.338496966614757"><ele>389.0</ele><time>2026-04-04T15:45:48Z</time></trkpt><trkpt lat="43.59225396434769" lon="11.338680260239279"><ele>389.0</ele><time>2026-04-04T15:45:49Z</time></trkpt><trkpt lat="43.5922962739462" lon="11.33886217209804"><ele>389.0</ele><time>2026-04-04T15:45:50Z</time></trkpt><trkpt lat="43.5923385648391" lon="11.339044364683835"><ele>389.0</ele><time>2026-04-04T15:45:51Z</time></trkpt><trkpt lat="43.592381015332805" lon="11.339229010307454"><ele>389.0</ele><time>2026-04-04T15:45:52Z</time></trkpt><trkpt lat="43.59242127159624" lon="11.339417139241858"><ele>391.5</ele><time>2026-04-04T15:45:53Z</time></trkpt><trkpt lat="43.59245714605632" lon="11.339604911832346"><ele>394.0</ele><time>2026-04-04T15:45:54Z</time></trkpt><trkpt lat="43.5924912377682" lon="11.339790912259911"><ele>396.5</ele><time>2026-04-04T15:45:55Z</time></trkpt><trkpt lat="43.592545426763266" lon="11.339967919336502"><ele>399.0</ele><time>2026-04-04T15:45:56Z</time></trkpt><trkpt lat="43.592597957808685" lon="11.340141689724353"><ele>399.5</ele><time>2026-04-04T15:45:57Z</time></trkpt><trkpt lat="43.59267853861372" lon="11.340291139100849"><ele>400.0</ele><time>2026-04-04T15:45:58Z</time></trkpt><trkpt lat="43.59276587070643" lon="11.340429810547377"><ele>400.5</ele><time>2026-04-04T15:45:59Z</time></trkpt><trkpt lat="43.592864282430604" lon="11.340545991455759"><ele>401.0</ele><time>2026-04-04T15:46:00Z</time></trkpt><trkpt lat="43.592958929872516" lon="11.3406330571352"><ele>402.8</ele><time>2026-04-04T15:46:01Z</time></trkpt><trkpt lat="43.59304473333292" lon="11.340695496097974"><ele>404.6</ele><time>2026-04-04T15:46:02Z</time></trkpt><trkpt lat="43.59310026203533" lon="11.340746583740192"><ele>406.4</ele><time>2026-04-04T15:46:03Z</time></trkpt><trkpt lat="43.59313521436855" lon="11.340865237376025"><ele>408.2</ele><time>2026-04-04T15:46:05Z</time></trkpt><trkpt lat="43.593069043765965" lon="11.341033222538648"><ele>410.0</ele><time>2026-04-04T15:46:07Z</time></trkpt><trkpt lat="43.59304762461802" lon="11.3411199050849"><ele>409.99999999999994</ele><time>2026-04-04T15:46:09Z</time></trkpt><trkpt lat="43.5931297220137" lon="11.341266661036203"><ele>410.0</ele><time>2026-04-04T15:46:11Z</time></trkpt><trkpt lat="43.59316223732046" lon="11.341352365460352"><ele>410.0</ele><time>2026-04-04T15:46:12Z</time></trkpt><trkpt lat="43.593164640651594" lon="11.341450692383013"><ele>410.0</ele><time>2026-04-04T15:46:14Z</time></trkpt><trkpt lat="43.59310403626258" lon="11.34154041257696"><ele>409.99999999999994</ele><time>2026-04-04T15:46:16Z</time></trkpt><trkpt lat="43.59303989254576" lon="11.341564785203007"><ele>410.0</ele><time>2026-04-04T15:46:18Z</time></trkpt><trkpt lat="43.59307771872601" lon="11.34163907351301"><ele>411.0</ele><time>2026-04-04T15:46:20Z</time></trkpt><trkpt lat="43.5931688575761" lon="11.341652735304558"><ele>412.0</ele><time>2026-04-04T15:46:22Z</time></trkpt><trkpt lat="43.59328164937298" lon="11.341617390730178"><ele>413.0</ele><time>2026-04-04T15:46:24Z</time></trkpt><trkpt lat="43.59336972465395" lon="11.341597212814829"><ele>414.0</ele><time>2026-04-04T15:46:26Z</time></trkpt><trkpt lat="43.59339509771527" lon="11.341708240018976"><ele>415.0</ele><time>2026-04-04T15:46:28Z</time></trkpt><trkpt lat="43.5934113637764" lon="11.341802402723747"><ele>415.00000000000006</ele><time>2026-04-04T15:46:30Z</time></trkpt><trkpt lat="43.59333265867337" lon="11.34190578295528"><ele>415.0</ele><time>2026-04-04T15:46:33Z</time></trkpt><trkpt lat="43.59325826041254" lon="11.341941874441934"><ele>415.0</ele><time>2026-04-04T15:46:34Z</time></trkpt><trkpt lat="43.5931949290683" lon="11.341999797340401"><ele>415.0</ele><time>2026-04-04T15:46:35Z</time></trkpt><trkpt lat="43.59312807591162" lon="11.342069963060606"><ele>415.00000000000006</ele><time>2026-04-04T15:46:36Z</time></trkpt><trkpt lat="43.5930516586777" lon="11.342142876522923"><ele>415.0</ele><time>2026-04-04T15:46:37Z</time></trkpt><trkpt lat="43.592967371918235" lon="11.342213418739984"><ele>413.8</ele><time>2026-04-04T15:46:38Z</time></trkpt><trkpt lat="43.59288893895395" lon="11.342282398928107"><ele>412.6</ele><time>2026-04-04T15:46:39Z</time></trkpt><trkpt lat="43.59279991908976" lon="11.342343260149146"><ele>411.4</ele><time>2026-04-04T15:46:40Z</time></trkpt><trkpt lat="43.59270556829538" lon="11.34237647036658"><ele>410.2</ele><time>2026-04-04T15:46:41Z</time></trkpt><trkpt lat="43.592609598540065" lon="11.34238740615666"><ele>409.0</ele><time>2026-04-04T15:46:42Z</time></trkpt><trkpt lat="43.59252487865482" lon="11.342421833919554"><ele>411.79999999999995</ele><time>2026-04-04T15:46:43Z</time></trkpt><trkpt lat="43.5924578986738" lon="11.342509084123417"><ele>414.59999999999997</ele><time>2026-04-04T15:46:44Z</time></trkpt><trkpt lat="43.59242472219261" lon="11.342629877520853"><ele>417.4</ele><time>2026-04-04T15:46:45Z</time></trkpt><trkpt lat="43.59240253203932" lon="11.342765047631282"><ele>420.2</ele><time>2026-04-04T15:46:46Z</time></trkpt><trkpt lat="43.59239701558385" lon="11.342900236717279"><ele>423.0</ele><time>2026-04-04T15:46:47Z</time></trkpt><trkpt lat="43.592331958717345" lon="11.343008396591994"><ele>422.75</ele><time>2026-04-04T15:46:48Z</time></trkpt><trkpt lat="43.592263945966586" lon="11.34311828242069"><ele>422.5</ele><time>2026-04-04T15:46:49Z</time></trkpt><trkpt lat="43.59215513523454" lon="11.343150891542233"><ele>422.25</ele><time>2026-04-04T15:46:50Z</time></trkpt><trkpt lat="43.59204268462" lon="11.34322000568065"><ele>422.0</ele><time>2026-04-04T15:46:51Z</time></trkpt><trkpt lat="43.591927380152946" lon="11.343288488079873"><ele>422.0</ele><time>2026-04-04T15:46:52Z</time></trkpt><trkpt lat="43.59181960858171" lon="11.343386063151657"><ele>422.0</ele><time>2026-04-04T15:46:53Z</time></trkpt><trkpt lat="43.59171644550682" lon="11.343485268209049"><ele>422.0</ele><time>2026-04-04T15:46:54Z</time></trkpt><trkpt lat="43.59162593909882" lon="11.343622876527041"><ele>422.0</ele><time>2026-04-04T15:46:55Z</time></trkpt><trkpt lat="43.59155498313231" lon="11.343781171754138"><ele>422.25</ele><time>2026-04-04T15:46:56Z</time></trkpt><trkpt lat="43.59149923826209" lon="11.34396101940842"><ele>422.5</ele><time>2026-04-04T15:46:57Z</time></trkpt><trkpt lat="43.59144916689038" lon="11.344143873681157"><ele>422.75</ele><time>2026-04-04T15:46:58Z</time></trkpt><trkpt lat="43.59138929483508" lon="11.344312890738763"><ele>423.0</ele><time>2026-04-04T15:46:59Z</time></trkpt><trkpt lat="43.59132806459226" lon="11.344477185695087"><ele>423.0</ele><time>2026-04-04T15:47:00Z</time></trkpt><trkpt lat="43.59126940291845" lon="11.34463931987299"><ele>423.0</ele><time>2026-04-04T15:47:01Z</time></trkpt><trkpt lat="43.59121115150588" lon="11.344800965034052"><ele>423.0</ele><time>2026-04-04T15:47:02Z</time></trkpt><trkpt lat="43.59114635908809" lon="11.34495806451595"><ele>423.0</ele><time>2026-04-04T15:47:03Z</time></trkpt><trkpt lat="43.59111699930676" lon="11.345142866821512"><ele>425.0</ele><time>2026-04-04T15:47:04Z</time></trkpt><trkpt lat="43.59108449924624" lon="11.345314694013155"><ele>427.0</ele><time>2026-04-04T15:47:05Z</time></trkpt><trkpt lat="43.591086737305595" lon="11.34549439597988"><ele>429.0</ele><time>2026-04-04T15:47:06Z</time></trkpt><trkpt lat="43.59110570549078" lon="11.34567921351513"><ele>431.0</ele><time>2026-04-04T15:47:07Z</time></trkpt><trkpt lat="43.59112976019203" lon="11.345863689857747"><ele>430.0</ele><time>2026-04-04T15:47:08Z</time></trkpt><trkpt lat="43.59116872761701" lon="11.346038064908306"><ele>429.0</ele><time>2026-04-04T15:47:09Z</time></trkpt><trkpt lat="43.59123487918851" lon="11.346184717372482"><ele>428.0</ele><time>2026-04-04T15:47:10Z</time></trkpt><trkpt lat="43.59133610148359" lon="11.346292370125987"><ele>427.0</ele><time>2026-04-04T15:47:11Z</time></trkpt><trkpt lat="43.591462934254885" lon="11.346363508088688"><ele>427.0</ele><time>2026-04-04T15:47:12Z</time></trkpt><trkpt lat="43.591600589188445" lon="11.346384551997653"><ele>427.0</ele><time>2026-04-04T15:47:13Z</time></trkpt><trkpt lat="43.59174536833119" lon="11.346362766697903"><ele>427.0</ele><time>2026-04-04T15:47:14Z</time></trkpt><trkpt lat="43.59189266639234" lon="11.346306038377618"><ele>427.0</ele><time>2026-04-04T15:47:15Z</time></trkpt><trkpt lat="43.59204298683769" lon="11.346270311067528"><ele>425.5</ele><time>2026-04-04T15:47:16Z</time></trkpt><trkpt lat="43.59219235254523" lon="11.346283606549557"><ele>424.0</ele><time>2026-04-04T15:47:17Z</time></trkpt><trkpt lat="43.59233692203166" lon="11.346322085028087"><ele>422.5</ele><time>2026-04-04T15:47:18Z</time></trkpt><trkpt lat="43.5924661520923" lon="11.346386715629487"><ele>421.0</ele><time>2026-04-04T15:47:19Z</time></trkpt><trkpt lat="43.592584278074746" lon="11.346477155141374"><ele>421.75</ele><time>2026-04-04T15:47:19.999Z</time></trkpt><trkpt lat="43.592698377516406" lon="11.346585056670923"><ele>422.5</ele><time>2026-04-04T15:47:20.999Z</time></trkpt><trkpt lat="43.59280895765893" lon="11.346695417238124"><ele>423.25</ele><time>2026-04-04T15:47:21.999Z</time></trkpt><trkpt lat="43.592937114063034" lon="11.346805120012917"><ele>424.0</ele><time>2026-04-04T15:47:22.999Z</time></trkpt><trkpt lat="43.593028037913406" lon="11.346937041580018"><ele>424.0</ele><time>2026-04-04T15:47:23.999Z</time></trkpt><trkpt lat="43.593112986987194" lon="11.347060033764308"><ele>424.0</ele><time>2026-04-04T15:47:24.999Z</time></trkpt><trkpt lat="43.59317924852438" lon="11.34719260515566"><ele>424.0</ele><time>2026-04-04T15:47:25.999Z</time></trkpt><trkpt lat="43.593204113039775" lon="11.34735169747027"><ele>424.0</ele><time>2026-04-04T15:47:26.999Z</time></trkpt><trkpt lat="43.59318281980883" lon="11.34751750216644"><ele>427.5</ele><time>2026-04-04T15:47:27.999Z</time></trkpt><trkpt lat="43.593147277696396" lon="11.347687540949675"><ele>431.0</ele><time>2026-04-04T15:47:28.999Z</time></trkpt><trkpt lat="43.59313489041343" lon="11.347869923998292"><ele>434.5</ele><time>2026-04-04T15:47:29.999Z</time></trkpt><trkpt lat="43.59312630078058" lon="11.348050216530565"><ele>438.0</ele><time>2026-04-04T15:47:30.999Z</time></trkpt><trkpt lat="43.59316118459877" lon="11.348228733153334"><ele>439.5</ele><time>2026-04-04T15:47:31.999Z</time></trkpt><trkpt lat="43.5932391253084" lon="11.34839261916756"><ele>441.0</ele><time>2026-04-04T15:47:32.999Z</time></trkpt><trkpt lat="43.593307273522" lon="11.34856848681898"><ele>442.5</ele><time>2026-04-04T15:47:33.999Z</time></trkpt><trkpt lat="43.59337618573249" lon="11.348740072523904"><ele>444.0</ele><time>2026-04-04T15:47:34.999Z</time></trkpt><trkpt lat="43.59344098137532" lon="11.348913388952564"><ele>447.0</ele><time>2026-04-04T15:47:35.999Z</time></trkpt><trkpt lat="43.593469191240864" lon="11.34907966313954"><ele>450.0</ele><time>2026-04-04T15:47:36.999Z</time></trkpt><trkpt lat="43.59345137278002" lon="11.349241497975868"><ele>453.0</ele><time>2026-04-04T15:47:37.999Z</time></trkpt><trkpt lat="43.59339494859883" lon="11.349406639213264"><ele>456.0</ele><time>2026-04-04T15:47:38.999Z</time></trkpt><trkpt lat="43.593354696476084" lon="11.349594429702556"><ele>458.25</ele><time>2026-04-04T15:47:39.999Z</time></trkpt><trkpt lat="43.593319476981385" lon="11.349762481118061"><ele>460.5</ele><time>2026-04-04T15:47:40.999Z</time></trkpt><trkpt lat="43.59333951295084" lon="11.34996444704332"><ele>462.75</ele><time>2026-04-04T15:47:41.999Z</time></trkpt><trkpt lat="43.59338813580037" lon="11.350155582177589"><ele>465.0</ele><time>2026-04-04T15:47:42.999Z</time></trkpt><trkpt lat="43.59343009984592" lon="11.35034366800554"><ele>465.0</ele><time>2026-04-04T15:47:43.999Z</time></trkpt><trkpt lat="43.593506815383826" lon="11.350518031675207"><ele>465.0</ele><time>2026-04-04T15:47:44.999Z</time></trkpt><trkpt lat="43.593580317026024" lon="11.350688641316127"><ele>465.0</ele><time>2026-04-04T15:47:45.999Z</time></trkpt><trkpt lat="43.59363449945044" lon="11.350870081638636"><ele>465.0</ele><time>2026-04-04T15:47:46.999Z</time></trkpt><trkpt lat="43.59364435875123" lon="11.35104764317488"><ele>467.0</ele><time>2026-04-04T15:47:47.999Z</time></trkpt><trkpt lat="43.59363072605448" lon="11.351233581041464"><ele>469.0</ele><time>2026-04-04T15:47:48.999Z</time></trkpt><trkpt lat="43.593604918101036" lon="11.351416829729871"><ele>471.0</ele><time>2026-04-04T15:47:49.999Z</time></trkpt><trkpt lat="43.59355779061108" lon="11.35159978950235"><ele>473.0</ele><time>2026-04-04T15:47:51Z</time></trkpt><trkpt lat="43.593503406368576" lon="11.351778798835875"><ele>473.0</ele><time>2026-04-04T15:47:52Z</time></trkpt><trkpt lat="43.59345053253891" lon="11.351971362196245"><ele>473.0</ele><time>2026-04-04T15:47:53Z</time></trkpt><trkpt lat="43.59337152047382" lon="11.352151661138363"><ele>473.0</ele><time>2026-04-04T15:47:54Z</time></trkpt><trkpt lat="43.593266425859504" lon="11.352301622664532"><ele>470.75</ele><time>2026-04-04T15:47:55Z</time></trkpt><trkpt lat="43.593171792266055" lon="11.352454685070686"><ele>468.5</ele><time>2026-04-04T15:47:56Z</time></trkpt><trkpt lat="43.593082932583755" lon="11.352617635523625"><ele>466.25</ele><time>2026-04-04T15:47:57Z</time></trkpt><trkpt lat="43.59298169063939" lon="11.352764456354606"><ele>464.0</ele><time>2026-04-04T15:47:58Z</time></trkpt><trkpt lat="43.59293659298375" lon="11.352944929412057"><ele>465.5</ele><time>2026-04-04T15:47:59Z</time></trkpt><trkpt lat="43.59292970717174" lon="11.353148965271627"><ele>467.0</ele><time>2026-04-04T15:48:00Z</time></trkpt><trkpt lat="43.59288382369543" lon="11.353321548332705"><ele>468.5</ele><time>2026-04-04T15:48:01Z</time></trkpt><trkpt lat="43.59280199250837" lon="11.353470892898818"><ele>470.0</ele><time>2026-04-04T15:48:02Z</time></trkpt><trkpt lat="43.59270558939805" lon="11.353625491363085"><ele>470.0</ele><time>2026-04-04T15:48:03Z</time></trkpt><trkpt lat="43.59259686706344" lon="11.35375681257625"><ele>470.0</ele><time>2026-04-04T15:48:04Z</time></trkpt><trkpt lat="43.59249113261366" lon="11.353898588965944"><ele>470.0</ele><time>2026-04-04T15:48:05Z</time></trkpt><trkpt lat="43.59239234340166" lon="11.354041258811822"><ele>470.0</ele><time>2026-04-04T15:48:06Z</time></trkpt><trkpt lat="43.59229351692375" lon="11.354184737945358"><ele>469.0</ele><time>2026-04-04T15:48:07Z</time></trkpt><trkpt lat="43.59217822162805" lon="11.354286012347805"><ele>468.0</ele><time>2026-04-04T15:48:08Z</time></trkpt><trkpt lat="43.59204209317411" lon="11.35429717845386"><ele>467.0</ele><time>2026-04-04T15:48:09Z</time></trkpt><trkpt lat="43.591897474113075" lon="11.354355430234644"><ele>466.0</ele><time>2026-04-04T15:48:10Z</time></trkpt><trkpt lat="43.591772334563046" lon="11.354467858374587"><ele>467.0</ele><time>2026-04-04T15:48:11Z</time></trkpt><trkpt lat="43.59167830454054" lon="11.354594056305723"><ele>468.0</ele><time>2026-04-04T15:48:12Z</time></trkpt><trkpt lat="43.59155321968765" lon="11.354699929118057"><ele>469.0</ele><time>2026-04-04T15:48:13Z</time></trkpt><trkpt lat="43.59142948455042" lon="11.354779864426998"><ele>470.0</ele><time>2026-04-04T15:48:14Z</time></trkpt><trkpt lat="43.59128822456283" lon="11.354848363264503"><ele>472.25</ele><time>2026-04-04T15:48:15Z</time></trkpt><trkpt lat="43.59114859800161" lon="11.354905541126877"><ele>474.5</ele><time>2026-04-04T15:48:16Z</time></trkpt><trkpt lat="43.59102147352569" lon="11.354974060714198"><ele>476.75</ele><time>2026-04-04T15:48:17Z</time></trkpt><trkpt lat="43.590903760765556" lon="11.355059575931753"><ele>479.0</ele><time>2026-04-04T15:48:18Z</time></trkpt><trkpt lat="43.590800926041005" lon="11.35517206976853"><ele>479.0</ele><time>2026-04-04T15:48:19Z</time></trkpt><trkpt lat="43.59074192928836" lon="11.355317104402788"><ele>479.0</ele><time>2026-04-04T15:48:20Z</time></trkpt><trkpt lat="43.59071654270733" lon="11.355464169783147"><ele>479.0</ele><time>2026-04-04T15:48:21Z</time></trkpt><trkpt lat="43.59073283489805" lon="11.355610123050301"><ele>479.0</ele><time>2026-04-04T15:48:22Z</time></trkpt><trkpt lat="43.59079007185913" lon="11.355733670797564"><ele>479.0</ele><time>2026-04-04T15:48:23Z</time></trkpt><trkpt lat="43.59087845501481" lon="11.355817668976114"><ele>478.79999999999995</ele><time>2026-04-04T15:48:24Z</time></trkpt><trkpt lat="43.59097209081969" lon="11.355856489101864"><ele>478.59999999999997</ele><time>2026-04-04T15:48:25Z</time></trkpt><trkpt lat="43.591066592626696" lon="11.355857807922158"><ele>478.4</ele><time>2026-04-04T15:48:26Z</time></trkpt><trkpt lat="43.591152830341" lon="11.355835332909066"><ele>478.2</ele><time>2026-04-04T15:48:27Z</time></trkpt><trkpt lat="43.59123430073596" lon="11.355802055225986"><ele>478.0</ele><time>2026-04-04T15:48:28Z</time></trkpt><trkpt lat="43.59132005459559" lon="11.355767040292637"><ele>477.4</ele><time>2026-04-04T15:48:29Z</time></trkpt><trkpt lat="43.59140705180946" lon="11.355759247449491"><ele>476.79999999999995</ele><time>2026-04-04T15:48:30Z</time></trkpt><trkpt lat="43.591492414719234" lon="11.355785143639425"><ele>476.2</ele><time>2026-04-04T15:48:31Z</time></trkpt><trkpt lat="43.59156855189223" lon="11.355859344685058"><ele>475.6</ele><time>2026-04-04T15:48:32Z</time></trkpt><trkpt lat="43.591598975648886" lon="11.355992922099187"><ele>475.0</ele><time>2026-04-04T15:48:33Z</time></trkpt><trkpt lat="43.59166693330995" lon="11.356089461229562"><ele>475.0</ele><time>2026-04-04T15:48:34Z</time></trkpt><trkpt lat="43.59173162866548" lon="11.356195257245624"><ele>475.0</ele><time>2026-04-04T15:48:35Z</time></trkpt><trkpt lat="43.591822520709904" lon="11.356268674615563"><ele>475.0</ele><time>2026-04-04T15:48:36Z</time></trkpt><trkpt lat="43.59191414033242" lon="11.356331061934352"><ele>475.0</ele><time>2026-04-04T15:48:37Z</time></trkpt><trkpt lat="43.592007221164344" lon="11.356391127859993"><ele>475.0</ele><time>2026-04-04T15:48:38Z</time></trkpt><trkpt lat="43.59209101675951" lon="11.356465200481846"><ele>474.00000000000006</ele><time>2026-04-04T15:48:39Z</time></trkpt><trkpt lat="43.592143174663356" lon="11.356556577184413"><ele>473.0</ele><time>2026-04-04T15:48:40Z</time></trkpt><trkpt lat="43.59219130852579" lon="11.356651597485303"><ele>472.0</ele><time>2026-04-04T15:48:41Z</time></trkpt><trkpt lat="43.59219716282498" lon="11.356765528786214"><ele>471.0</ele><time>2026-04-04T15:48:42Z</time></trkpt><trkpt lat="43.59222012157948" lon="11.35688605856811"><ele>470.00000000000006</ele><time>2026-04-04T15:48:43Z</time></trkpt><trkpt lat="43.592243145833564" lon="11.357013947798803"><ele>469.0</ele><time>2026-04-04T15:48:44Z</time></trkpt><trkpt lat="43.59226451152626" lon="11.357152293689952"><ele>473.0</ele><time>2026-04-04T15:48:45Z</time></trkpt><trkpt lat="43.592285711136064" lon="11.357300908592505"><ele>477.0</ele><time>2026-04-04T15:48:46Z</time></trkpt><trkpt lat="43.59230884626116" lon="11.357463092673944"><ele>481.0</ele><time>2026-04-04T15:48:47Z</time></trkpt><trkpt lat="43.592333546568156" lon="11.357617211394894"><ele>485.0</ele><time>2026-04-04T15:48:48Z</time></trkpt><trkpt lat="43.59236333271749" lon="11.357786778618737"><ele>485.0</ele><time>2026-04-04T15:48:49Z</time></trkpt><trkpt lat="43.59240335204055" lon="11.357976091520225"><ele>485.0</ele><time>2026-04-04T15:48:50Z</time></trkpt><trkpt lat="43.59244971565488" lon="11.358166479201039"><ele>485.0</ele><time>2026-04-04T15:48:51Z</time></trkpt><trkpt lat="43.59250708054318" lon="11.358352920192173"><ele>485.0</ele><time>2026-04-04T15:48:52Z</time></trkpt><trkpt lat="43.59257652349105" lon="11.35848405618002"><ele>487.99999999999994</ele><time>2026-04-04T15:48:53Z</time></trkpt><trkpt lat="43.59261654821183" lon="11.358594645306875"><ele>491.0</ele><time>2026-04-04T15:48:54Z</time></trkpt><trkpt lat="43.59266335262396" lon="11.358679967709222"><ele>494.0</ele><time>2026-04-04T15:48:55Z</time></trkpt><trkpt lat="43.59270405671206" lon="11.35875776554095"><ele>497.0</ele><time>2026-04-04T15:48:56Z</time></trkpt><trkpt lat="43.592721935475666" lon="11.358922738416197"><ele>499.99999999999994</ele><time>2026-04-04T15:48:58Z</time></trkpt><trkpt lat="43.59270172415699" lon="11.359040067235838"><ele>503.0</ele><time>2026-04-04T15:48:59Z</time></trkpt><trkpt lat="43.592627940078955" lon="11.359135812770313"><ele>504.0</ele><time>2026-04-04T15:49:00Z</time></trkpt><trkpt lat="43.59254643976238" lon="11.359257244524464"><ele>505.0</ele><time>2026-04-04T15:49:01Z</time></trkpt><trkpt lat="43.59248123177278" lon="11.35941823300157"><ele>506.0</ele><time>2026-04-04T15:49:02Z</time></trkpt><trkpt lat="43.59245481203629" lon="11.35961539126533"><ele>507.0</ele><time>2026-04-04T15:49:03Z</time></trkpt><trkpt lat="43.5924140992479" lon="11.359821295858119"><ele>507.33333333333337</ele><time>2026-04-04T15:49:04Z</time></trkpt><trkpt lat="43.592384267151" lon="11.36003954703231"><ele>507.6666666666667</ele><time>2026-04-04T15:49:05Z</time></trkpt><trkpt lat="43.59235592586158" lon="11.360264649214692"><ele>508.0</ele><time>2026-04-04T15:49:06Z</time></trkpt><trkpt lat="43.592351250295316" lon="11.360455727750674"><ele>511.25</ele><time>2026-04-04T15:49:07Z</time></trkpt><trkpt lat="43.592403337992145" lon="11.360617213342113"><ele>514.5</ele><time>2026-04-04T15:49:08Z</time></trkpt><trkpt lat="43.59247943519634" lon="11.36075230241803"><ele>517.75</ele><time>2026-04-04T15:49:09Z</time></trkpt><trkpt lat="43.5926196016258" lon="11.360796431251849"><ele>521.0</ele><time>2026-04-04T15:49:10Z</time></trkpt><trkpt lat="43.59275036908463" lon="11.36083475449317"><ele>521.0</ele><time>2026-04-04T15:49:11Z</time></trkpt><trkpt lat="43.59283490637908" lon="11.36095602125095"><ele>521.0</ele><time>2026-04-04T15:49:12Z</time></trkpt><trkpt lat="43.59288757887746" lon="11.361106539524634"><ele>521.0</ele><time>2026-04-04T15:49:13Z</time></trkpt><trkpt lat="43.592887083360495" lon="11.361288045492113"><ele>521.0</ele><time>2026-04-04T15:49:14Z</time></trkpt><trkpt lat="43.592875202654035" lon="11.361484964695554"><ele>523.75</ele><time>2026-04-04T15:49:15Z</time></trkpt><trkpt lat="43.592843085561626" lon="11.361685231963573"><ele>526.5</ele><time>2026-04-04T15:49:16Z</time></trkpt><trkpt lat="43.59278729492099" lon="11.361865748982925"><ele>529.25</ele><time>2026-04-04T15:49:17Z</time></trkpt><trkpt lat="43.59271289733482" lon="11.362041803898792"><ele>532.0</ele><time>2026-04-04T15:49:18Z</time></trkpt><trkpt lat="43.59263987621225" lon="11.362218842562301"><ele>532.0</ele><time>2026-04-04T15:49:19Z</time></trkpt><trkpt lat="43.59256828020782" lon="11.362399095758091"><ele>532.0</ele><time>2026-04-04T15:49:20Z</time></trkpt><trkpt lat="43.59251141010456" lon="11.362574331210977"><ele>532.0</ele><time>2026-04-04T15:49:21Z</time></trkpt><trkpt lat="43.592466740091396" lon="11.362740042039682"><ele>532.0</ele><time>2026-04-04T15:49:22Z</time></trkpt><trkpt lat="43.59243522502354" lon="11.36290704193345"><ele>532.75</ele><time>2026-04-04T15:49:23Z</time></trkpt><trkpt lat="43.59243357728803" lon="11.363061521616194"><ele>533.5</ele><time>2026-04-04T15:49:24Z</time></trkpt><trkpt lat="43.59245262056494" lon="11.363203194475869"><ele>534.25</ele><time>2026-04-04T15:49:25Z</time></trkpt><trkpt lat="43.59254598593793" lon="11.363304216001987"><ele>535.0</ele><time>2026-04-04T15:49:26Z</time></trkpt><trkpt lat="43.59265491132956" lon="11.363358352353428"><ele>535.0</ele><time>2026-04-04T15:49:27Z</time></trkpt><trkpt lat="43.59277396501363" lon="11.363361644136138"><ele>535.0</ele><time>2026-04-04T15:49:28Z</time></trkpt><trkpt lat="43.592894631908116" lon="11.363323109986055"><ele>535.0</ele><time>2026-04-04T15:49:29Z</time></trkpt><trkpt lat="43.59302235611228" lon="11.363294530671505"><ele>535.0</ele><time>2026-04-04T15:49:30Z</time></trkpt><trkpt lat="43.593143467685465" lon="11.363271894102526"><ele>533.0</ele><time>2026-04-04T15:49:30.999Z</time></trkpt><trkpt lat="43.59326813403012" lon="11.363250398498012"><ele>531.0</ele><time>2026-04-04T15:49:31.999Z</time></trkpt><trkpt lat="43.59339376715479" lon="11.36322455202152"><ele>529.0</ele><time>2026-04-04T15:49:32.999Z</time></trkpt><trkpt lat="43.59351375516495" lon="11.363227338663005"><ele>527.0</ele><time>2026-04-04T15:49:33.999Z</time></trkpt><trkpt lat="43.59363171726166" lon="11.363256517162352"><ele>525.25</ele><time>2026-04-04T15:49:34.999Z</time></trkpt><trkpt lat="43.59375220579465" lon="11.363298590152644"><ele>523.5</ele><time>2026-04-04T15:49:35.999Z</time></trkpt><trkpt lat="43.59386506835658" lon="11.36335513435112"><ele>521.75</ele><time>2026-04-04T15:49:36.999Z</time></trkpt><trkpt lat="43.59397226268555" lon="11.363413424653327"><ele>520.0</ele><time>2026-04-04T15:49:37.999Z</time></trkpt><trkpt lat="43.59408606310836" lon="11.363472776814456"><ele>520.0</ele><time>2026-04-04T15:49:38.999Z</time></trkpt><trkpt lat="43.59419458297857" lon="11.363529393056027"><ele>520.0</ele><time>2026-04-04T15:49:39.999Z</time></trkpt><trkpt lat="43.594311949066174" lon="11.363514944844596"><ele>520.0</ele><time>2026-04-04T15:49:40.999Z</time></trkpt><trkpt lat="43.59442656791663" lon="11.363480310405256"><ele>520.0</ele><time>2026-04-04T15:49:41.999Z</time></trkpt><trkpt lat="43.59454402690989" lon="11.363414456387796"><ele>522.0</ele><time>2026-04-04T15:49:42.999Z</time></trkpt><trkpt lat="43.594644441842135" lon="11.363325330859984"><ele>524.0</ele><time>2026-04-04T15:49:43.999Z</time></trkpt><trkpt lat="43.594732356065826" lon="11.363226511371979"><ele>526.0</ele><time>2026-04-04T15:49:44.999Z</time></trkpt><trkpt lat="43.594819310115916" lon="11.363127581191446"><ele>528.0</ele><time>2026-04-04T15:49:45.999Z</time></trkpt><trkpt lat="43.59491032279117" lon="11.363018898377248"><ele>522.5</ele><time>2026-04-04T15:49:46.999Z</time></trkpt><trkpt lat="43.59501557054908" lon="11.362923627928332"><ele>517.0</ele><time>2026-04-04T15:49:47.999Z</time></trkpt><trkpt lat="43.59512294380136" lon="11.362870080221379"><ele>511.5</ele><time>2026-04-04T15:49:48.999Z</time></trkpt><trkpt lat="43.59523210791504" lon="11.362821742618127"><ele>506.0</ele><time>2026-04-04T15:49:49.999Z</time></trkpt><trkpt lat="43.59533540272615" lon="11.362763160755097"><ele>509.4</ele><time>2026-04-04T15:49:50.999Z</time></trkpt><trkpt lat="43.59543788608189" lon="11.36269381003842"><ele>512.8</ele><time>2026-04-04T15:49:51.999Z</time></trkpt><trkpt lat="43.595532275854794" lon="11.362610014139891"><ele>516.1999999999999</ele><time>2026-04-04T15:49:52.999Z</time></trkpt><trkpt lat="43.59562855778606" lon="11.36253037431321"><ele>519.6</ele><time>2026-04-04T15:49:53.999Z</time></trkpt><trkpt lat="43.59572489541909" lon="11.362454613350174"><ele>523.0</ele><time>2026-04-04T15:49:54.999Z</time></trkpt><trkpt lat="43.595820492939175" lon="11.362377073817807"><ele>523.0</ele><time>2026-04-04T15:49:55.999Z</time></trkpt><trkpt lat="43.595920577393414" lon="11.362298946896404"><ele>523.0</ele><time>2026-04-04T15:49:57Z</time></trkpt><trkpt lat="43.59603200282213" lon="11.362229319133341"><ele>523.0</ele><time>2026-04-04T15:49:58Z</time></trkpt><trkpt lat="43.596140816164244" lon="11.362187845800328"><ele>523.0</ele><time>2026-04-04T15:49:59Z</time></trkpt><trkpt lat="43.59624046055357" lon="11.362167901535578"><ele>523.6</ele><time>2026-04-04T15:50:00Z</time></trkpt><trkpt lat="43.59633167197768" lon="11.362159215351783"><ele>524.1999999999999</ele><time>2026-04-04T15:50:01Z</time></trkpt><trkpt lat="43.59642205202036" lon="11.362176605654087"><ele>524.8</ele><time>2026-04-04T15:50:02Z</time></trkpt><trkpt lat="43.5965165366471" lon="11.36222173813639"><ele>525.4</ele><time>2026-04-04T15:50:03Z</time></trkpt><trkpt lat="43.59659916145641" lon="11.362314046405361"><ele>526.0</ele><time>2026-04-04T15:50:04Z</time></trkpt><trkpt lat="43.596668397861244" lon="11.362427954460383"><ele>526.0</ele><time>2026-04-04T15:50:05Z</time></trkpt><trkpt lat="43.596736973278325" lon="11.362540497124588"><ele>526.0</ele><time>2026-04-04T15:50:06Z</time></trkpt><trkpt lat="43.59679623290616" lon="11.362688691786934"><ele>526.0</ele><time>2026-04-04T15:50:07Z</time></trkpt><trkpt lat="43.59686810670147" lon="11.362820536151077"><ele>526.0</ele><time>2026-04-04T15:50:08Z</time></trkpt><trkpt lat="43.59696218723369" lon="11.36290945846534"><ele>527.5</ele><time>2026-04-04T15:50:09Z</time></trkpt><trkpt lat="43.59707279989497" lon="11.362972174858948"><ele>529.0</ele><time>2026-04-04T15:50:10Z</time></trkpt><trkpt lat="43.59718098646521" lon="11.363018550648153"><ele>530.5</ele><time>2026-04-04T15:50:11Z</time></trkpt><trkpt lat="43.59728977020341" lon="11.36305710546959"><ele>532.0</ele><time>2026-04-04T15:50:12Z</time></trkpt><trkpt lat="43.59740244203176" lon="11.363091929102865"><ele>532.0</ele><time>2026-04-04T15:50:13Z</time></trkpt><trkpt lat="43.59751570022446" lon="11.363121671424853"><ele>532.0</ele><time>2026-04-04T15:50:14Z</time></trkpt><trkpt lat="43.597627237030444" lon="11.363157092494163"><ele>532.0</ele><time>2026-04-04T15:50:15Z</time></trkpt><trkpt lat="43.59773573427045" lon="11.363191196135935"><ele>532.0</ele><time>2026-04-04T15:50:16Z</time></trkpt><trkpt lat="43.59783933714889" lon="11.36323415859028"><ele>532.0</ele><time>2026-04-04T15:50:17Z</time></trkpt><trkpt lat="43.597937655784825" lon="11.363303165936582"><ele>532.0</ele><time>2026-04-04T15:50:18Z</time></trkpt><trkpt lat="43.598023901346515" lon="11.363399423916755"><ele>532.0</ele><time>2026-04-04T15:50:19Z</time></trkpt><trkpt lat="43.59808695470148" lon="11.363506739459687"><ele>532.0</ele><time>2026-04-04T15:50:20Z</time></trkpt><trkpt lat="43.59813929134984" lon="11.363613677241784"><ele>532.0</ele><time>2026-04-04T15:50:21Z</time></trkpt><trkpt lat="43.59817525785438" lon="11.363706139482868"><ele>532.0</ele><time>2026-04-04T15:50:22Z</time></trkpt><trkpt lat="43.59818235124843" lon="11.363793009196668"><ele>532.0</ele><time>2026-04-04T15:50:23Z</time></trkpt><trkpt lat="43.598376660791004" lon="11.363773722710153"><ele>532.0</ele><time>2026-04-04T15:50:26Z</time></trkpt><trkpt lat="43.59845047512432" lon="11.363750766248682"><ele>532.0</ele><time>2026-04-04T15:50:27Z</time></trkpt><trkpt lat="43.59852982214374" lon="11.363685101715777"><ele>532.0</ele><time>2026-04-04T15:50:28Z</time></trkpt><trkpt lat="43.59861358487085" lon="11.363638116199075"><ele>532.0</ele><time>2026-04-04T15:50:29Z</time></trkpt><trkpt lat="43.59870886875094" lon="11.363611117504844"><ele>532.0</ele><time>2026-04-04T15:50:30Z</time></trkpt><trkpt lat="43.59878694629842" lon="11.363569704483199"><ele>532.0</ele><time>2026-04-04T15:50:31Z</time></trkpt><trkpt lat="43.598861355448676" lon="11.36353023726013"><ele>532.5</ele><time>2026-04-04T15:50:32Z</time></trkpt><trkpt lat="43.59892801600066" lon="11.363494696983226"><ele>533.0</ele><time>2026-04-04T15:50:33Z</time></trkpt><trkpt lat="43.59898880690616" lon="11.363461427354132"><ele>533.5</ele><time>2026-04-04T15:50:34Z</time></trkpt><trkpt lat="43.59911662036346" lon="11.363379308591687"><ele>534.0</ele><time>2026-04-04T15:50:36Z</time></trkpt><trkpt lat="43.59918438532241" lon="11.363337707405845"><ele>534.5</ele><time>2026-04-04T15:50:37Z</time></trkpt><trkpt lat="43.59925345155945" lon="11.363298936096605"><ele>535.0</ele><time>2026-04-04T15:50:38Z</time></trkpt><trkpt lat="43.59931344185185" lon="11.363253056470432"><ele>535.0</ele><time>2026-04-04T15:50:39Z</time></trkpt><trkpt lat="43.59937494146843" lon="11.363197664553272"><ele>535.0</ele><time>2026-04-04T15:50:40Z</time></trkpt><trkpt lat="43.59942457537322" lon="11.363117414152851"><ele>535.0</ele><time>2026-04-04T15:50:41Z</time></trkpt><trkpt lat="43.599493718499666" lon="11.363058713919127"><ele>535.0</ele><time>2026-04-04T15:50:42Z</time></trkpt><trkpt lat="43.59954546812373" lon="11.362982439314603"><ele>535.0</ele><time>2026-04-04T15:50:43Z</time></trkpt><trkpt lat="43.59960103219827" lon="11.362900542293751"><ele>535.0</ele><time>2026-04-04T15:50:44Z</time></trkpt><trkpt lat="43.59965702265771" lon="11.362823130232174"><ele>535.75</ele><time>2026-04-04T15:50:45Z</time></trkpt><trkpt lat="43.59971329442041" lon="11.362713914634808"><ele>536.5</ele><time>2026-04-04T15:50:46Z</time></trkpt><trkpt lat="43.59978890886927" lon="11.362614500259083"><ele>537.25</ele><time>2026-04-04T15:50:47Z</time></trkpt><trkpt lat="43.59986656069414" lon="11.362492169229876"><ele>538.0</ele><time>2026-04-04T15:50:48Z</time></trkpt><trkpt lat="43.599958526299304" lon="11.362357638795597"><ele>538.0</ele><time>2026-04-04T15:50:49Z</time></trkpt><trkpt lat="43.60006159989856" lon="11.362209317578346"><ele>538.0</ele><time>2026-04-04T15:50:50Z</time></trkpt><trkpt lat="43.60014121049912" lon="11.36208405914413"><ele>538.0</ele><time>2026-04-04T15:50:51Z</time></trkpt><trkpt lat="43.60019306600075" lon="11.362021754219855"><ele>538.0</ele><time>2026-04-04T15:50:52Z</time></trkpt><trkpt lat="43.600286757952226" lon="11.361945455462521"><ele>538.0</ele><time>2026-04-04T15:50:54Z</time></trkpt><trkpt lat="43.600360020525784" lon="11.361870410776874"><ele>538.3333333333334</ele><time>2026-04-04T15:50:55Z</time></trkpt><trkpt lat="43.60043277240895" lon="11.361802398611449"><ele>538.6666666666667</ele><time>2026-04-04T15:50:56Z</time></trkpt><trkpt lat="43.60050931715812" lon="11.361732342507496"><ele>539.0</ele><time>2026-04-04T15:50:57Z</time></trkpt><trkpt lat="43.60057128681207" lon="11.36168242452551"><ele>539.3333333333334</ele><time>2026-04-04T15:50:58Z</time></trkpt><trkpt lat="43.60063592922178" lon="11.361630585075266"><ele>539.6666666666666</ele><time>2026-04-04T15:50:59Z</time></trkpt><trkpt lat="43.600702882988216" lon="11.361577678326315"><ele>540.0</ele><time>2026-04-04T15:51:00Z</time></trkpt><trkpt lat="43.60078673076853" lon="11.361511421868016"><ele>540.0</ele><time>2026-04-04T15:51:02Z</time></trkpt><trkpt lat="43.60087941131006" lon="11.361441323957045"><ele>540.0</ele><time>2026-04-04T15:51:04Z</time></trkpt><trkpt lat="43.60096373619122" lon="11.361370786357682"><ele>540.0</ele><time>2026-04-04T15:51:06Z</time></trkpt><trkpt lat="43.60101429978149" lon="11.361301902123893"><ele>540.0</ele><time>2026-04-04T15:51:08Z</time></trkpt><trkpt lat="43.60106226602226" lon="11.361224429575206"><ele>540.0</ele><time>2026-04-04T15:51:10Z</time></trkpt><trkpt lat="43.601122320483334" lon="11.361121255392899"><ele>540.0</ele><time>2026-04-04T15:51:12Z</time></trkpt><trkpt lat="43.60115766894475" lon="11.361038064758116"><ele>545.0</ele><time>2026-04-04T15:51:14Z</time></trkpt><trkpt lat="43.60150768216711" lon="11.361180338305992"><ele>550.0</ele><time>2026-04-04T15:51:17Z</time></trkpt><trkpt lat="43.601556109081336" lon="11.361117686658917"><ele>555.0</ele><time>2026-04-04T15:51:19Z</time></trkpt><trkpt lat="43.6016415286075" lon="11.361084240812838"><ele>555.0</ele><time>2026-04-04T15:51:21Z</time></trkpt><trkpt lat="43.60171814060628" lon="11.361006584267798"><ele>555.0</ele><time>2026-04-04T15:51:23Z</time></trkpt><trkpt lat="43.601822665532566" lon="11.360957468243303"><ele>555.0</ele><time>2026-04-04T15:51:25Z</time></trkpt><trkpt lat="43.6019005544597" lon="11.360895469718379"><ele>555.0</ele><time>2026-04-04T15:51:27Z</time></trkpt><trkpt lat="43.602017055526886" lon="11.360817115850358"><ele>555.0</ele><time>2026-04-04T15:51:29Z</time></trkpt><trkpt lat="43.60212295679305" lon="11.360748042521509"><ele>556.6</ele><time>2026-04-04T15:51:31Z</time></trkpt><trkpt lat="43.60222968164326" lon="11.360680693908012"><ele>558.2</ele><time>2026-04-04T15:51:33Z</time></trkpt><trkpt lat="43.60231443899304" lon="11.360585283318064"><ele>559.8</ele><time>2026-04-04T15:51:35Z</time></trkpt><trkpt lat="43.602393471094516" lon="11.360525505957428"><ele>561.4</ele><time>2026-04-04T15:51:37Z</time></trkpt><trkpt lat="43.60250320280233" lon="11.360470709155937"><ele>563.0</ele><time>2026-04-04T15:51:38.999Z</time></trkpt><trkpt lat="43.60257525018884" lon="11.360410936075986"><ele>563.0</ele><time>2026-04-04T15:51:39.999Z</time></trkpt><trkpt lat="43.60264336763423" lon="11.360370855047412"><ele>563.0</ele><time>2026-04-04T15:51:40.999Z</time></trkpt><trkpt lat="43.60271180381043" lon="11.36031846663183"><ele>563.0</ele><time>2026-04-04T15:51:41.999Z</time></trkpt><trkpt lat="43.602811054232845" lon="11.360232819805251"><ele>563.0</ele><time>2026-04-04T15:51:43.999Z</time></trkpt><trkpt lat="43.60289848768808" lon="11.360140520387569"><ele>563.0</ele><time>2026-04-04T15:51:45.999Z</time></trkpt><trkpt lat="43.60298115839716" lon="11.360075380760785"><ele>563.3333333333333</ele><time>2026-04-04T15:51:47.999Z</time></trkpt><trkpt lat="43.603047928470424" lon="11.36002964902374"><ele>563.6666666666666</ele><time>2026-04-04T15:51:48.999Z</time></trkpt><trkpt lat="43.6031081149746" lon="11.359996622909714"><ele>564.0</ele><time>2026-04-04T15:51:49.999Z</time></trkpt><trkpt lat="43.603215962355605" lon="11.359944513816853"><ele>564.3333333333334</ele><time>2026-04-04T15:51:51.999Z</time></trkpt><trkpt lat="43.603278698667424" lon="11.359903759283869"><ele>564.6666666666667</ele><time>2026-04-04T15:51:52.999Z</time></trkpt><trkpt lat="43.60334563304013" lon="11.359873663045807"><ele>565.0</ele><time>2026-04-04T15:51:53.999Z</time></trkpt><trkpt lat="43.60341224828686" lon="11.35984326444518"><ele>565.0</ele><time>2026-04-04T15:51:54.999Z</time></trkpt><trkpt lat="43.603487245233204" lon="11.359726474531554"><ele>565.0</ele><time>2026-04-04T15:51:56.999Z</time></trkpt><trkpt lat="43.60355787920266" lon="11.35962799989922"><ele>565.0</ele><time>2026-04-04T15:51:58.999Z</time></trkpt><trkpt lat="43.60369337670603" lon="11.359572206106934"><ele>565.0</ele><time>2026-04-04T15:52:00.999Z</time></trkpt><trkpt lat="43.603761501696745" lon="11.35956396258235"><ele>565.0</ele><time>2026-04-04T15:52:02Z</time></trkpt><trkpt lat="43.60383349012689" lon="11.359552748596728"><ele>565.6</ele><time>2026-04-04T15:52:03Z</time></trkpt><trkpt lat="43.603925735079976" lon="11.359487537599525"><ele>566.2</ele><time>2026-04-04T15:52:05Z</time></trkpt><trkpt lat="43.604018854853855" lon="11.359415404379698"><ele>566.8</ele><time>2026-04-04T15:52:07Z</time></trkpt><trkpt lat="43.6041241125978" lon="11.359320777003239"><ele>567.4</ele><time>2026-04-04T15:52:09Z</time></trkpt><trkpt lat="43.6041677963991" lon="11.359249067427234"><ele>568.0</ele><time>2026-04-04T15:52:10Z</time></trkpt><trkpt lat="43.604256430302726" lon="11.359125454054814"><ele>568.0</ele><time>2026-04-04T15:52:12Z</time></trkpt><trkpt lat="43.60438335603108" lon="11.359092958038817"><ele>568.0</ele><time>2026-04-04T15:52:14Z</time></trkpt><trkpt lat="43.60445865585529" lon="11.359079456465825"><ele>568.0</ele><time>2026-04-04T15:52:15Z</time></trkpt><trkpt lat="43.604519864284306" lon="11.35905631154857"><ele>568.0</ele><time>2026-04-04T15:52:16Z</time></trkpt><trkpt lat="43.60460544645957" lon="11.35895647856306"><ele>568.0</ele><time>2026-04-04T15:52:18Z</time></trkpt><trkpt lat="43.604716238317586" lon="11.358912789126137"><ele>568.6</ele><time>2026-04-04T15:52:20Z</time></trkpt><trkpt lat="43.60481281546307" lon="11.358792825297629"><ele>569.1999999999999</ele><time>2026-04-04T15:52:22Z</time></trkpt><trkpt lat="43.60487216469587" lon="11.358741115654963"><ele>569.8</ele><time>2026-04-04T15:52:23Z</time></trkpt><trkpt lat="43.6049496479867" lon="11.35870138168895"><ele>570.4</ele><time>2026-04-04T15:52:24Z</time></trkpt><trkpt lat="43.60500315166812" lon="11.358651334249364"><ele>571.0</ele><time>2026-04-04T15:52:25Z</time></trkpt><trkpt lat="43.6050965462894" lon="11.358532927817187"><ele>571.0</ele><time>2026-04-04T15:52:27Z</time></trkpt><trkpt lat="43.60513547522455" lon="11.358451460932258"><ele>571.0</ele><time>2026-04-04T15:52:28Z</time></trkpt><trkpt lat="43.60519251603272" lon="11.358307645595254"><ele>571.0</ele><time>2026-04-04T15:52:30Z</time></trkpt><trkpt lat="43.60525759879123" lon="11.358257881205882"><ele>571.0</ele><time>2026-04-04T15:52:31Z</time></trkpt><trkpt lat="43.605341716921174" lon="11.358214956500907"><ele>571.0</ele><time>2026-04-04T15:52:32Z</time></trkpt><trkpt lat="43.60543818449777" lon="11.358168170694952"><ele>572.8</ele><time>2026-04-04T15:52:33Z</time></trkpt><trkpt lat="43.605533045038136" lon="11.358108952585168"><ele>574.6</ele><time>2026-04-04T15:52:34Z</time></trkpt><trkpt lat="43.605625402607814" lon="11.358049356631811"><ele>576.4</ele><time>2026-04-04T15:52:35Z</time></trkpt><trkpt lat="43.605719331338015" lon="11.357986612550723"><ele>578.2</ele><time>2026-04-04T15:52:36Z</time></trkpt><trkpt lat="43.60580820099793" lon="11.357916658375938"><ele>580.0</ele><time>2026-04-04T15:52:37Z</time></trkpt><trkpt lat="43.60589562761219" lon="11.35783460415944"><ele>580.8</ele><time>2026-04-04T15:52:38Z</time></trkpt><trkpt lat="43.60596123521679" lon="11.357737337126823"><ele>581.6</ele><time>2026-04-04T15:52:39Z</time></trkpt><trkpt lat="43.60603175610729" lon="11.357623855373113"><ele>582.4</ele><time>2026-04-04T15:52:40Z</time></trkpt><trkpt lat="43.60611434913178" lon="11.357503328140472"><ele>583.2</ele><time>2026-04-04T15:52:41Z</time></trkpt><trkpt lat="43.60619356202065" lon="11.357393558910182"><ele>584.0</ele><time>2026-04-04T15:52:42Z</time></trkpt><trkpt lat="43.60627112391205" lon="11.357289903649674"><ele>586.6</ele><time>2026-04-04T15:52:43Z</time></trkpt><trkpt lat="43.60634977328869" lon="11.357177815389376"><ele>589.2</ele><time>2026-04-04T15:52:44Z</time></trkpt><trkpt lat="43.60642670622907" lon="11.357069805043285"><ele>591.8000000000001</ele><time>2026-04-04T15:52:45Z</time></trkpt><trkpt lat="43.60650424279974" lon="11.356967309782647"><ele>594.4</ele><time>2026-04-04T15:52:46Z</time></trkpt><trkpt lat="43.60658644169134" lon="11.356891711732493"><ele>597.0</ele><time>2026-04-04T15:52:47Z</time></trkpt><trkpt lat="43.60669203185857" lon="11.356822268754655"><ele>597.0</ele><time>2026-04-04T15:52:48Z</time></trkpt><trkpt lat="43.60679043971903" lon="11.356783728970928"><ele>597.0</ele><time>2026-04-04T15:52:49Z</time></trkpt><trkpt lat="43.60685674963695" lon="11.35669386158395"><ele>597.0</ele><time>2026-04-04T15:52:50Z</time></trkpt><trkpt lat="43.60691727268346" lon="11.356609381707138"><ele>597.0</ele><time>2026-04-04T15:52:51Z</time></trkpt><trkpt lat="43.606957607056415" lon="11.35649803023204"><ele>597.0</ele><time>2026-04-04T15:52:52Z</time></trkpt><trkpt lat="43.60697112334641" lon="11.356402685794093"><ele>597.0</ele><time>2026-04-04T15:52:53Z</time></trkpt><trkpt lat="43.60698278347598" lon="11.356313657611102"><ele>599.75</ele><time>2026-04-04T15:52:54Z</time></trkpt><trkpt lat="43.60702877940467" lon="11.356206163060381"><ele>602.5</ele><time>2026-04-04T15:52:56Z</time></trkpt><trkpt lat="43.60701965649179" lon="11.35608148292158"><ele>605.25</ele><time>2026-04-04T15:52:59Z</time></trkpt><trkpt lat="43.60722673727794" lon="11.356005490538335"><ele>608.0</ele><time>2026-04-04T15:53:02Z</time></trkpt><trkpt lat="43.60728632053185" lon="11.355923086877814"><ele>608.0</ele><time>2026-04-04T15:53:04Z</time></trkpt><trkpt lat="43.6073291526652" lon="11.35583855261581"><ele>608.0</ele><time>2026-04-04T15:53:06Z</time></trkpt><trkpt lat="43.60740028819166" lon="11.355796907481903"><ele>608.0</ele><time>2026-04-04T15:53:51.999Z</time></trkpt><trkpt lat="43.60741785155987" lon="11.35568288981418"><ele>608.0</ele><time>2026-04-04T15:53:59.999Z</time></trkpt><trkpt lat="43.60748040586401" lon="11.355642233507249"><ele>608.0</ele><time>2026-04-04T15:54:01.999Z</time></trkpt><trkpt lat="43.60754620421807" lon="11.355593026510647"><ele>608.0</ele><time>2026-04-04T15:54:03.999Z</time></trkpt><trkpt lat="43.607629484235794" lon="11.35553895638892"><ele>609.4</ele><time>2026-04-04T15:54:05.999Z</time></trkpt><trkpt lat="43.60771742638921" lon="11.355476799864967"><ele>610.8</ele><time>2026-04-04T15:54:08Z</time></trkpt><trkpt lat="43.607777275372605" lon="11.35543153344161"><ele>612.2</ele><time>2026-04-04T15:54:10Z</time></trkpt><trkpt lat="43.60784112361242" lon="11.355338066767676"><ele>613.6</ele><time>2026-04-04T15:54:12Z</time></trkpt><trkpt lat="43.607883634916085" lon="11.35523061134723"><ele>615.0</ele><time>2026-04-04T15:54:14Z</time></trkpt><trkpt lat="43.60795806679666" lon="11.355131245168206"><ele>615.0</ele><time>2026-04-04T15:54:17Z</time></trkpt><trkpt lat="43.608022711981434" lon="11.355097871348415"><ele>615.0</ele><time>2026-04-04T15:54:20Z</time></trkpt><trkpt lat="43.60810157554051" lon="11.355053132712492"><ele>615.0</ele><time>2026-04-04T15:54:22Z</time></trkpt><trkpt lat="43.60815283752317" lon="11.354971805225745"><ele>615.0</ele><time>2026-04-04T15:54:25Z</time></trkpt><trkpt lat="43.60821626814416" lon="11.35490231067464"><ele>615.0</ele><time>2026-04-04T15:54:28Z</time></trkpt><trkpt lat="43.60827101469262" lon="11.354848786759293"><ele>615.0</ele><time>2026-04-04T15:54:31Z</time></trkpt><trkpt lat="43.60823797662183" lon="11.35476347973674"><ele>618.5</ele><time>2026-04-04T15:56:55Z</time></trkpt><trkpt lat="43.60827011040838" lon="11.354688015518274"><ele>622.0</ele><time>2026-04-04T15:57:32Z</time></trkpt><trkpt lat="43.60832262823187" lon="11.35458658046367"><ele>625.5</ele><time>2026-04-04T16:01:07Z</time></trkpt><trkpt lat="43.60838221078244" lon="11.354530831625329"><ele>629.0</ele><time>2026-04-04T16:01:18Z</time></trkpt><trkpt lat="43.60843956404357" lon="11.354574755854422"><ele>632.5</ele><time>2026-04-04T16:01:19Z</time></trkpt><trkpt lat="43.60851805870535" lon="11.354569711927727"><ele>636.0</ele><time>2026-04-04T16:01:23Z</time></trkpt><trkpt lat="43.60858638345596" lon="11.354498642795338"><ele>636.0</ele><time>2026-04-04T16:02:26.999Z</time></trkpt><trkpt lat="43.60864388270855" lon="11.354440013717465"><ele>636.0</ele><time>2026-04-04T16:02:28.999Z</time></trkpt><trkpt lat="43.60873312598518" lon="11.354367078559465"><ele>636.0</ele><time>2026-04-04T16:02:32Z</time></trkpt><trkpt lat="43.608818573515244" lon="11.354330876760367"><ele>636.0</ele><time>2026-04-04T16:02:34Z</time></trkpt><trkpt lat="43.608926875499456" lon="11.354318314627646"><ele>636.0</ele><time>2026-04-04T16:02:36Z</time></trkpt><trkpt lat="43.6090262300222" lon="11.354244123865787"><ele>632.3333333333334</ele><time>2026-04-04T16:02:38Z</time></trkpt><trkpt lat="43.60910939972664" lon="11.35417407892836"><ele>628.6666666666666</ele><time>2026-04-04T16:02:40Z</time></trkpt><trkpt lat="43.60916541611471" lon="11.354107317321457"><ele>625.0</ele><time>2026-04-04T16:02:42Z</time></trkpt><trkpt lat="43.60923207690877" lon="11.354073914327081"><ele>621.3333333333333</ele><time>2026-04-04T16:02:44Z</time></trkpt><trkpt lat="43.60930884372327" lon="11.354029797597635"><ele>617.6666666666666</ele><time>2026-04-04T16:02:46Z</time></trkpt><trkpt lat="43.60937416705685" lon="11.354034336708581"><ele>614.0</ele><time>2026-04-04T16:02:48Z</time></trkpt><trkpt lat="43.60945288790453" lon="11.354013981251546"><ele>613.3333333333333</ele><time>2026-04-04T16:02:50Z</time></trkpt><trkpt lat="43.60952983715222" lon="11.353978934454753"><ele>612.6666666666666</ele><time>2026-04-04T16:02:52Z</time></trkpt><trkpt lat="43.60959488971668" lon="11.353962476592843"><ele>612.0</ele><time>2026-04-04T16:02:59Z</time></trkpt><trkpt lat="43.60965813483576" lon="11.353990290776693"><ele>611.3333333333334</ele><time>2026-04-04T16:03:05Z</time></trkpt><trkpt lat="43.60972076223056" lon="11.353948063164943"><ele>610.6666666666667</ele><time>2026-04-04T16:03:10Z</time></trkpt><trkpt lat="43.60980463800736" lon="11.353895839296083"><ele>610.0</ele><time>2026-04-04T16:03:12Z</time></trkpt><trkpt lat="43.609888828845804" lon="11.353894533632845"><ele>610.0</ele><time>2026-04-04T16:03:14Z</time></trkpt><trkpt lat="43.609958708448296" lon="11.353959320747041"><ele>610.0</ele><time>2026-04-04T16:03:17Z</time></trkpt><trkpt lat="43.610022886195964" lon="11.353978564355241"><ele>610.0</ele><time>2026-04-04T16:03:19Z</time></trkpt><trkpt lat="43.61007033434171" lon="11.353905762492507"><ele>610.0</ele><time>2026-04-04T16:03:21Z</time></trkpt><trkpt lat="43.61013307586196" lon="11.353870248583151"><ele>610.0</ele><time>2026-04-04T16:03:23Z</time></trkpt><trkpt lat="43.61019248240021" lon="11.353817575969732"><ele>610.0</ele><time>2026-04-04T16:03:25Z</time></trkpt><trkpt lat="43.610293001646056" lon="11.353779915670765"><ele>612.1666666666667</ele><time>2026-04-04T16:03:27Z</time></trkpt><trkpt lat="43.610360909981466" lon="11.353778889959639"><ele>614.3333333333334</ele><time>2026-04-04T16:03:29Z</time></trkpt><trkpt lat="43.61044223077637" lon="11.35378514196438"><ele>616.5</ele><time>2026-04-04T16:03:31Z</time></trkpt><trkpt lat="43.610518850264214" lon="11.353755377746298"><ele>618.6666666666666</ele><time>2026-04-04T16:03:33.999Z</time></trkpt><trkpt lat="43.6105838634992" lon="11.353759354435216"><ele>620.8333333333333</ele><time>2026-04-04T16:03:43.999Z</time></trkpt><trkpt lat="43.61067572344358" lon="11.353732281040706"><ele>623.0</ele><time>2026-04-04T16:03:57.999Z</time></trkpt><trkpt lat="43.610775876494955" lon="11.353689073212903"><ele>623.0</ele><time>2026-04-04T16:03:59.999Z</time></trkpt><trkpt lat="43.61084578203625" lon="11.353634669204697"><ele>623.0</ele><time>2026-04-04T16:04:01.999Z</time></trkpt><trkpt lat="43.61091456151488" lon="11.353603795248816"><ele>623.0</ele><time>2026-04-04T16:04:03.999Z</time></trkpt><trkpt lat="43.61100163340971" lon="11.353579383938206"><ele>623.0</ele><time>2026-04-04T16:04:05.999Z</time></trkpt><trkpt lat="43.61109266084961" lon="11.353560720639942"><ele>623.0</ele><time>2026-04-04T16:04:07.999Z</time></trkpt><trkpt lat="43.61116514778318" lon="11.353494495164302"><ele>623.0</ele><time>2026-04-04T16:04:09.999Z</time></trkpt><trkpt lat="43.61124865265164" lon="11.353402811365665"><ele>622.3333333333333</ele><time>2026-04-04T16:04:11.999Z</time></trkpt><trkpt lat="43.61132258288184" lon="11.353353033176177"><ele>621.6666666666666</ele><time>2026-04-04T16:04:13.999Z</time></trkpt><trkpt lat="43.61138039228781" lon="11.35329869231044"><ele>621.0</ele><time>2026-04-04T16:04:15.999Z</time></trkpt><trkpt lat="43.611441612657565" lon="11.353200502738305"><ele>620.3333333333334</ele><time>2026-04-04T16:04:17.999Z</time></trkpt><trkpt lat="43.61151669708438" lon="11.353106913358705"><ele>619.6666666666667</ele><time>2026-04-04T16:04:19.999Z</time></trkpt><trkpt lat="43.611548029147684" lon="11.35302713227766"><ele>619.0</ele><time>2026-04-04T16:04:21.999Z</time></trkpt><trkpt lat="43.611591269387695" lon="11.352906819860895"><ele>619.0</ele><time>2026-04-04T16:04:24.999Z</time></trkpt><trkpt lat="43.611676497458376" lon="11.352836395669488"><ele>619.0</ele><time>2026-04-04T16:04:27.999Z</time></trkpt><trkpt lat="43.61174565335386" lon="11.35279830900793"><ele>619.0</ele><time>2026-04-04T16:04:29.999Z</time></trkpt><trkpt lat="43.61183557329711" lon="11.352811204251894"><ele>619.0</ele><time>2026-04-04T16:04:31.999Z</time></trkpt><trkpt lat="43.611913247784635" lon="11.352814066063177"><ele>619.0</ele><time>2026-04-04T16:04:33.999Z</time></trkpt><trkpt lat="43.6120004986228" lon="11.352792519280511"><ele>619.0</ele><time>2026-04-04T16:04:37Z</time></trkpt><trkpt lat="43.61207314448531" lon="11.352797292679094"><ele>618.2857142857142</ele><time>2026-04-04T16:04:40Z</time></trkpt><trkpt lat="43.61214245121028" lon="11.35279310596156"><ele>617.5714285714286</ele><time>2026-04-04T16:04:43Z</time></trkpt><trkpt lat="43.612223508026226" lon="11.352800561152947"><ele>616.8571428571429</ele><time>2026-04-04T16:04:45Z</time></trkpt><trkpt lat="43.612301242269" lon="11.352787138788198"><ele>616.1428571428571</ele><time>2026-04-04T16:04:47Z</time></trkpt><trkpt lat="43.61237891796794" lon="11.35279428842248"><ele>615.4285714285714</ele><time>2026-04-04T16:04:49Z</time></trkpt><trkpt lat="43.61244448481702" lon="11.352798027997414"><ele>614.7142857142857</ele><time>2026-04-04T16:04:54Z</time></trkpt><trkpt lat="43.612519632812756" lon="11.3528157405632"><ele>614.0</ele><time>2026-04-04T16:04:59Z</time></trkpt><trkpt lat="43.612620575288055" lon="11.352850245602331"><ele>614.0</ele><time>2026-04-04T16:05:02Z</time></trkpt><trkpt lat="43.61269074090099" lon="11.352852654145527"><ele>614.0</ele><time>2026-04-04T16:05:04Z</time></trkpt><trkpt lat="43.61276999254489" lon="11.352837275904706"><ele>614.0</ele><time>2026-04-04T16:05:09Z</time></trkpt><trkpt lat="43.61283471854394" lon="11.352841599916555"><ele>614.0</ele><time>2026-04-04T16:05:11Z</time></trkpt><trkpt lat="43.612916836554355" lon="11.35285489725407"><ele>614.0</ele><time>2026-04-04T16:05:13Z</time></trkpt><trkpt lat="43.61300372877534" lon="11.352842794093505"><ele>614.0</ele><time>2026-04-04T16:05:15Z</time></trkpt><trkpt lat="43.61310015221189" lon="11.35283609866023"><ele>614.4</ele><time>2026-04-04T16:05:17Z</time></trkpt><trkpt lat="43.61318428330246" lon="11.35286357245049"><ele>614.8</ele><time>2026-04-04T16:05:19Z</time></trkpt><trkpt lat="43.61327029198161" lon="11.35282492921664"><ele>615.2</ele><time>2026-04-04T16:05:21Z</time></trkpt><trkpt lat="43.613364213735295" lon="11.352776523896944"><ele>615.6</ele><time>2026-04-04T16:05:23Z</time></trkpt><trkpt lat="43.61346139481308" lon="11.35276607044572"><ele>616.0</ele><time>2026-04-04T16:05:25Z</time></trkpt><trkpt lat="43.613564769640604" lon="11.35276929429831"><ele>616.0</ele><time>2026-04-04T16:05:27Z</time></trkpt><trkpt lat="43.613641088055815" lon="11.35272595821574"><ele>616.0</ele><time>2026-04-04T16:05:29Z</time></trkpt><trkpt lat="43.61372439498998" lon="11.352655616557053"><ele>616.0</ele><time>2026-04-04T16:05:31Z</time></trkpt><trkpt lat="43.61380289959417" lon="11.352649594489636"><ele>616.0</ele><time>2026-04-04T16:05:33Z</time></trkpt><trkpt lat="43.61388946724059" lon="11.352678169085449"><ele>616.0</ele><time>2026-04-04T16:05:35Z</time></trkpt><trkpt lat="43.61398461869899" lon="11.352656176278929"><ele>616.0</ele><time>2026-04-04T16:05:37Z</time></trkpt><trkpt lat="43.61405679525832" lon="11.352585588228768"><ele>615.5714285714286</ele><time>2026-04-04T16:05:38.999Z</time></trkpt><trkpt lat="43.61409320467411" lon="11.352508489139955"><ele>615.1428571428571</ele><time>2026-04-04T16:05:39.999Z</time></trkpt><trkpt lat="43.61412782802244" lon="11.35243290673097"><ele>614.7142857142858</ele><time>2026-04-04T16:05:40.999Z</time></trkpt><trkpt lat="43.614136258100174" lon="11.352307672026967"><ele>614.2857142857142</ele><time>2026-04-04T16:05:42.999Z</time></trkpt><trkpt lat="43.614142486717256" lon="11.352190162247009"><ele>613.8571428571429</ele><time>2026-04-04T16:05:44.999Z</time></trkpt><trkpt lat="43.614122115028174" lon="11.352106974882913"><ele>613.4285714285714</ele><time>2026-04-04T16:08:06.999Z</time></trkpt><trkpt lat="43.61413169626274" lon="11.352007481459934"><ele>613.0</ele><time>2026-04-04T16:08:38.999Z</time></trkpt><trkpt lat="43.61413689929189" lon="11.351877206902083"><ele>613.0</ele><time>2026-04-04T16:08:41.999Z</time></trkpt><trkpt lat="43.614168735233946" lon="11.351774536955423"><ele>613.0</ele><time>2026-04-04T16:08:43.999Z</time></trkpt><trkpt lat="43.614201555593425" lon="11.351688002068935"><ele>613.0</ele><time>2026-04-04T16:08:45.999Z</time></trkpt><trkpt lat="43.61420425297619" lon="11.351594363137682"><ele>613.0</ele><time>2026-04-04T16:08:49Z</time></trkpt><trkpt lat="43.61422588600694" lon="11.351483620059636"><ele>613.0</ele><time>2026-04-04T16:08:53Z</time></trkpt><trkpt lat="43.614241042811756" lon="11.351387154641584"><ele>613.0</ele><time>2026-04-04T16:09:04Z</time></trkpt><trkpt lat="43.61429708516509" lon="11.351315911009559"><ele>614.8333333333334</ele><time>2026-04-04T16:09:17Z</time></trkpt><trkpt lat="43.61434004902938" lon="11.351212748774078"><ele>616.6666666666667</ele><time>2026-04-04T16:09:20Z</time></trkpt><trkpt lat="43.614380828948036" lon="11.35110924258406"><ele>618.5</ele><time>2026-04-04T16:09:22Z</time></trkpt><trkpt lat="43.61440752839102" lon="11.351008510128846"><ele>620.3333333333334</ele><time>2026-04-04T16:09:24Z</time></trkpt><trkpt lat="43.61445706015916" lon="11.35088482643871"><ele>622.1666666666666</ele><time>2026-04-04T16:09:26Z</time></trkpt><trkpt lat="43.61448444342562" lon="11.350775534564459"><ele>624.0</ele><time>2026-04-04T16:09:28Z</time></trkpt><trkpt lat="43.61450757087028" lon="11.35069125429052"><ele>621.0</ele><time>2026-04-04T16:09:36Z</time></trkpt><trkpt lat="43.61453032439632" lon="11.350607111924644"><ele>618.0</ele><time>2026-04-04T16:09:41Z</time></trkpt><trkpt lat="43.61456257897413" lon="11.350519276089829"><ele>615.0</ele><time>2026-04-04T16:09:43.999Z</time></trkpt><trkpt lat="43.614574732382934" lon="11.350399966986418"><ele>612.0</ele><time>2026-04-04T16:09:47.999Z</time></trkpt><trkpt lat="43.614588419206996" lon="11.350298972470627"><ele>609.0</ele><time>2026-04-04T16:09:51.999Z</time></trkpt><trkpt lat="43.614612929463334" lon="11.350196754129598"><ele>606.0</ele><time>2026-04-04T16:09:54.999Z</time></trkpt><trkpt lat="43.61464385028545" lon="11.350098733137685"><ele>606.0</ele><time>2026-04-04T16:09:57.999Z</time></trkpt><trkpt lat="43.61468919476252" lon="11.350010573760768"><ele>606.0</ele><time>2026-04-04T16:10:02.999Z</time></trkpt><trkpt lat="43.614748357575905" lon="11.349950207799427"><ele>606.0</ele><time>2026-04-04T16:10:06.999Z</time></trkpt><trkpt lat="43.61481683419213" lon="11.349903812954627"><ele>606.0</ele><time>2026-04-04T16:10:10.999Z</time></trkpt><trkpt lat="43.614876838413714" lon="11.349872265051975"><ele>606.0</ele><time>2026-04-04T16:10:13.999Z</time></trkpt><trkpt lat="43.61491496453191" lon="11.349769926052542"><ele>606.0</ele><time>2026-04-04T16:10:16.999Z</time></trkpt><trkpt lat="43.61493746888915" lon="11.349680483897208"><ele>606.0</ele><time>2026-04-04T16:10:19.999Z</time></trkpt><trkpt lat="43.61497879403058" lon="11.349576094952566"><ele>607.6666666666666</ele><time>2026-04-04T16:10:23.999Z</time></trkpt><trkpt lat="43.615009607402214" lon="11.349487892100408"><ele>609.3333333333334</ele><time>2026-04-04T16:10:26.999Z</time></trkpt><trkpt lat="43.61503907834706" lon="11.34940804950119"><ele>611.0</ele><time>2026-04-04T16:10:28.999Z</time></trkpt><trkpt lat="43.61509322078561" lon="11.349340844474"><ele>612.6666666666667</ele><time>2026-04-04T16:10:30.999Z</time></trkpt><trkpt lat="43.615148347077614" lon="11.349235292004481"><ele>614.3333333333334</ele><time>2026-04-04T16:10:32.999Z</time></trkpt><trkpt lat="43.615172464276" lon="11.349133384046223"><ele>616.0</ele><time>2026-04-04T16:10:34.999Z</time></trkpt><trkpt lat="43.61521956740219" lon="11.34904088392339"><ele>616.0</ele><time>2026-04-04T16:10:36.999Z</time></trkpt><trkpt lat="43.6152562972916" lon="11.34893943053413"><ele>616.0</ele><time>2026-04-04T16:10:38.999Z</time></trkpt><trkpt lat="43.615281032717746" lon="11.348828477614493"><ele>616.0</ele><time>2026-04-04T16:10:40.999Z</time></trkpt><trkpt lat="43.61530837990858" lon="11.348708309130625"><ele>616.0</ele><time>2026-04-04T16:10:42.999Z</time></trkpt><trkpt lat="43.615343767579134" lon="11.348617811488714"><ele>616.0</ele><time>2026-04-04T16:10:44.999Z</time></trkpt><trkpt lat="43.61539137089971" lon="11.348490550593766"><ele>616.0</ele><time>2026-04-04T16:10:47.999Z</time></trkpt><trkpt lat="43.615436982559146" lon="11.348408103754814"><ele>615.5</ele><time>2026-04-04T16:10:49.999Z</time></trkpt><trkpt lat="43.61550168019704" lon="11.348317824357236"><ele>615.0</ele><time>2026-04-04T16:10:52Z</time></trkpt><trkpt lat="43.615561853400095" lon="11.348238764845613"><ele>614.5</ele><time>2026-04-04T16:10:53Z</time></trkpt><trkpt lat="43.615601804694506" lon="11.348158918706341"><ele>614.0</ele><time>2026-04-04T16:10:54Z</time></trkpt><trkpt lat="43.615662758242266" lon="11.348080365755765"><ele>613.5</ele><time>2026-04-04T16:10:56Z</time></trkpt><trkpt lat="43.615740618107864" lon="11.347973592502756"><ele>613.0</ele><time>2026-04-04T16:10:58Z</time></trkpt><trkpt lat="43.6157968599432" lon="11.347898555260915"><ele>613.0</ele><time>2026-04-04T16:11:00Z</time></trkpt><trkpt lat="43.61584541383433" lon="11.347806223399624"><ele>613.0</ele><time>2026-04-04T16:11:02Z</time></trkpt><trkpt lat="43.61589505986774" lon="11.347730017112898"><ele>613.0</ele><time>2026-04-04T16:11:04Z</time></trkpt><trkpt lat="43.6159542202595" lon="11.347667488826447"><ele>613.0</ele><time>2026-04-04T16:11:07Z</time></trkpt><trkpt lat="43.616006849420636" lon="11.347571765449151"><ele>613.0</ele><time>2026-04-04T16:11:10Z</time></trkpt><trkpt lat="43.61606542023059" lon="11.347489959084092"><ele>613.0</ele><time>2026-04-04T16:11:12Z</time></trkpt><trkpt lat="43.616113867036134" lon="11.34741919172389"><ele>612.8333333333334</ele><time>2026-04-04T16:11:14Z</time></trkpt><trkpt lat="43.616164654775574" lon="11.347329712193487"><ele>612.6666666666667</ele><time>2026-04-04T16:11:17Z</time></trkpt><trkpt lat="43.61622403474889" lon="11.347241098474806"><ele>612.5</ele><time>2026-04-04T16:11:20Z</time></trkpt><trkpt lat="43.61624695570729" lon="11.34715487808"><ele>612.3333333333334</ele><time>2026-04-04T16:11:24Z</time></trkpt><trkpt lat="43.6162519924089" lon="11.347051138926513"><ele>612.1666666666666</ele><time>2026-04-04T16:11:36Z</time></trkpt><trkpt lat="43.61633733909135" lon="11.347000940254222"><ele>612.0</ele><time>2026-04-04T16:11:40Z</time></trkpt><trkpt lat="43.61635703571867" lon="11.346914701118878"><ele>612.0</ele><time>2026-04-04T16:11:42.999Z</time></trkpt><trkpt lat="43.61641429815771" lon="11.346849484714067"><ele>612.0</ele><time>2026-04-04T16:11:44.999Z</time></trkpt><trkpt lat="43.616482708228" lon="11.346807421281838"><ele>612.0</ele><time>2026-04-04T16:11:47.999Z</time></trkpt><trkpt lat="43.616511681332334" lon="11.34671096547599"><ele>612.0</ele><time>2026-04-04T16:11:49.999Z</time></trkpt><trkpt lat="43.61653413423653" lon="11.346605522668039"><ele>612.0</ele><time>2026-04-04T16:11:51.999Z</time></trkpt><trkpt lat="43.616568567719575" lon="11.346530592130584"><ele>612.0</ele><time>2026-04-04T16:11:53.999Z</time></trkpt><trkpt lat="43.61661771892716" lon="11.34645945407782"><ele>612.0</ele><time>2026-04-04T16:12:10.999Z</time></trkpt><trkpt lat="43.616681912357464" lon="11.346404772337351"><ele>611.8333333333334</ele><time>2026-04-04T16:12:13.999Z</time></trkpt><trkpt lat="43.61674101356442" lon="11.346319394474591"><ele>611.6666666666666</ele><time>2026-04-04T16:12:19.999Z</time></trkpt><trkpt lat="43.616798076822825" lon="11.346262027091027"><ele>611.5</ele><time>2026-04-04T16:12:22.999Z</time></trkpt><trkpt lat="43.616834750607644" lon="11.346189527861425"><ele>611.3333333333333</ele><time>2026-04-04T16:12:26.999Z</time></trkpt><trkpt lat="43.61690572191818" lon="11.3461349159897"><ele>611.1666666666666</ele><time>2026-04-04T16:13:09Z</time></trkpt><trkpt lat="43.61696982946037" lon="11.346047720821874"><ele>611.0</ele><time>2026-04-04T16:13:19Z</time></trkpt><trkpt lat="43.617025971594046" lon="11.346002064178178"><ele>611.0</ele><time>2026-04-04T16:13:21Z</time></trkpt><trkpt lat="43.61709706742504" lon="11.345925941719953"><ele>611.0</ele><time>2026-04-04T16:13:24Z</time></trkpt><trkpt lat="43.61714808529274" lon="11.34581574530422"><ele>611.0</ele><time>2026-04-04T16:13:27Z</time></trkpt><trkpt lat="43.617196438702344" lon="11.345727327494874"><ele>611.0</ele><time>2026-04-04T16:13:30Z</time></trkpt><trkpt lat="43.61720925744451" lon="11.345635831513281"><ele>611.0</ele><time>2026-04-04T16:13:33Z</time></trkpt><trkpt lat="43.61718767672207" lon="11.345514478199226"><ele>611.0</ele><time>2026-04-04T16:13:49.999Z</time></trkpt><trkpt lat="43.61712634845545" lon="11.345483279133795"><ele>613.0</ele><time>2026-04-04T16:13:51.999Z</time></trkpt><trkpt lat="43.61707356038941" lon="11.345413925846357"><ele>615.0</ele><time>2026-04-04T16:13:53.999Z</time></trkpt><trkpt lat="43.61706920886607" lon="11.345285942634682"><ele>617.0</ele><time>2026-04-04T16:13:55.999Z</time></trkpt><trkpt lat="43.617081415237074" lon="11.345150552466775"><ele>619.0</ele><time>2026-04-04T16:13:57.999Z</time></trkpt><trkpt lat="43.617076115065714" lon="11.345061092578915"><ele>621.0</ele><time>2026-04-04T16:13:58.999Z</time></trkpt><trkpt lat="43.61706040257918" lon="11.3449002617773"><ele>623.0</ele><time>2026-04-04T16:14:00.999Z</time></trkpt><trkpt lat="43.617052834527286" lon="11.344763580480867"><ele>625.3333333333333</ele><time>2026-04-04T16:14:02.999Z</time></trkpt><trkpt lat="43.61703301960188" lon="11.344633791538161"><ele>627.6666666666666</ele><time>2026-04-04T16:14:04.999Z</time></trkpt><trkpt lat="43.61699200332178" lon="11.344527249604836"><ele>630.0</ele><time>2026-04-04T16:14:06.999Z</time></trkpt><trkpt lat="43.61696980783727" lon="11.3444272288994"><ele>632.3333333333334</ele><time>2026-04-04T16:14:08.999Z</time></trkpt><trkpt lat="43.6169336855394" lon="11.344323737398316"><ele>634.6666666666667</ele><time>2026-04-04T16:14:10.999Z</time></trkpt><trkpt lat="43.61690619288994" lon="11.344240679329406"><ele>637.0</ele><time>2026-04-04T16:14:12.999Z</time></trkpt><trkpt lat="43.61689475857861" lon="11.34412797054609"><ele>637.6666666666667</ele><time>2026-04-04T16:14:14.999Z</time></trkpt><trkpt lat="43.61688168862904" lon="11.344042318648198"><ele>638.3333333333334</ele><time>2026-04-04T16:14:26.999Z</time></trkpt><trkpt lat="43.616867513658946" lon="11.343941671319694"><ele>639.0</ele><time>2026-04-04T16:14:34.999Z</time></trkpt><trkpt lat="43.616861124817866" lon="11.343833826752235"><ele>639.6666666666666</ele><time>2026-04-04T16:14:38.999Z</time></trkpt><trkpt lat="43.61683869758253" lon="11.34368453324846"><ele>640.3333333333333</ele><time>2026-04-04T16:14:41.999Z</time></trkpt><trkpt lat="43.61690816121427" lon="11.343585046553473"><ele>641.0</ele><time>2026-04-04T16:14:44.999Z</time></trkpt><trkpt lat="43.61698062955469" lon="11.343564894982332"><ele>641.4</ele><time>2026-04-04T16:14:45.999Z</time></trkpt><trkpt lat="43.617068919161376" lon="11.343571841296407"><ele>641.8</ele><time>2026-04-04T16:14:46.999Z</time></trkpt><trkpt lat="43.617155151085726" lon="11.343577432486555"><ele>642.1999999999999</ele><time>2026-04-04T16:14:47.999Z</time></trkpt><trkpt lat="43.61723692161397" lon="11.343518455224928"><ele>642.5999999999999</ele><time>2026-04-04T16:14:49.999Z</time></trkpt><trkpt lat="43.6173228801058" lon="11.34337944149798"><ele>643.0</ele><time>2026-04-04T16:14:51.999Z</time></trkpt><trkpt lat="43.617380647870576" lon="11.34334156559724"><ele>643.0</ele><time>2026-04-04T16:14:52.999Z</time></trkpt><trkpt lat="43.61751133331632" lon="11.343281417224619"><ele>643.0</ele><time>2026-04-04T16:14:54.999Z</time></trkpt><trkpt lat="43.61754824281308" lon="11.343209070849863"><ele>643.0</ele><time>2026-04-04T16:14:55.999Z</time></trkpt><trkpt lat="43.617605356955124" lon="11.343122166036432"><ele>643.0</ele><time>2026-04-04T16:14:56.999Z</time></trkpt><trkpt lat="43.61766888686704" lon="11.343071570959928"><ele>643.0</ele><time>2026-04-04T16:14:57.999Z</time></trkpt><trkpt lat="43.61778524581495" lon="11.343005007571412"><ele>642.0</ele><time>2026-04-04T16:14:59.999Z</time></trkpt><trkpt lat="43.617841082875366" lon="11.34295613187977"><ele>641.0</ele><time>2026-04-04T16:15:00.999Z</time></trkpt><trkpt lat="43.61794357062397" lon="11.34287394835978"><ele>640.0</ele><time>2026-04-04T16:15:03Z</time></trkpt><trkpt lat="43.61801177354829" lon="11.342765303689786"><ele>639.0</ele><time>2026-04-04T16:15:05Z</time></trkpt><trkpt lat="43.6180386995724" lon="11.342678335169449"><ele>638.0</ele><time>2026-04-04T16:15:06Z</time></trkpt><trkpt lat="43.61806826289749" lon="11.34257296774044"><ele>637.0</ele><time>2026-04-04T16:15:07Z</time></trkpt><trkpt lat="43.61811421098876" lon="11.342442397481747"><ele>637.0</ele><time>2026-04-04T16:15:09Z</time></trkpt><trkpt lat="43.61821060226435" lon="11.342333328557379"><ele>637.0</ele><time>2026-04-04T16:15:11Z</time></trkpt><trkpt lat="43.618283260172745" lon="11.342234304372734"><ele>637.0</ele><time>2026-04-04T16:15:13Z</time></trkpt><trkpt lat="43.61834703055653" lon="11.342114958669143"><ele>637.0</ele><time>2026-04-04T16:15:15Z</time></trkpt><trkpt lat="43.61840225603561" lon="11.341988232628507"><ele>637.0</ele><time>2026-04-04T16:15:17Z</time></trkpt><trkpt lat="43.61844995962931" lon="11.34191767493032"><ele>636.6</ele><time>2026-04-04T16:15:18Z</time></trkpt><trkpt lat="43.618466287237204" lon="11.341825998396924"><ele>636.2</ele><time>2026-04-04T16:15:19Z</time></trkpt><trkpt lat="43.61851742312466" lon="11.341662383020893"><ele>635.8</ele><time>2026-04-04T16:15:21Z</time></trkpt><trkpt lat="43.618535281990354" lon="11.341564525510575"><ele>635.4</ele><time>2026-04-04T16:15:22Z</time></trkpt><trkpt lat="43.61853106957375" lon="11.341430530352396"><ele>635.0</ele><time>2026-04-04T16:15:24Z</time></trkpt><trkpt lat="43.618530122596" lon="11.34129636500193"><ele>633.6</ele><time>2026-04-04T16:15:26Z</time></trkpt><trkpt lat="43.61856793729705" lon="11.341121238197388"><ele>632.2</ele><time>2026-04-04T16:15:28Z</time></trkpt><trkpt lat="43.618587999353636" lon="11.341027466882446"><ele>630.8</ele><time>2026-04-04T16:15:29Z</time></trkpt><trkpt lat="43.618594568609694" lon="11.340937542944465"><ele>629.4</ele><time>2026-04-04T16:15:30Z</time></trkpt><trkpt lat="43.61860616633914" lon="11.340850652308657"><ele>628.0</ele><time>2026-04-04T16:15:31Z</time></trkpt><trkpt lat="43.61860981093757" lon="11.340685789716844"><ele>628.0</ele><time>2026-04-04T16:15:33Z</time></trkpt><trkpt lat="43.61860628278503" lon="11.340591337023893"><ele>628.0</ele><time>2026-04-04T16:15:34Z</time></trkpt><trkpt lat="43.618615043127576" lon="11.340491968115124"><ele>628.0</ele><time>2026-04-04T16:15:35Z</time></trkpt><trkpt lat="43.61863837245642" lon="11.34040191024413"><ele>628.0</ele><time>2026-04-04T16:15:36Z</time></trkpt><trkpt lat="43.61866961272406" lon="11.34028805352476"><ele>628.0</ele><time>2026-04-04T16:15:37Z</time></trkpt><trkpt lat="43.6187184260133" lon="11.34014586022535"><ele>628.0</ele><time>2026-04-04T16:15:39Z</time></trkpt><trkpt lat="43.61875521843106" lon="11.340061615575898"><ele>630.0</ele><time>2026-04-04T16:15:40Z</time></trkpt><trkpt lat="43.61879546721695" lon="11.339972026460636"><ele>632.0</ele><time>2026-04-04T16:15:41Z</time></trkpt><trkpt lat="43.6188463153069" lon="11.339868564434795"><ele>634.0</ele><time>2026-04-04T16:15:42Z</time></trkpt><trkpt lat="43.61887698599576" lon="11.339753727181332"><ele>636.0</ele><time>2026-04-04T16:15:43Z</time></trkpt><trkpt lat="43.618934189562964" lon="11.339653459197311"><ele>638.0</ele><time>2026-04-04T16:15:45Z</time></trkpt><trkpt lat="43.618920781649436" lon="11.339547264232792"><ele>640.0</ele><time>2026-04-04T16:15:47Z</time></trkpt><trkpt lat="43.618905798872106" lon="11.339314668976877"><ele>640.0</ele><time>2026-04-04T16:15:48.999Z</time></trkpt><trkpt lat="43.6188472960956" lon="11.33917295060489"><ele>640.0</ele><time>2026-04-04T16:15:50.999Z</time></trkpt><trkpt lat="43.61880344821866" lon="11.339085154808089"><ele>640.0</ele><time>2026-04-04T16:15:51.999Z</time></trkpt><trkpt lat="43.618741865756704" lon="11.3389351656975"><ele>640.0</ele><time>2026-04-04T16:15:53.999Z</time></trkpt><trkpt lat="43.618736220511316" lon="11.338840933188543"><ele>640.0</ele><time>2026-04-04T16:15:54.999Z</time></trkpt><trkpt lat="43.61872580962878" lon="11.338744029135809"><ele>639.0</ele><time>2026-04-04T16:15:55.999Z</time></trkpt><trkpt lat="43.6187224618916" lon="11.338585550265197"><ele>638.0</ele><time>2026-04-04T16:15:57.999Z</time></trkpt><trkpt lat="43.61874677389544" lon="11.338501434729265"><ele>637.0</ele><time>2026-04-04T16:15:58.999Z</time></trkpt><trkpt lat="43.61880284327649" lon="11.33837343881723"><ele>636.0</ele><time>2026-04-04T16:16:00.999Z</time></trkpt><trkpt lat="43.618891158977945" lon="11.338260554835069"><ele>635.0</ele><time>2026-04-04T16:16:02.999Z</time></trkpt><trkpt lat="43.618944781241346" lon="11.338197875555466"><ele>635.0</ele><time>2026-04-04T16:16:03.999Z</time></trkpt><trkpt lat="43.61901530053036" lon="11.338061430706574"><ele>635.0</ele><time>2026-04-04T16:16:05.999Z</time></trkpt><trkpt lat="43.61910515958277" lon="11.337986668352048"><ele>635.0</ele><time>2026-04-04T16:16:07.999Z</time></trkpt><trkpt lat="43.619196250085395" lon="11.337923318702616"><ele>635.0</ele><time>2026-04-04T16:16:09.999Z</time></trkpt><trkpt lat="43.6192570069121" lon="11.33782836469715"><ele>635.0</ele><time>2026-04-04T16:16:11.999Z</time></trkpt><trkpt lat="43.61933049172007" lon="11.337782492983933"><ele>632.6</ele><time>2026-04-04T16:16:13.999Z</time></trkpt><trkpt lat="43.61940470578578" lon="11.337730198518681"><ele>630.2</ele><time>2026-04-04T16:16:15.999Z</time></trkpt><trkpt lat="43.61950635051222" lon="11.337705406121325"><ele>627.8</ele><time>2026-04-04T16:16:17.999Z</time></trkpt><trkpt lat="43.6195718002258" lon="11.33767678120999"><ele>625.4</ele><time>2026-04-04T16:16:18.999Z</time></trkpt><trkpt lat="43.6196745389454" lon="11.33764987749463"><ele>623.0</ele><time>2026-04-04T16:16:20.999Z</time></trkpt><trkpt lat="43.61981968805159" lon="11.337659142057769"><ele>623.0</ele><time>2026-04-04T16:16:22.999Z</time></trkpt><trkpt lat="43.61992505418224" lon="11.337640058574525"><ele>623.0</ele><time>2026-04-04T16:16:24.999Z</time></trkpt><trkpt lat="43.62002212808884" lon="11.33758703279906"><ele>623.0</ele><time>2026-04-04T16:16:26.999Z</time></trkpt><trkpt lat="43.620134510798934" lon="11.337549801769114"><ele>623.0</ele><time>2026-04-04T16:16:28.999Z</time></trkpt><trkpt lat="43.62025426596618" lon="11.33756881679732"><ele>623.0</ele><time>2026-04-04T16:16:30.999Z</time></trkpt><trkpt lat="43.62034110039436" lon="11.337580085903593"><ele>623.1999999999999</ele><time>2026-04-04T16:16:31.999Z</time></trkpt><trkpt lat="43.62047213997964" lon="11.337586466811558"><ele>623.4</ele><time>2026-04-04T16:16:33.999Z</time></trkpt><trkpt lat="43.62057459315181" lon="11.337595498080592"><ele>623.5999999999999</ele><time>2026-04-04T16:16:34.999Z</time></trkpt><trkpt lat="43.62065022776275" lon="11.337604754125723"><ele>623.8</ele><time>2026-04-04T16:16:35.999Z</time></trkpt><trkpt lat="43.620718046305996" lon="11.337636976899137"><ele>624.0</ele><time>2026-04-04T16:16:36.999Z</time></trkpt><trkpt lat="43.62078302022981" lon="11.337681173371589"><ele>624.0</ele><time>2026-04-04T16:16:37.999Z</time></trkpt><trkpt lat="43.62085697770292" lon="11.337755002833863"><ele>624.0</ele><time>2026-04-04T16:16:39.999Z</time></trkpt><trkpt lat="43.62096731321924" lon="11.337755981767513"><ele>624.0</ele><time>2026-04-04T16:16:42.999Z</time></trkpt><trkpt lat="43.621028444746976" lon="11.337787387372313"><ele>624.0</ele><time>2026-04-04T16:16:43.999Z</time></trkpt><trkpt lat="43.6211026845371" lon="11.337825282741724"><ele>624.0</ele><time>2026-04-04T16:16:45.999Z</time></trkpt><trkpt lat="43.621190618808264" lon="11.337749924775196"><ele>624.0</ele><time>2026-04-04T16:16:47.999Z</time></trkpt><trkpt lat="43.621265081535334" lon="11.337687696972095"><ele>625.4</ele><time>2026-04-04T16:16:49.999Z</time></trkpt><trkpt lat="43.62133361644193" lon="11.33764196407917"><ele>626.8</ele><time>2026-04-04T16:19:55.999Z</time></trkpt><trkpt lat="43.6213979996703" lon="11.33761513685222"><ele>628.2</ele><time>2026-04-04T16:19:56.999Z</time></trkpt><trkpt lat="43.62149599932618" lon="11.337542798212517"><ele>629.6</ele><time>2026-04-04T16:19:58.999Z</time></trkpt><trkpt lat="43.62156251357933" lon="11.337412614446926"><ele>631.0</ele><time>2026-04-04T16:20:00.999Z</time></trkpt><trkpt lat="43.62159597508012" lon="11.337282992257604"><ele>627.8</ele><time>2026-04-04T16:20:02.999Z</time></trkpt><trkpt lat="43.62161093819773" lon="11.337193160242073"><ele>624.6</ele><time>2026-04-04T16:20:03.999Z</time></trkpt><trkpt lat="43.62165811235975" lon="11.337064332363799"><ele>621.4</ele><time>2026-04-04T16:20:05.999Z</time></trkpt><trkpt lat="43.62174750278031" lon="11.337015798242133"><ele>618.2</ele><time>2026-04-04T16:20:07.999Z</time></trkpt><trkpt lat="43.62183661270654" lon="11.336953564768152"><ele>615.0</ele><time>2026-04-04T16:20:09.999Z</time></trkpt><trkpt lat="43.6219156357665" lon="11.336889839372388"><ele>615.0</ele><time>2026-04-04T16:20:11.999Z</time></trkpt><trkpt lat="43.62198039884635" lon="11.336875474639202"><ele>615.0</ele><time>2026-04-04T16:20:12.999Z</time></trkpt><trkpt lat="43.62206669666397" lon="11.336864114960308"><ele>615.0</ele><time>2026-04-04T16:20:14.999Z</time></trkpt><trkpt lat="43.62216467812065" lon="11.336883357789977"><ele>615.0</ele><time>2026-04-04T16:20:16.999Z</time></trkpt><trkpt lat="43.62227793173927" lon="11.336859847178296"><ele>615.0</ele><time>2026-04-04T16:20:18.999Z</time></trkpt><trkpt lat="43.62236983300774" lon="11.336845960126412"><ele>615.2</ele><time>2026-04-04T16:20:20.999Z</time></trkpt><trkpt lat="43.622468363936584" lon="11.336814229258607"><ele>615.4</ele><time>2026-04-04T16:20:22.999Z</time></trkpt><trkpt lat="43.622600014339696" lon="11.336873135583737"><ele>615.6</ele><time>2026-04-04T16:20:24.999Z</time></trkpt><trkpt lat="43.62269378376654" lon="11.336889477359591"><ele>615.8</ele><time>2026-04-04T16:20:25.999Z</time></trkpt><trkpt lat="43.622779392929914" lon="11.336893739573236"><ele>616.0</ele><time>2026-04-04T16:20:26.999Z</time></trkpt><trkpt lat="43.62288906137563" lon="11.336944945942333"><ele>614.6666666666667</ele><time>2026-04-04T16:20:28.999Z</time></trkpt><trkpt lat="43.62295523458248" lon="11.337005674528314"><ele>613.3333333333334</ele><time>2026-04-04T16:20:29.999Z</time></trkpt><trkpt lat="43.62303351127167" lon="11.337036208245692"><ele>612.0</ele><time>2026-04-04T16:20:30.999Z</time></trkpt><trkpt lat="43.6231008403821" lon="11.337053640101603"><ele>610.6666666666666</ele><time>2026-04-04T16:20:31.999Z</time></trkpt><trkpt lat="43.6232084999543" lon="11.337100981907197"><ele>609.3333333333333</ele><time>2026-04-04T16:20:33.999Z</time></trkpt><trkpt lat="43.62330696381081" lon="11.337157836806684"><ele>608.0</ele><time>2026-04-04T16:20:35.999Z</time></trkpt><trkpt lat="43.623364984422004" lon="11.337194647793517"><ele>608.0</ele><time>2026-04-04T16:20:36.999Z</time></trkpt><trkpt lat="43.623481170821286" lon="11.337148917855304"><ele>608.0</ele><time>2026-04-04T16:20:38.999Z</time></trkpt><trkpt lat="43.62355637916461" lon="11.337130607166502"><ele>608.0</ele><time>2026-04-04T16:20:39.999Z</time></trkpt><trkpt lat="43.62362551723517" lon="11.337140892232203"><ele>608.0</ele><time>2026-04-04T16:20:40.999Z</time></trkpt><trkpt lat="43.623673890030084" lon="11.337237459533942"><ele>608.0</ele><time>2026-04-04T16:20:43.999Z</time></trkpt><trkpt lat="43.6237254803288" lon="11.337375798117604"><ele>610.4</ele><time>2026-04-04T16:20:46.999Z</time></trkpt><trkpt lat="43.62378644190132" lon="11.337413412633403"><ele>612.8</ele><time>2026-04-04T16:20:47.999Z</time></trkpt><trkpt lat="43.62385649413923" lon="11.33750679902957"><ele>615.2</ele><time>2026-04-04T16:20:49.999Z</time></trkpt><trkpt lat="43.623912615544704" lon="11.337614812983844"><ele>617.6</ele><time>2026-04-04T16:20:51.999Z</time></trkpt><trkpt lat="43.624009297449504" lon="11.337722158770553"><ele>620.0</ele><time>2026-04-04T16:20:53.999Z</time></trkpt><trkpt lat="43.62411086457801" lon="11.337745588509351"><ele>620.0</ele><time>2026-04-04T16:20:55.999Z</time></trkpt><trkpt lat="43.624193327186276" lon="11.337761982069035"><ele>620.0</ele><time>2026-04-04T16:20:57.999Z</time></trkpt><trkpt lat="43.624266336717675" lon="11.337761499779917"><ele>620.0</ele><time>2026-04-04T16:20:59.999Z</time></trkpt><trkpt lat="43.62432639366127" lon="11.33771679764203"><ele>620.0</ele><time>2026-04-04T16:25:10.999Z</time></trkpt><trkpt lat="43.62436122522085" lon="11.337620032403313"><ele>620.0</ele><time>2026-04-04T16:25:12.999Z</time></trkpt><trkpt lat="43.62439943689282" lon="11.337515399577208"><ele>620.0</ele><time>2026-04-04T16:25:14.999Z</time></trkpt><trkpt lat="43.6244582541147" lon="11.33742723486882"><ele>619.5</ele><time>2026-04-04T16:25:16.999Z</time></trkpt><trkpt lat="43.6244972286949" lon="11.337332536195792"><ele>619.0</ele><time>2026-04-04T16:25:18.999Z</time></trkpt><trkpt lat="43.62453765586896" lon="11.337251371907797"><ele>618.5</ele><time>2026-04-04T16:25:20.999Z</time></trkpt><trkpt lat="43.62458589411523" lon="11.337186456086869"><ele>618.0</ele><time>2026-04-04T16:25:22.999Z</time></trkpt><trkpt lat="43.62463884103916" lon="11.33712879581972"><ele>617.5</ele><time>2026-04-04T16:25:24.998Z</time></trkpt><trkpt lat="43.6247202373313" lon="11.337111512523245"><ele>617.0</ele><time>2026-04-04T16:25:26.998Z</time></trkpt><trkpt lat="43.62482274081537" lon="11.337081417329046"><ele>613.8000000000001</ele><time>2026-04-04T16:25:28.998Z</time></trkpt><trkpt lat="43.62491461957254" lon="11.337017192283326"><ele>610.6</ele><time>2026-04-04T16:25:30.998Z</time></trkpt><trkpt lat="43.624972087483854" lon="11.336934667905755"><ele>607.4000000000001</ele><time>2026-04-04T16:25:31.998Z</time></trkpt><trkpt lat="43.62502142507398" lon="11.336819795707981"><ele>604.2</ele><time>2026-04-04T16:25:34Z</time></trkpt><trkpt lat="43.62507016207621" lon="11.336725419158862"><ele>601.0</ele><time>2026-04-04T16:25:36Z</time></trkpt><trkpt lat="43.62517745992626" lon="11.336671497420443"><ele>601.0</ele><time>2026-04-04T16:25:37.999Z</time></trkpt><trkpt lat="43.625242585299766" lon="11.336655683807814"><ele>601.0</ele><time>2026-04-04T16:25:39Z</time></trkpt><trkpt lat="43.625314501637106" lon="11.3366544792436"><ele>601.0</ele><time>2026-04-04T16:25:40Z</time></trkpt><trkpt lat="43.62543257955111" lon="11.336693648852128"><ele>601.0</ele><time>2026-04-04T16:25:42Z</time></trkpt><trkpt lat="43.62551813615398" lon="11.336656358391965"><ele>601.0</ele><time>2026-04-04T16:25:44Z</time></trkpt><trkpt lat="43.625575148435054" lon="11.336600193959107"><ele>601.0</ele><time>2026-04-04T16:25:45Z</time></trkpt><trkpt lat="43.62563626137836" lon="11.33655574931004"><ele>602.6</ele><time>2026-04-04T16:25:46Z</time></trkpt><trkpt lat="43.625702120243794" lon="11.336512598824601"><ele>604.2</ele><time>2026-04-04T16:25:47Z</time></trkpt><trkpt lat="43.625805904925656" lon="11.336411296881376"><ele>605.8</ele><time>2026-04-04T16:25:48.999Z</time></trkpt><trkpt lat="43.62591659155969" lon="11.33636922440512"><ele>607.4</ele><time>2026-04-04T16:25:50.999Z</time></trkpt><trkpt lat="43.626029385784705" lon="11.33633986950692"><ele>609.0</ele><time>2026-04-04T16:25:52.999Z</time></trkpt><trkpt lat="43.62612360581832" lon="11.33630148623183"><ele>608.0</ele><time>2026-04-04T16:25:54.999Z</time></trkpt><trkpt lat="43.626257940087534" lon="11.336239000997132"><ele>607.0</ele><time>2026-04-04T16:25:56.999Z</time></trkpt><trkpt lat="43.62632239771442" lon="11.336208371150907"><ele>606.0</ele><time>2026-04-04T16:25:57.999Z</time></trkpt><trkpt lat="43.62643571554853" lon="11.33615628562561"><ele>605.0</ele><time>2026-04-04T16:25:59.999Z</time></trkpt><trkpt lat="43.62652064636584" lon="11.33612160080343"><ele>604.0</ele><time>2026-04-04T16:26:00.999Z</time></trkpt><trkpt lat="43.62660387227196" lon="11.336066195677907"><ele>604.0</ele><time>2026-04-04T16:26:01.999Z</time></trkpt><trkpt lat="43.626681096505216" lon="11.336028565384868"><ele>604.0</ele><time>2026-04-04T16:26:02.999Z</time></trkpt><trkpt lat="43.626752060609036" lon="11.335982091223638"><ele>604.0</ele><time>2026-04-04T16:26:03.999Z</time></trkpt><trkpt lat="43.62683860582521" lon="11.335928484090804"><ele>604.0</ele><time>2026-04-04T16:26:04.999Z</time></trkpt><trkpt lat="43.62691988341128" lon="11.33589250381981"><ele>604.0</ele><time>2026-04-04T16:26:05.999Z</time></trkpt><trkpt lat="43.626985839747654" lon="11.335869494139457"><ele>604.0</ele><time>2026-04-04T16:26:06.999Z</time></trkpt><trkpt lat="43.627104717106896" lon="11.335927450771438"><ele>604.6666666666667</ele><time>2026-04-04T16:26:08.999Z</time></trkpt><trkpt lat="43.62721755109687" lon="11.335939616034143"><ele>605.3333333333334</ele><time>2026-04-04T16:26:10.999Z</time></trkpt><trkpt lat="43.62728054356544" lon="11.335922940352404"><ele>606.0</ele><time>2026-04-04T16:26:11.999Z</time></trkpt><trkpt lat="43.6273412607036" lon="11.335899957860889"><ele>606.6666666666666</ele><time>2026-04-04T16:26:12.999Z</time></trkpt><trkpt lat="43.62740096934877" lon="11.33586465939023"><ele>607.3333333333333</ele><time>2026-04-04T16:26:13.999Z</time></trkpt><trkpt lat="43.627513267749144" lon="11.335815697838777"><ele>608.0</ele><time>2026-04-04T16:26:15.999Z</time></trkpt><trkpt lat="43.62757945111434" lon="11.33578193385414"><ele>608.0</ele><time>2026-04-04T16:26:16.999Z</time></trkpt><trkpt lat="43.62762981268939" lon="11.335724662284123"><ele>608.0</ele><time>2026-04-04T16:26:20.999Z</time></trkpt><trkpt lat="43.62768075564511" lon="11.33564400244307"><ele>608.0</ele><time>2026-04-04T16:26:23.999Z</time></trkpt><trkpt lat="43.62773493391419" lon="11.335574604511182"><ele>608.0</ele><time>2026-04-04T16:26:25.999Z</time></trkpt><trkpt lat="43.62779875706137" lon="11.335480257247783"><ele>608.0</ele><time>2026-04-04T16:26:27.999Z</time></trkpt><trkpt lat="43.627867865461326" lon="11.335388014019559"><ele>608.0</ele><time>2026-04-04T16:26:29.999Z</time></trkpt><trkpt lat="43.627922612983056" lon="11.335317488957834"><ele>608.1999999999999</ele><time>2026-04-04T16:26:31.999Z</time></trkpt><trkpt lat="43.627980704430364" lon="11.335224577617039"><ele>608.4</ele><time>2026-04-04T16:26:33.999Z</time></trkpt><trkpt lat="43.62806877404055" lon="11.33512675430008"><ele>608.5999999999999</ele><time>2026-04-04T16:26:35.999Z</time></trkpt><trkpt lat="43.62813208031566" lon="11.335081601846296"><ele>608.8</ele><time>2026-04-04T16:26:36.999Z</time></trkpt><trkpt lat="43.62819221501434" lon="11.33504281327135"><ele>609.0</ele><time>2026-04-04T16:26:37.999Z</time></trkpt><trkpt lat="43.62829006837324" lon="11.334939186184243"><ele>609.0</ele><time>2026-04-04T16:26:39.999Z</time></trkpt><trkpt lat="43.62835628053417" lon="11.33487253558822"><ele>609.0</ele><time>2026-04-04T16:26:40.999Z</time></trkpt><trkpt lat="43.6284221038674" lon="11.334815313461666"><ele>609.0</ele><time>2026-04-04T16:26:41.999Z</time></trkpt><trkpt lat="43.628471789994975" lon="11.334750079351931"><ele>609.0</ele><time>2026-04-04T16:26:42.999Z</time></trkpt><trkpt lat="43.628529811556035" lon="11.334673930729238"><ele>609.0</ele><time>2026-04-04T16:26:43.999Z</time></trkpt><trkpt lat="43.62857731390421" lon="11.334606899739978"><ele>609.0</ele><time>2026-04-04T16:26:44.999Z</time></trkpt><trkpt lat="43.62867374372981" lon="11.334518961383557"><ele>608.0</ele><time>2026-04-04T16:26:46.999Z</time></trkpt><trkpt lat="43.628734094059226" lon="11.334472225001544"><ele>607.0</ele><time>2026-04-04T16:26:47.999Z</time></trkpt><trkpt lat="43.62880697066787" lon="11.334433828255683"><ele>606.0</ele><time>2026-04-04T16:26:48.999Z</time></trkpt><trkpt lat="43.62890894859789" lon="11.334364289250058"><ele>605.0</ele><time>2026-04-04T16:26:50.999Z</time></trkpt><trkpt lat="43.62899701547346" lon="11.33425307317933"><ele>604.0</ele><time>2026-04-04T16:26:52.999Z</time></trkpt><trkpt lat="43.629045594465396" lon="11.334175174615092"><ele>604.0</ele><time>2026-04-04T16:26:53.999Z</time></trkpt><trkpt lat="43.62910253253108" lon="11.334082139459627"><ele>604.0</ele><time>2026-04-04T16:26:54.999Z</time></trkpt><trkpt lat="43.6291520532404" lon="11.334011146015222"><ele>604.0</ele><time>2026-04-04T16:26:55.999Z</time></trkpt><trkpt lat="43.62920548949418" lon="11.333960565618089"><ele>604.0</ele><time>2026-04-04T16:26:56.999Z</time></trkpt><trkpt lat="43.62926745656238" lon="11.33389742845448"><ele>604.0</ele><time>2026-04-04T16:26:57.999Z</time></trkpt><trkpt lat="43.62933855311311" lon="11.333843745657404"><ele>604.0</ele><time>2026-04-04T16:26:58.999Z</time></trkpt><trkpt lat="43.629405569727965" lon="11.333803693409184"><ele>603.2</ele><time>2026-04-04T16:26:59.999Z</time></trkpt><trkpt lat="43.62947852661492" lon="11.333754135654313"><ele>602.4</ele><time>2026-04-04T16:27:00.999Z</time></trkpt><trkpt lat="43.62955110940524" lon="11.333723832524003"><ele>601.6</ele><time>2026-04-04T16:27:01.999Z</time></trkpt><trkpt lat="43.62963413496277" lon="11.333695523342678"><ele>600.8</ele><time>2026-04-04T16:27:02.999Z</time></trkpt><trkpt lat="43.62974045508295" lon="11.333577954864573"><ele>600.0</ele><time>2026-04-04T16:27:04.999Z</time></trkpt><trkpt lat="43.62979349678819" lon="11.333506242355345"><ele>600.0</ele><time>2026-04-04T16:27:05.999Z</time></trkpt><trkpt lat="43.62982910261683" lon="11.333429960134456"><ele>600.0</ele><time>2026-04-04T16:27:06.999Z</time></trkpt><trkpt lat="43.629857732282495" lon="11.333346328740753"><ele>600.0</ele><time>2026-04-04T16:27:07.999Z</time></trkpt><trkpt lat="43.62990314031698" lon="11.333239377470191"><ele>600.0</ele><time>2026-04-04T16:27:08.999Z</time></trkpt><trkpt lat="43.62994047892594" lon="11.333150981722103"><ele>600.0</ele><time>2026-04-04T16:27:09.999Z</time></trkpt><trkpt lat="43.6299689651671" lon="11.333066522934898"><ele>600.0</ele><time>2026-04-04T16:27:10.999Z</time></trkpt><trkpt lat="43.63004577047108" lon="11.332913480340101"><ele>600.1428571428571</ele><time>2026-04-04T16:27:12.999Z</time></trkpt><trkpt lat="43.630067125873076" lon="11.332826852452163"><ele>600.2857142857142</ele><time>2026-04-04T16:27:13.999Z</time></trkpt><trkpt lat="43.63006885192556" lon="11.332734983922192"><ele>600.4285714285713</ele><time>2026-04-04T16:27:14.999Z</time></trkpt><trkpt lat="43.63005875482854" lon="11.332646675591251"><ele>600.5714285714286</ele><time>2026-04-04T16:27:15.999Z</time></trkpt><trkpt lat="43.63005983874848" lon="11.332550617535611"><ele>600.7142857142858</ele><time>2026-04-04T16:27:16.999Z</time></trkpt><trkpt lat="43.63008658999889" lon="11.332447210111273"><ele>600.8571428571428</ele><time>2026-04-04T16:27:17.999Z</time></trkpt><trkpt lat="43.63011533230052" lon="11.33235652574297"><ele>601.0</ele><time>2026-04-04T16:27:18.999Z</time></trkpt><trkpt lat="43.630148018108976" lon="11.332212637666512"><ele>601.0</ele><time>2026-04-04T16:27:20.999Z</time></trkpt><trkpt lat="43.63014420481061" lon="11.33212552998411"><ele>601.0</ele><time>2026-04-04T16:27:21.999Z</time></trkpt><trkpt lat="43.630165512910374" lon="11.331935539743856"><ele>601.0</ele><time>2026-04-04T16:27:23.999Z</time></trkpt><trkpt lat="43.630196594369494" lon="11.331825302860256"><ele>601.0</ele><time>2026-04-04T16:27:24.999Z</time></trkpt><trkpt lat="43.63023097330543" lon="11.331701067990176"><ele>601.0</ele><time>2026-04-04T16:27:25.999Z</time></trkpt><trkpt lat="43.63026126229868" lon="11.331549004549663"><ele>597.8</ele><time>2026-04-04T16:27:27.998Z</time></trkpt><trkpt lat="43.630315164562546" lon="11.331406281132708"><ele>594.6</ele><time>2026-04-04T16:27:29.998Z</time></trkpt><trkpt lat="43.63031440713204" lon="11.331236246908386"><ele>591.4</ele><time>2026-04-04T16:27:31.998Z</time></trkpt><trkpt lat="43.630345146939135" lon="11.33112418752015"><ele>588.2</ele><time>2026-04-04T16:27:32.998Z</time></trkpt><trkpt lat="43.630380008935454" lon="11.331039853825926"><ele>585.0</ele><time>2026-04-04T16:27:33.998Z</time></trkpt><trkpt lat="43.63043224355382" lon="11.330880661495069"><ele>585.0</ele><time>2026-04-04T16:27:35.998Z</time></trkpt><trkpt lat="43.63046310480052" lon="11.330769444244279"><ele>585.0</ele><time>2026-04-04T16:27:36.998Z</time></trkpt><trkpt lat="43.63050211890597" lon="11.33065641893624"><ele>585.0</ele><time>2026-04-04T16:27:37.998Z</time></trkpt><trkpt lat="43.63056001886244" lon="11.330574629893137"><ele>585.0</ele><time>2026-04-04T16:27:38.999Z</time></trkpt><trkpt lat="43.63061463376902" lon="11.330504622371398"><ele>585.0</ele><time>2026-04-04T16:27:39.999Z</time></trkpt><trkpt lat="43.630666082510174" lon="11.33043992999351"><ele>585.0</ele><time>2026-04-04T16:27:40.999Z</time></trkpt><trkpt lat="43.63070785240258" lon="11.330292717000654"><ele>584.8</ele><time>2026-04-04T16:27:42.999Z</time></trkpt><trkpt lat="43.630701852907016" lon="11.330173157770362"><ele>584.6</ele><time>2026-04-04T16:27:44.999Z</time></trkpt><trkpt lat="43.6306363714939" lon="11.330073608173576"><ele>584.4</ele><time>2026-04-04T16:27:46.999Z</time></trkpt><trkpt lat="43.630556538493316" lon="11.329936690963983"><ele>584.2</ele><time>2026-04-04T16:27:48.999Z</time></trkpt><trkpt lat="43.63048837664256" lon="11.329838015265619"><ele>584.0</ele><time>2026-04-04T16:27:50.999Z</time></trkpt><trkpt lat="43.630409428658496" lon="11.329779038473271"><ele>584.0</ele><time>2026-04-04T16:27:52.999Z</time></trkpt><trkpt lat="43.630337728077365" lon="11.329756911449104"><ele>584.0</ele><time>2026-04-04T16:27:54.999Z</time></trkpt><trkpt lat="43.630270621535686" lon="11.329667341945036"><ele>584.0</ele><time>2026-04-04T16:27:56.999Z</time></trkpt><trkpt lat="43.63024620379421" lon="11.329572768877599"><ele>584.0</ele><time>2026-04-04T16:27:58.999Z</time></trkpt><trkpt lat="43.63020596467444" lon="11.329483680991695"><ele>584.0</ele><time>2026-04-04T16:28:00.999Z</time></trkpt><trkpt lat="43.63015588386032" lon="11.329406437376926"><ele>584.0</ele><time>2026-04-04T16:28:02.999Z</time></trkpt><trkpt lat="43.63010270510496" lon="11.329299956038932"><ele>582.6666666666666</ele><time>2026-04-04T16:28:05.999Z</time></trkpt><trkpt lat="43.63005425026869" lon="11.329219780642537"><ele>581.3333333333333</ele><time>2026-04-04T16:28:07.999Z</time></trkpt><trkpt lat="43.629990303792965" lon="11.329134019903515"><ele>580.0</ele><time>2026-04-04T16:28:10.999Z</time></trkpt><trkpt lat="43.62992469165622" lon="11.329065613067096"><ele>578.6666666666666</ele><time>2026-04-04T16:28:12.999Z</time></trkpt><trkpt lat="43.62987651482468" lon="11.329003647031332"><ele>577.3333333333334</ele><time>2026-04-04T16:28:14.999Z</time></trkpt><trkpt lat="43.6297937516895" lon="11.328958196125583"><ele>576.0</ele><time>2026-04-04T16:28:16.999Z</time></trkpt><trkpt lat="43.629749109443466" lon="11.328889325760018"><ele>573.8333333333334</ele><time>2026-04-04T16:28:18.999Z</time></trkpt><trkpt lat="43.629691833960564" lon="11.32884868263933"><ele>571.6666666666666</ele><time>2026-04-04T16:28:20.999Z</time></trkpt><trkpt lat="43.629628879276865" lon="11.328790477888731"><ele>569.5</ele><time>2026-04-04T16:28:22.999Z</time></trkpt><trkpt lat="43.62955304753045" lon="11.328761555781906"><ele>567.3333333333333</ele><time>2026-04-04T16:28:24.999Z</time></trkpt><trkpt lat="43.6294840224661" lon="11.328765770104312"><ele>565.1666666666666</ele><time>2026-04-04T16:28:26.999Z</time></trkpt><trkpt lat="43.62938304454099" lon="11.328776608560089"><ele>563.0</ele><time>2026-04-04T16:28:29.999Z</time></trkpt><trkpt lat="43.62929291743326" lon="11.328786811891142"><ele>560.5</ele><time>2026-04-04T16:28:31.999Z</time></trkpt><trkpt lat="43.62919581427411" lon="11.32878535744894"><ele>558.0</ele><time>2026-04-04T16:28:33.999Z</time></trkpt><trkpt lat="43.62907956799406" lon="11.3288013374477"><ele>555.5</ele><time>2026-04-04T16:28:35.999Z</time></trkpt><trkpt lat="43.628995449641394" lon="11.328813788091999"><ele>553.0</ele><time>2026-04-04T16:28:36.999Z</time></trkpt><trkpt lat="43.6289271526688" lon="11.328810752614906"><ele>550.5</ele><time>2026-04-04T16:28:37.999Z</time></trkpt><trkpt lat="43.62886357669749" lon="11.328781523626287"><ele>548.0</ele><time>2026-04-04T16:28:38.999Z</time></trkpt><trkpt lat="43.62880591502095" lon="11.32874586413117"><ele>548.0</ele><time>2026-04-04T16:28:39.999Z</time></trkpt><trkpt lat="43.62874500273476" lon="11.328716780465571"><ele>548.0</ele><time>2026-04-04T16:28:40.999Z</time></trkpt><trkpt lat="43.62866995334302" lon="11.32867244467034"><ele>548.0</ele><time>2026-04-04T16:28:41.999Z</time></trkpt><trkpt lat="43.628596505606986" lon="11.32863767610767"><ele>548.0</ele><time>2026-04-04T16:28:42.999Z</time></trkpt><trkpt lat="43.62849803951433" lon="11.328619162010314"><ele>548.0</ele><time>2026-04-04T16:28:44.999Z</time></trkpt><trkpt lat="43.62839015026133" lon="11.328602935772112"><ele>548.0</ele><time>2026-04-04T16:28:46.999Z</time></trkpt><trkpt lat="43.62828561219219" lon="11.328555095789406"><ele>547.0</ele><time>2026-04-04T16:28:48.999Z</time></trkpt><trkpt lat="43.628173981292825" lon="11.328570519372638"><ele>546.0</ele><time>2026-04-04T16:28:50.999Z</time></trkpt><trkpt lat="43.6281044987705" lon="11.328595941623089"><ele>545.0</ele><time>2026-04-04T16:28:51.999Z</time></trkpt><trkpt lat="43.62802908338838" lon="11.328655002459556"><ele>544.0</ele><time>2026-04-04T16:28:53.999Z</time></trkpt><trkpt lat="43.62794808181089" lon="11.328670949050286"><ele>543.0</ele><time>2026-04-04T16:28:55.999Z</time></trkpt><trkpt lat="43.627886632279825" lon="11.32869288354842"><ele>542.0</ele><time>2026-04-04T16:28:57.999Z</time></trkpt><trkpt lat="43.62783070823816" lon="11.328753711476132"><ele>540.1666666666666</ele><time>2026-04-04T16:29:00Z</time></trkpt><trkpt lat="43.6277701811795" lon="11.32882662984321"><ele>538.3333333333333</ele><time>2026-04-04T16:29:02Z</time></trkpt><trkpt lat="43.62770328516094" lon="11.328890711474772"><ele>536.5</ele><time>2026-04-04T16:29:04Z</time></trkpt><trkpt lat="43.627594987100814" lon="11.328865322736522"><ele>534.6666666666666</ele><time>2026-04-04T16:29:06Z</time></trkpt><trkpt lat="43.62752100045445" lon="11.328853008932715"><ele>532.8333333333334</ele><time>2026-04-04T16:29:08Z</time></trkpt><trkpt lat="43.627447975360845" lon="11.328821609455423"><ele>531.0</ele><time>2026-04-04T16:29:10Z</time></trkpt><trkpt lat="43.62738371665957" lon="11.328805267134216"><ele>531.0</ele><time>2026-04-04T16:29:12Z</time></trkpt><trkpt lat="43.62732111943014" lon="11.328788561198298"><ele>531.0</ele><time>2026-04-04T16:29:14Z</time></trkpt><trkpt lat="43.627254707673245" lon="11.328748191641356"><ele>531.0</ele><time>2026-04-04T16:29:16Z</time></trkpt><trkpt lat="43.627192878435466" lon="11.32871897720301"><ele>531.0</ele><time>2026-04-04T16:29:19Z</time></trkpt><trkpt lat="43.62713015260889" lon="11.328693744382921"><ele>531.0</ele><time>2026-04-04T16:29:22.999Z</time></trkpt><trkpt lat="43.62706920277831" lon="11.328658364846557"><ele>531.0</ele><time>2026-04-04T16:29:25.999Z</time></trkpt><trkpt lat="43.627032287014906" lon="11.328564708530955"><ele>531.0</ele><time>2026-04-04T16:29:29.999Z</time></trkpt><trkpt lat="43.62696716969203" lon="11.328478873991207"><ele>528.8333333333334</ele><time>2026-04-04T16:29:33.999Z</time></trkpt><trkpt lat="43.62689028125865" lon="11.328457720145755"><ele>526.6666666666666</ele><time>2026-04-04T16:29:36.999Z</time></trkpt><trkpt lat="43.62681207979704" lon="11.328435383869373"><ele>524.5</ele><time>2026-04-04T16:29:38.999Z</time></trkpt><trkpt lat="43.62675077321899" lon="11.328409714392004"><ele>522.3333333333333</ele><time>2026-04-04T16:29:40.999Z</time></trkpt><trkpt lat="43.62667048793911" lon="11.328384924464304"><ele>520.1666666666666</ele><time>2026-04-04T16:29:42.999Z</time></trkpt><trkpt lat="43.62657429815147" lon="11.328279817448978"><ele>518.0</ele><time>2026-04-04T16:29:45Z</time></trkpt><trkpt lat="43.626501047246556" lon="11.328252726498084"><ele>518.0</ele><time>2026-04-04T16:29:46Z</time></trkpt><trkpt lat="43.62640067882762" lon="11.328236152387618"><ele>518.0</ele><time>2026-04-04T16:29:48Z</time></trkpt><trkpt lat="43.62631485613267" lon="11.328241349097452"><ele>518.0</ele><time>2026-04-04T16:29:50Z</time></trkpt><trkpt lat="43.62623832032263" lon="11.328189623328136"><ele>518.0</ele><time>2026-04-04T16:29:52Z</time></trkpt><trkpt lat="43.6261634553526" lon="11.328167030990116"><ele>518.0</ele><time>2026-04-04T16:29:54Z</time></trkpt><trkpt lat="43.62609563260668" lon="11.328151676886044"><ele>518.0</ele><time>2026-04-04T16:29:56Z</time></trkpt><trkpt lat="43.626028041727174" lon="11.328123184942195"><ele>516.8</ele><time>2026-04-04T16:29:58Z</time></trkpt><trkpt lat="43.62594632238697" lon="11.328056565516887"><ele>515.5999999999999</ele><time>2026-04-04T16:30:00Z</time></trkpt><trkpt lat="43.625841825677206" lon="11.328039006851292"><ele>514.4000000000001</ele><time>2026-04-04T16:30:02Z</time></trkpt><trkpt lat="43.62575039875866" lon="11.328039593719671"><ele>513.2</ele><time>2026-04-04T16:30:04Z</time></trkpt><trkpt lat="43.625670140951016" lon="11.328070834471642"><ele>512.0</ele><time>2026-04-04T16:30:07Z</time></trkpt><trkpt lat="43.62559083729194" lon="11.328097636771329"><ele>511.99999999999994</ele><time>2026-04-04T16:30:10Z</time></trkpt><trkpt lat="43.62550011072817" lon="11.328096722751654"><ele>512.0</ele><time>2026-04-04T16:30:13Z</time></trkpt><trkpt lat="43.62541950548173" lon="11.32805305863065"><ele>512.0</ele><time>2026-04-04T16:30:16Z</time></trkpt><trkpt lat="43.625334887313684" lon="11.3280001174979"><ele>512.0</ele><time>2026-04-04T16:30:19Z</time></trkpt><trkpt lat="43.62525260578506" lon="11.327973555977133"><ele>511.99999999999994</ele><time>2026-04-04T16:30:21Z</time></trkpt><trkpt lat="43.62519818019588" lon="11.32790635780045"><ele>512.0</ele><time>2026-04-04T16:30:23Z</time></trkpt><trkpt lat="43.62518917968663" lon="11.327798723567131"><ele>507.66666666666663</ele><time>2026-04-04T16:30:25Z</time></trkpt><trkpt lat="43.62525986669466" lon="11.327755700652812"><ele>503.3333333333333</ele><time>2026-04-04T16:30:27Z</time></trkpt><trkpt lat="43.625326180500565" lon="11.327762085549304"><ele>499.0</ele><time>2026-04-04T16:30:28Z</time></trkpt><trkpt lat="43.62541418564799" lon="11.327757368609214"><ele>494.66666666666663</ele><time>2026-04-04T16:30:29Z</time></trkpt><trkpt lat="43.62548221744357" lon="11.327735292381877"><ele>490.3333333333333</ele><time>2026-04-04T16:30:30Z</time></trkpt><trkpt lat="43.625555437445136" lon="11.327692971143808"><ele>486.0</ele><time>2026-04-04T16:30:31Z</time></trkpt><trkpt lat="43.625635069256305" lon="11.327654272093541"><ele>486.0</ele><time>2026-04-04T16:30:32Z</time></trkpt><trkpt lat="43.625709659891214" lon="11.32763044722817"><ele>486.0</ele><time>2026-04-04T16:30:33Z</time></trkpt><trkpt lat="43.62577584143967" lon="11.327616791972522"><ele>486.0</ele><time>2026-04-04T16:30:34Z</time></trkpt><trkpt lat="43.62584648470333" lon="11.327592945602202"><ele>486.0</ele><time>2026-04-04T16:30:35Z</time></trkpt><trkpt lat="43.625974430269835" lon="11.327562907463793"><ele>486.0</ele><time>2026-04-04T16:30:37Z</time></trkpt><trkpt lat="43.6260441785187" lon="11.327553967370246"><ele>486.0</ele><time>2026-04-04T16:30:38Z</time></trkpt><trkpt lat="43.62612263496309" lon="11.32755256514733"><ele>487.4</ele><time>2026-04-04T16:30:39Z</time></trkpt><trkpt lat="43.62619199230682" lon="11.327561512807902"><ele>488.8</ele><time>2026-04-04T16:30:40Z</time></trkpt><trkpt lat="43.62631061842564" lon="11.327546934571451"><ele>490.19999999999993</ele><time>2026-04-04T16:30:42Z</time></trkpt><trkpt lat="43.62643011768457" lon="11.327546723599246"><ele>491.59999999999997</ele><time>2026-04-04T16:30:44Z</time></trkpt><trkpt lat="43.62654343195813" lon="11.32753500620347"><ele>493.0</ele><time>2026-04-04T16:30:46Z</time></trkpt><trkpt lat="43.62660818463089" lon="11.3274898713719"><ele>493.00000000000006</ele><time>2026-04-04T16:30:47Z</time></trkpt><trkpt lat="43.62668709927354" lon="11.327455532262972"><ele>493.0</ele><time>2026-04-04T16:30:48Z</time></trkpt><trkpt lat="43.62676535260548" lon="11.327453011447652"><ele>493.0</ele><time>2026-04-04T16:30:49Z</time></trkpt><trkpt lat="43.62685174059762" lon="11.327460434093759"><ele>493.0</ele><time>2026-04-04T16:30:50Z</time></trkpt><trkpt lat="43.6269375485025" lon="11.327454987987881"><ele>493.00000000000006</ele><time>2026-04-04T16:30:51Z</time></trkpt><trkpt lat="43.6270001207637" lon="11.327415294571177"><ele>493.0</ele><time>2026-04-04T16:30:52Z</time></trkpt><trkpt lat="43.62705053515151" lon="11.327356048854465"><ele>491.33333333333337</ele><time>2026-04-04T16:30:53Z</time></trkpt><trkpt lat="43.6271332579551" lon="11.327206505171"><ele>489.6666666666667</ele><time>2026-04-04T16:30:55Z</time></trkpt><trkpt lat="43.62718657633261" lon="11.32714756834315"><ele>488.0</ele><time>2026-04-04T16:30:56Z</time></trkpt><trkpt lat="43.62723955351317" lon="11.327099525129302"><ele>486.33333333333337</ele><time>2026-04-04T16:30:57Z</time></trkpt><trkpt lat="43.62729813217109" lon="11.327057059824888"><ele>484.6666666666667</ele><time>2026-04-04T16:30:58Z</time></trkpt><trkpt lat="43.62736068310427" lon="11.327021856325683"><ele>483.0</ele><time>2026-04-04T16:30:59Z</time></trkpt><trkpt lat="43.62742707957234" lon="11.32699283547334"><ele>483.0</ele><time>2026-04-04T16:31:00Z</time></trkpt><trkpt lat="43.62750044622717" lon="11.326941592652059"><ele>483.0</ele><time>2026-04-04T16:31:01Z</time></trkpt><trkpt lat="43.62756175178527" lon="11.326882375466738"><ele>483.0</ele><time>2026-04-04T16:31:02Z</time></trkpt><trkpt lat="43.62762794617075" lon="11.326845027137878"><ele>483.0</ele><time>2026-04-04T16:31:03Z</time></trkpt><trkpt lat="43.62769178601857" lon="11.326812160838575"><ele>483.0</ele><time>2026-04-04T16:31:04Z</time></trkpt><trkpt lat="43.62775419101524" lon="11.326784903071118"><ele>483.0</ele><time>2026-04-04T16:31:05Z</time></trkpt><trkpt lat="43.62780816082561" lon="11.326734657591082"><ele>483.0</ele><time>2026-04-04T16:31:06Z</time></trkpt><trkpt lat="43.62788492663037" lon="11.326683639925207"><ele>484.4</ele><time>2026-04-04T16:31:07Z</time></trkpt><trkpt lat="43.627959643279645" lon="11.326655703508688"><ele>485.79999999999995</ele><time>2026-04-04T16:31:08Z</time></trkpt><trkpt lat="43.62804094279709" lon="11.326633972345675"><ele>487.2</ele><time>2026-04-04T16:31:09Z</time></trkpt><trkpt lat="43.62811852568314" lon="11.326623796697117"><ele>488.6</ele><time>2026-04-04T16:31:10Z</time></trkpt><trkpt lat="43.6282662937637" lon="11.326618161203914"><ele>490.0</ele><time>2026-04-04T16:31:12Z</time></trkpt><trkpt lat="43.628349953066646" lon="11.326622619420927"><ele>490.00000000000006</ele><time>2026-04-04T16:31:13Z</time></trkpt><trkpt lat="43.62842233950216" lon="11.3266316095176"><ele>490.0</ele><time>2026-04-04T16:31:14Z</time></trkpt><trkpt lat="43.62851087447671" lon="11.32654296320465"><ele>490.0</ele><time>2026-04-04T16:31:16Z</time></trkpt><trkpt lat="43.628539765016875" lon="11.326432011733408"><ele>490.0</ele><time>2026-04-04T16:31:17Z</time></trkpt><trkpt lat="43.62859383443399" lon="11.326317948595955"><ele>490.00000000000006</ele><time>2026-04-04T16:31:18Z</time></trkpt><trkpt lat="43.62864353240511" lon="11.326249244952612"><ele>490.0</ele><time>2026-04-04T16:31:19Z</time></trkpt><trkpt lat="43.628693134001516" lon="11.3261473324112"><ele>489.50000000000006</ele><time>2026-04-04T16:31:21Z</time></trkpt><trkpt lat="43.628689250741324" lon="11.326060053740267"><ele>489.0</ele><time>2026-04-04T16:31:22Z</time></trkpt><trkpt lat="43.62871347168139" lon="11.325947447593153"><ele>488.5</ele><time>2026-04-04T16:31:23.999Z</time></trkpt><trkpt lat="43.628785076354156" lon="11.325873992042233"><ele>488.0</ele><time>2026-04-04T16:31:25.999Z</time></trkpt><trkpt lat="43.628854081131514" lon="11.325754734226985"><ele>487.50000000000006</ele><time>2026-04-04T16:31:27.999Z</time></trkpt><trkpt lat="43.62890470001716" lon="11.325634096368713"><ele>487.0</ele><time>2026-04-04T16:31:29.999Z</time></trkpt><trkpt lat="43.62895312988393" lon="11.32550443944155"><ele>484.00000000000006</ele><time>2026-04-04T16:31:31.999Z</time></trkpt><trkpt lat="43.629027837205754" lon="11.325392795933208"><ele>481.0</ele><time>2026-04-04T16:31:33.999Z</time></trkpt><trkpt lat="43.62907916899218" lon="11.325340636898888"><ele>478.0</ele><time>2026-04-04T16:31:34.999Z</time></trkpt><trkpt lat="43.629105892076076" lon="11.32519956453571"><ele>475.0</ele><time>2026-04-04T16:31:36.999Z</time></trkpt><trkpt lat="43.629083870571655" lon="11.325077141559701"><ele>472.00000000000006</ele><time>2026-04-04T16:31:38.999Z</time></trkpt><trkpt lat="43.62908996282043" lon="11.324974490495997"><ele>469.0</ele><time>2026-04-04T16:31:40.999Z</time></trkpt><trkpt lat="43.629088551249154" lon="11.324862080495633"><ele>469.00000000000006</ele><time>2026-04-04T16:31:42.999Z</time></trkpt><trkpt lat="43.62911181775509" lon="11.32473714321009"><ele>469.0</ele><time>2026-04-04T16:31:44.999Z</time></trkpt><trkpt lat="43.62913028590278" lon="11.324608698711291"><ele>469.0</ele><time>2026-04-04T16:31:46.999Z</time></trkpt><trkpt lat="43.629169241882984" lon="11.324501459484999"><ele>469.0</ele><time>2026-04-04T16:31:48.999Z</time></trkpt><trkpt lat="43.62916879207211" lon="11.324414317207628"><ele>469.00000000000006</ele><time>2026-04-04T16:31:50Z</time></trkpt><trkpt lat="43.62917069943145" lon="11.324278262132387"><ele>469.0</ele><time>2026-04-04T16:31:52Z</time></trkpt><trkpt lat="43.629168841651925" lon="11.32414893863499"><ele>465.4</ele><time>2026-04-04T16:31:54Z</time></trkpt><trkpt lat="43.62924564174799" lon="11.324068634696289"><ele>461.79999999999995</ele><time>2026-04-04T16:31:57Z</time></trkpt><trkpt lat="43.629289465006366" lon="11.323946919186195"><ele>458.20000000000005</ele><time>2026-04-04T16:31:59Z</time></trkpt><trkpt lat="43.629264453256425" lon="11.323792678353117"><ele>454.6</ele><time>2026-04-04T16:32:01Z</time></trkpt><trkpt lat="43.62927349492408" lon="11.323684374059237"><ele>451.0</ele><time>2026-04-04T16:32:02Z</time></trkpt><trkpt lat="43.62928620344495" lon="11.323523693708426"><ele>448.6666666666667</ele><time>2026-04-04T16:32:03Z</time></trkpt><trkpt lat="43.6293051584789" lon="11.323382543548725"><ele>446.33333333333337</ele><time>2026-04-04T16:32:04Z</time></trkpt><trkpt lat="43.62931473576732" lon="11.323291511758407"><ele>444.0</ele><time>2026-04-04T16:32:05Z</time></trkpt><trkpt lat="43.629311904561995" lon="11.323194034522617"><ele>441.66666666666663</ele><time>2026-04-04T16:32:06Z</time></trkpt><trkpt lat="43.62932446567155" lon="11.323100172431941"><ele>439.3333333333333</ele><time>2026-04-04T16:32:07Z</time></trkpt><trkpt lat="43.62933094513746" lon="11.323003951650227"><ele>437.0</ele><time>2026-04-04T16:32:08Z</time></trkpt><trkpt lat="43.62934725661032" lon="11.322851321327406"><ele>434.40000000000003</ele><time>2026-04-04T16:32:10Z</time></trkpt><trkpt lat="43.62936180347942" lon="11.322700629853957"><ele>431.80000000000007</ele><time>2026-04-04T16:32:12Z</time></trkpt><trkpt lat="43.629378971372304" lon="11.322538737330442"><ele>429.2</ele><time>2026-04-04T16:32:14Z</time></trkpt><trkpt lat="43.629376460455" lon="11.322377783941068"><ele>426.6</ele><time>2026-04-04T16:32:16Z</time></trkpt><trkpt lat="43.629351849274926" lon="11.322281574035763"><ele>424.0</ele><time>2026-04-04T16:32:18Z</time></trkpt><trkpt lat="43.62942792033806" lon="11.322220042918747"><ele>423.6666666666667</ele><time>2026-04-04T16:32:20Z</time></trkpt><trkpt lat="43.62949441463853" lon="11.322170632894773"><ele>423.33333333333337</ele><time>2026-04-04T16:32:21Z</time></trkpt><trkpt lat="43.62956096302739" lon="11.32211501454866"><ele>423.0</ele><time>2026-04-04T16:32:22Z</time></trkpt><trkpt lat="43.62963120962947" lon="11.322041101440321"><ele>422.66666666666663</ele><time>2026-04-04T16:32:23Z</time></trkpt><trkpt lat="43.6297042519494" lon="11.3219560161859"><ele>422.3333333333333</ele><time>2026-04-04T16:32:24Z</time></trkpt><trkpt lat="43.62976945314805" lon="11.321882961008368"><ele>422.0</ele><time>2026-04-04T16:32:25Z</time></trkpt><trkpt lat="43.62982021825731" lon="11.321820581975397"><ele>421.99999999999994</ele><time>2026-04-04T16:32:26Z</time></trkpt><trkpt lat="43.62987718324575" lon="11.321674582913177"><ele>422.0</ele><time>2026-04-04T16:32:28Z</time></trkpt><trkpt lat="43.6299051419787" lon="11.321573378201533"><ele>422.0</ele><time>2026-04-04T16:32:29Z</time></trkpt><trkpt lat="43.62994554368357" lon="11.321491377989975"><ele>422.0</ele><time>2026-04-04T16:32:30Z</time></trkpt><trkpt lat="43.630010830720884" lon="11.321419313394397"><ele>421.99999999999994</ele><time>2026-04-04T16:32:31Z</time></trkpt><trkpt lat="43.630095318982946" lon="11.32137204073511"><ele>422.0</ele><time>2026-04-04T16:32:32Z</time></trkpt><trkpt lat="43.63019905449482" lon="11.321336526465066"><ele>420.49999999999994</ele><time>2026-04-04T16:32:33Z</time></trkpt><trkpt lat="43.630264778664944" lon="11.321279800328997"><ele>419.0</ele><time>2026-04-04T16:32:34Z</time></trkpt><trkpt lat="43.6303661446391" lon="11.32119717870155"><ele>417.5</ele><time>2026-04-04T16:32:36Z</time></trkpt><trkpt lat="43.63042421290366" lon="11.321154315510375"><ele>416.0</ele><time>2026-04-04T16:32:37Z</time></trkpt><trkpt lat="43.63049350083761" lon="11.321109906653943"><ele>414.49999999999994</ele><time>2026-04-04T16:32:38Z</time></trkpt><trkpt lat="43.63056826902631" lon="11.321086380682383"><ele>413.0</ele><time>2026-04-04T16:32:39Z</time></trkpt><trkpt lat="43.6306472037853" lon="11.321059138808806"><ele>412.99999999999994</ele><time>2026-04-04T16:32:40Z</time></trkpt><trkpt lat="43.63072682974695" lon="11.321021190318593"><ele>413.0</ele><time>2026-04-04T16:32:41Z</time></trkpt><trkpt lat="43.63081565904625" lon="11.321011156093782"><ele>413.0</ele><time>2026-04-04T16:32:42Z</time></trkpt><trkpt lat="43.63090297335957" lon="11.320996811871122"><ele>413.0</ele><time>2026-04-04T16:32:43Z</time></trkpt><trkpt lat="43.63098181545582" lon="11.320975468848836"><ele>412.99999999999994</ele><time>2026-04-04T16:32:44Z</time></trkpt><trkpt lat="43.63104941374281" lon="11.320913255420264"><ele>413.0</ele><time>2026-04-04T16:32:45Z</time></trkpt><trkpt lat="43.63112295915871" lon="11.320901987095143"><ele>413.2</ele><time>2026-04-04T16:32:46Z</time></trkpt><trkpt lat="43.631171410903995" lon="11.320844146317459"><ele>413.4</ele><time>2026-04-04T16:32:47Z</time></trkpt><trkpt lat="43.63125161736913" lon="11.32074814886594"><ele>413.59999999999997</ele><time>2026-04-04T16:32:49Z</time></trkpt><trkpt lat="43.63132810357088" lon="11.32059554243735"><ele>413.79999999999995</ele><time>2026-04-04T16:32:51Z</time></trkpt><trkpt lat="43.631396694657205" lon="11.320472817423465"><ele>414.0</ele><time>2026-04-04T16:32:53Z</time></trkpt><trkpt lat="43.63141163778376" lon="11.320360359478478"><ele>412.0</ele><time>2026-04-04T16:32:54Z</time></trkpt><trkpt lat="43.63142649149645" lon="11.320249089171885"><ele>410.0</ele><time>2026-04-04T16:32:55Z</time></trkpt><trkpt lat="43.6314377842034" lon="11.320137323413269"><ele>408.0</ele><time>2026-04-04T16:32:56Z</time></trkpt><trkpt lat="43.63144429699615" lon="11.320030576705134"><ele>406.0</ele><time>2026-04-04T16:32:57Z</time></trkpt><trkpt lat="43.63144183309481" lon="11.319928053351381"><ele>404.0</ele><time>2026-04-04T16:32:58Z</time></trkpt><trkpt lat="43.631413593382746" lon="11.319835456899916"><ele>402.0</ele><time>2026-04-04T16:32:59Z</time></trkpt><trkpt lat="43.631345491071656" lon="11.319692451445729"><ele>400.0</ele><time>2026-04-04T16:33:01Z</time></trkpt><trkpt lat="43.63133217748938" lon="11.31953162820311"><ele>398.0</ele><time>2026-04-04T16:33:03Z</time></trkpt><trkpt lat="43.631333583227864" lon="11.319433290564165"><ele>396.0</ele><time>2026-04-04T16:33:04Z</time></trkpt><trkpt lat="43.63132775587419" lon="11.3193184343206"><ele>394.0</ele><time>2026-04-04T16:33:05Z</time></trkpt><trkpt lat="43.631349681109775" lon="11.319176920918506"><ele>392.0</ele><time>2026-04-04T16:33:07Z</time></trkpt><trkpt lat="43.63139953066786" lon="11.319062932525384"><ele>392.0</ele><time>2026-04-04T16:33:09Z</time></trkpt><trkpt lat="43.63147266669347" lon="11.319060321073989"><ele>392.0</ele><time>2026-04-04T16:33:10Z</time></trkpt><trkpt lat="43.63154170769073" lon="11.319036058420673"><ele>392.0</ele><time>2026-04-04T16:33:11Z</time></trkpt><trkpt lat="43.63160692637837" lon="11.319008826307451"><ele>392.0</ele><time>2026-04-04T16:33:12Z</time></trkpt><trkpt lat="43.63170539424306" lon="11.318933641147195"><ele>392.0</ele><time>2026-04-04T16:33:14Z</time></trkpt><trkpt lat="43.63172203351285" lon="11.318733076883145"><ele>390.3333333333333</ele><time>2026-04-04T16:33:16Z</time></trkpt><trkpt lat="43.63174417126912" lon="11.318629084265401"><ele>388.66666666666663</ele><time>2026-04-04T16:33:17Z</time></trkpt><trkpt lat="43.631651068602885" lon="11.318562984079245"><ele>387.0</ele><time>2026-04-04T16:33:18Z</time></trkpt><trkpt lat="43.6316343860783" lon="11.318461525731559"><ele>385.3333333333333</ele><time>2026-04-04T16:33:19Z</time></trkpt><trkpt lat="43.631620350756016" lon="11.318373051185365"><ele>383.66666666666663</ele><time>2026-04-04T16:33:20Z</time></trkpt><trkpt lat="43.63160417952697" lon="11.318271112213544"><ele>382.0</ele><time>2026-04-04T16:33:21Z</time></trkpt><trkpt lat="43.631580434748194" lon="11.318117263994742"><ele>380.6</ele><time>2026-04-04T16:33:23Z</time></trkpt><trkpt lat="43.63156554832418" lon="11.31801940757781"><ele>379.20000000000005</ele><time>2026-04-04T16:33:24Z</time></trkpt><trkpt lat="43.63154342933662" lon="11.317876821030822"><ele>377.8</ele><time>2026-04-04T16:33:26Z</time></trkpt><trkpt lat="43.6315258373955" lon="11.317765426701088"><ele>376.4</ele><time>2026-04-04T16:33:27Z</time></trkpt><trkpt lat="43.631499464297576" lon="11.317598428966907"><ele>375.0</ele><time>2026-04-04T16:33:29Z</time></trkpt><trkpt lat="43.631483221145665" lon="11.317495575225996"><ele>375.0</ele><time>2026-04-04T16:33:30Z</time></trkpt><trkpt lat="43.63146461734559" lon="11.317377773623692"><ele>375.0</ele><time>2026-04-04T16:33:31Z</time></trkpt><trkpt lat="43.63143576064426" lon="11.31719504941628"><ele>375.0</ele><time>2026-04-04T16:33:33Z</time></trkpt><trkpt lat="43.63141702365529" lon="11.317076301333621"><ele>375.0</ele><time>2026-04-04T16:33:34Z</time></trkpt><trkpt lat="43.631464954794716" lon="11.316958895545937"><ele>375.0</ele><time>2026-04-04T16:33:34.999Z</time></trkpt><trkpt lat="43.631443712471075" lon="11.316830779823166"><ele>373.4</ele><time>2026-04-04T16:33:35.999Z</time></trkpt><trkpt lat="43.63143712344383" lon="11.316694148671347"><ele>371.8</ele><time>2026-04-04T16:33:36.999Z</time></trkpt><trkpt lat="43.63142065455299" lon="11.316580114920706"><ele>370.20000000000005</ele><time>2026-04-04T16:33:37.999Z</time></trkpt><trkpt lat="43.6313860246934" lon="11.31646576534909"><ele>368.6</ele><time>2026-04-04T16:33:38.999Z</time></trkpt><trkpt lat="43.631347175292504" lon="11.316344763070271"><ele>367.0</ele><time>2026-04-04T16:33:39.999Z</time></trkpt><trkpt lat="43.63128253064907" lon="11.31619040085947"><ele>366.6</ele><time>2026-04-04T16:33:41.999Z</time></trkpt><trkpt lat="43.63122452103401" lon="11.316125995984319"><ele>366.20000000000005</ele><time>2026-04-04T16:33:42.999Z</time></trkpt><trkpt lat="43.63111725580998" lon="11.316076150906843"><ele>365.8</ele><time>2026-04-04T16:33:43.999Z</time></trkpt><trkpt lat="43.6310073366465" lon="11.315989621979762"><ele>365.4</ele><time>2026-04-04T16:33:44.999Z</time></trkpt><trkpt lat="43.63093776481282" lon="11.315900608292406"><ele>365.0</ele><time>2026-04-04T16:33:45.999Z</time></trkpt><trkpt lat="43.63085660479523" lon="11.315815494171952"><ele>365.0</ele><time>2026-04-04T16:33:47.999Z</time></trkpt><trkpt lat="43.63079551439187" lon="11.315772744389433"><ele>365.0</ele><time>2026-04-04T16:33:48.999Z</time></trkpt><trkpt lat="43.63070208037648" lon="11.315712859775418"><ele>365.0</ele><time>2026-04-04T16:33:50.999Z</time></trkpt><trkpt lat="43.6306242134697" lon="11.315647036495426"><ele>365.0</ele><time>2026-04-04T16:33:52.999Z</time></trkpt><trkpt lat="43.630522169629955" lon="11.315536940102355"><ele>365.0</ele><time>2026-04-04T16:33:55Z</time></trkpt><trkpt lat="43.63045631851571" lon="11.315458873850899"><ele>364.4</ele><time>2026-04-04T16:33:56Z</time></trkpt><trkpt lat="43.630382933587825" lon="11.315343517101526"><ele>363.8</ele><time>2026-04-04T16:33:58Z</time></trkpt><trkpt lat="43.63031722522136" lon="11.315212285473176"><ele>363.20000000000005</ele><time>2026-04-04T16:34:00Z</time></trkpt><trkpt lat="43.6302723113032" lon="11.315119530098642"><ele>362.6</ele><time>2026-04-04T16:34:01Z</time></trkpt><trkpt lat="43.63022014955245" lon="11.31501091541087"><ele>362.0</ele><time>2026-04-04T16:34:02Z</time></trkpt><trkpt lat="43.630179914232286" lon="11.314913499351194"><ele>362.0</ele><time>2026-04-04T16:34:03Z</time></trkpt><trkpt lat="43.63011069125296" lon="11.314787363961907"><ele>362.0</ele><time>2026-04-04T16:34:04Z</time></trkpt><trkpt lat="43.63005705630761" lon="11.314679578455088"><ele>362.0</ele><time>2026-04-04T16:34:05Z</time></trkpt><trkpt lat="43.63000113445475" lon="11.314571250053152"><ele>362.0</ele><time>2026-04-04T16:34:06Z</time></trkpt><trkpt lat="43.629944895247796" lon="11.314469182848544"><ele>362.0</ele><time>2026-04-04T16:34:07Z</time></trkpt><trkpt lat="43.629887527110675" lon="11.314366322727361"><ele>361.6666666666667</ele><time>2026-04-04T16:34:08Z</time></trkpt><trkpt lat="43.62983384053551" lon="11.31426053892018"><ele>361.33333333333337</ele><time>2026-04-04T16:34:09Z</time></trkpt><trkpt lat="43.62978365733655" lon="11.31417006776465"><ele>361.0</ele><time>2026-04-04T16:34:10Z</time></trkpt><trkpt lat="43.6297329799871" lon="11.314078586305655"><ele>360.6666666666667</ele><time>2026-04-04T16:34:11Z</time></trkpt><trkpt lat="43.629685022305374" lon="11.313996870233527"><ele>360.3333333333333</ele><time>2026-04-04T16:34:12Z</time></trkpt><trkpt lat="43.62963535549303" lon="11.31391575540285"><ele>360.0</ele><time>2026-04-04T16:34:13Z</time></trkpt><trkpt lat="43.62959645163227" lon="11.31381439397414"><ele>359.6666666666667</ele><time>2026-04-04T16:34:14Z</time></trkpt><trkpt lat="43.629551333679416" lon="11.313718238176882"><ele>359.3333333333333</ele><time>2026-04-04T16:34:15Z</time></trkpt><trkpt lat="43.62951087066543" lon="11.3136327262345"><ele>359.0</ele><time>2026-04-04T16:34:16Z</time></trkpt><trkpt lat="43.62945367104214" lon="11.313567912976366"><ele>358.66666666666663</ele><time>2026-04-04T16:34:17Z</time></trkpt><trkpt lat="43.62939268547187" lon="11.313514327491609"><ele>358.3333333333333</ele><time>2026-04-04T16:34:18Z</time></trkpt><trkpt lat="43.629314234580406" lon="11.313450578850297"><ele>358.0</ele><time>2026-04-04T16:34:19Z</time></trkpt><trkpt lat="43.629228034797634" lon="11.313407564638318"><ele>358.0</ele><time>2026-04-04T16:34:20Z</time></trkpt><trkpt lat="43.62914713988425" lon="11.313352391591126"><ele>358.0</ele><time>2026-04-04T16:34:21Z</time></trkpt><trkpt lat="43.629078952427975" lon="11.313310864162329"><ele>358.0</ele><time>2026-04-04T16:34:22Z</time></trkpt><trkpt lat="43.629023491948416" lon="11.313240754457256"><ele>358.0</ele><time>2026-04-04T16:34:23Z</time></trkpt><trkpt lat="43.62893999992029" lon="11.313234393621707"><ele>358.0</ele><time>2026-04-04T16:34:24Z</time></trkpt><trkpt lat="43.62887478625926" lon="11.313191805809804"><ele>358.0</ele><time>2026-04-04T16:34:25Z</time></trkpt><trkpt lat="43.62879953358021" lon="11.31312893593362"><ele>358.0</ele><time>2026-04-04T16:34:27Z</time></trkpt><trkpt lat="43.628800684207825" lon="11.313031109961852"><ele>358.0</ele><time>2026-04-04T16:34:30Z</time></trkpt><trkpt lat="43.62883697886423" lon="11.312943297280254"><ele>358.0</ele><time>2026-04-04T16:38:33Z</time></trkpt><trkpt lat="43.62890543263738" lon="11.31289527503541"><ele>358.0</ele><time>2026-04-04T16:38:38Z</time></trkpt><trkpt lat="43.628819689105825" lon="11.312997533760567"><ele>358.0</ele><time>2026-04-04T16:38:49Z</time></trkpt><trkpt lat="43.62877845953164" lon="11.31309737894816"><ele>358.0</ele><time>2026-04-04T16:38:52Z</time></trkpt><trkpt lat="43.6287719756063" lon="11.313227101074045"><ele>358.0</ele><time>2026-04-04T16:39:05Z</time></trkpt><trkpt lat="43.628835711154956" lon="11.313377581888929"><ele>358.0</ele><time>2026-04-04T16:39:07Z</time></trkpt><trkpt lat="43.62886811314583" lon="11.313486692705425"><ele>358.0</ele><time>2026-04-04T16:39:08Z</time></trkpt><trkpt lat="43.628912102740514" lon="11.313610955577493"><ele>358.0</ele><time>2026-04-04T16:39:09Z</time></trkpt><trkpt lat="43.628958426119866" lon="11.313731204488077"><ele>358.0</ele><time>2026-04-04T16:39:10Z</time></trkpt><trkpt lat="43.62899750256796" lon="11.313850958847004"><ele>358.2</ele><time>2026-04-04T16:39:11Z</time></trkpt><trkpt lat="43.62904671998088" lon="11.31396339707959"><ele>358.4</ele><time>2026-04-04T16:39:12Z</time></trkpt><trkpt lat="43.62909283659986" lon="11.314087333419545"><ele>358.59999999999997</ele><time>2026-04-04T16:39:13Z</time></trkpt><trkpt lat="43.62915051792509" lon="11.314207620642891"><ele>358.79999999999995</ele><time>2026-04-04T16:39:14Z</time></trkpt><trkpt lat="43.62921844234997" lon="11.31432130480585"><ele>359.0</ele><time>2026-04-04T16:39:15Z</time></trkpt><trkpt lat="43.62928800762492" lon="11.31443255563328"><ele>359.0</ele><time>2026-04-04T16:39:16Z</time></trkpt><trkpt lat="43.629374081978966" lon="11.314571302063927"><ele>359.0</ele><time>2026-04-04T16:39:17Z</time></trkpt><trkpt lat="43.62944854087166" lon="11.31471315729019"><ele>359.0</ele><time>2026-04-04T16:39:18Z</time></trkpt><trkpt lat="43.62954517295844" lon="11.314842964785354"><ele>359.0</ele><time>2026-04-04T16:39:19Z</time></trkpt><trkpt lat="43.629633591630274" lon="11.314996807219728"><ele>359.75</ele><time>2026-04-04T16:39:20Z</time></trkpt><trkpt lat="43.6297265246118" lon="11.315159908121615"><ele>360.5</ele><time>2026-04-04T16:39:21Z</time></trkpt><trkpt lat="43.62982451750685" lon="11.315315956922744"><ele>361.25</ele><time>2026-04-04T16:39:22Z</time></trkpt><trkpt lat="43.62990435460779" lon="11.315460389895808"><ele>362.0</ele><time>2026-04-04T16:39:23Z</time></trkpt><trkpt lat="43.629985049064565" lon="11.315605740711092"><ele>362.6</ele><time>2026-04-04T16:39:24Z</time></trkpt><trkpt lat="43.6300543477855" lon="11.315741426223711"><ele>363.20000000000005</ele><time>2026-04-04T16:39:25Z</time></trkpt><trkpt lat="43.630127095292046" lon="11.31587383101286"><ele>363.8</ele><time>2026-04-04T16:39:26Z</time></trkpt><trkpt lat="43.63019488981038" lon="11.315982992652096"><ele>364.4</ele><time>2026-04-04T16:39:27Z</time></trkpt><trkpt lat="43.63027043075999" lon="11.31607625001813"><ele>365.0</ele><time>2026-04-04T16:39:28Z</time></trkpt><trkpt lat="43.63034797678678" lon="11.316167862882194"><ele>365.0</ele><time>2026-04-04T16:39:29Z</time></trkpt><trkpt lat="43.6303980183419" lon="11.316268956709825"><ele>365.0</ele><time>2026-04-04T16:39:30Z</time></trkpt><trkpt lat="43.63044581915385" lon="11.316349375062002"><ele>365.0</ele><time>2026-04-04T16:39:31Z</time></trkpt><trkpt lat="43.63045036160895" lon="11.31645627845541"><ele>365.0</ele><time>2026-04-04T16:39:32Z</time></trkpt><trkpt lat="43.63042198525205" lon="11.316559843767017"><ele>365.0</ele><time>2026-04-04T16:39:33Z</time></trkpt><trkpt lat="43.63037471984685" lon="11.31666205833817"><ele>365.0</ele><time>2026-04-04T16:39:34Z</time></trkpt><trkpt lat="43.63030821276463" lon="11.316762406910636"><ele>362.8</ele><time>2026-04-04T16:39:35Z</time></trkpt><trkpt lat="43.63023800830434" lon="11.316816795419895"><ele>360.6</ele><time>2026-04-04T16:39:36Z</time></trkpt><trkpt lat="43.630150607254016" lon="11.316863458133453"><ele>358.4</ele><time>2026-04-04T16:39:37Z</time></trkpt><trkpt lat="43.630043568747254" lon="11.316870565088966"><ele>356.2</ele><time>2026-04-04T16:39:38Z</time></trkpt><trkpt lat="43.629957207594074" lon="11.316892801446668"><ele>354.0</ele><time>2026-04-04T16:39:39Z</time></trkpt><trkpt lat="43.62985989397863" lon="11.316937180046747"><ele>354.0</ele><time>2026-04-04T16:39:41Z</time></trkpt><trkpt lat="43.62982754441236" lon="11.31705774225336"><ele>354.0</ele><time>2026-04-04T16:39:42.999Z</time></trkpt><trkpt lat="43.62987400503903" lon="11.317254636994852"><ele>354.0</ele><time>2026-04-04T16:39:44.999Z</time></trkpt><trkpt lat="43.629904779318885" lon="11.317352447413821"><ele>354.0</ele><time>2026-04-04T16:39:45.999Z</time></trkpt><trkpt lat="43.62990748468943" lon="11.317444821995805"><ele>354.0</ele><time>2026-04-04T16:39:46.999Z</time></trkpt><trkpt lat="43.62988063016232" lon="11.317559117580114"><ele>354.1666666666667</ele><time>2026-04-04T16:39:48.999Z</time></trkpt><trkpt lat="43.62981810315151" lon="11.317598736663388"><ele>354.3333333333333</ele><time>2026-04-04T16:39:49.999Z</time></trkpt><trkpt lat="43.62974998329774" lon="11.317648979827581"><ele>354.5</ele><time>2026-04-04T16:39:50.999Z</time></trkpt><trkpt lat="43.62966658597084" lon="11.317694445852943"><ele>354.66666666666663</ele><time>2026-04-04T16:39:51.999Z</time></trkpt><trkpt lat="43.62958261031828" lon="11.317724503655374"><ele>354.8333333333333</ele><time>2026-04-04T16:39:52.999Z</time></trkpt><trkpt lat="43.62951707252932" lon="11.317735780159246"><ele>355.0</ele><time>2026-04-04T16:39:53.999Z</time></trkpt><trkpt lat="43.62942426471232" lon="11.317676436353166"><ele>355.0</ele><time>2026-04-04T16:39:54.999Z</time></trkpt><trkpt lat="43.62935185543471" lon="11.31762421918339"><ele>355.0</ele><time>2026-04-04T16:39:55.999Z</time></trkpt><trkpt lat="43.629258799417705" lon="11.31759093692552"><ele>355.0</ele><time>2026-04-04T16:39:56.999Z</time></trkpt><trkpt lat="43.629173462117095" lon="11.31755523939923"><ele>355.0</ele><time>2026-04-04T16:39:57.999Z</time></trkpt><trkpt lat="43.629100980184155" lon="11.31755717302138"><ele>355.0</ele><time>2026-04-04T16:39:58.999Z</time></trkpt><trkpt lat="43.629018569744076" lon="11.317577626414185"><ele>355.0</ele><time>2026-04-04T16:39:59.999Z</time></trkpt><trkpt lat="43.62894137167732" lon="11.31760763144801"><ele>355.0</ele><time>2026-04-04T16:40:00.999Z</time></trkpt><trkpt lat="43.62887577852906" lon="11.317647930243421"><ele>355.0</ele><time>2026-04-04T16:40:01.999Z</time></trkpt><trkpt lat="43.62880870844036" lon="11.317708938480573"><ele>355.0</ele><time>2026-04-04T16:40:02.999Z</time></trkpt><trkpt lat="43.628749512077164" lon="11.317787635403402"><ele>355.0</ele><time>2026-04-04T16:40:03.999Z</time></trkpt><trkpt lat="43.62870360533008" lon="11.317874748253162"><ele>355.0</ele><time>2026-04-04T16:40:04.999Z</time></trkpt><trkpt lat="43.6286692506378" lon="11.317969620897987"><ele>355.0</ele><time>2026-04-04T16:40:05.999Z</time></trkpt><trkpt lat="43.62865508877272" lon="11.318070608705868"><ele>357.6</ele><time>2026-04-04T16:40:06.999Z</time></trkpt><trkpt lat="43.628663604369194" lon="11.318174116310702"><ele>360.2</ele><time>2026-04-04T16:40:07.999Z</time></trkpt><trkpt lat="43.62869604707113" lon="11.318306635528035"><ele>362.79999999999995</ele><time>2026-04-04T16:40:08.999Z</time></trkpt><trkpt lat="43.628754095446965" lon="11.318439154840354"><ele>365.4</ele><time>2026-04-04T16:40:09.999Z</time></trkpt><trkpt lat="43.628802201676116" lon="11.318567859272818"><ele>368.0</ele><time>2026-04-04T16:40:10.999Z</time></trkpt><trkpt lat="43.62883811520803" lon="11.31868290490815"><ele>368.0</ele><time>2026-04-04T16:40:11.999Z</time></trkpt><trkpt lat="43.62886346387431" lon="11.318802664364847"><ele>368.0</ele><time>2026-04-04T16:40:13Z</time></trkpt><trkpt lat="43.62887931705575" lon="11.318918215912502"><ele>368.0</ele><time>2026-04-04T16:40:14Z</time></trkpt><trkpt lat="43.628899617767644" lon="11.319024373871335"><ele>368.0</ele><time>2026-04-04T16:40:15Z</time></trkpt><trkpt lat="43.628926194626374" lon="11.319127908737654"><ele>368.0</ele><time>2026-04-04T16:40:16Z</time></trkpt><trkpt lat="43.62895316324411" lon="11.319226209845718"><ele>368.0</ele><time>2026-04-04T16:40:17Z</time></trkpt><trkpt lat="43.6289834554538" lon="11.319333812449273"><ele>369.0</ele><time>2026-04-04T16:40:18Z</time></trkpt><trkpt lat="43.62900616965079" lon="11.319436622709867"><ele>370.0</ele><time>2026-04-04T16:40:19Z</time></trkpt><trkpt lat="43.62901954670232" lon="11.319542180939157"><ele>371.0</ele><time>2026-04-04T16:40:20Z</time></trkpt><trkpt lat="43.62903146252739" lon="11.319645617987556"><ele>372.0</ele><time>2026-04-04T16:40:21Z</time></trkpt><trkpt lat="43.62902365784198" lon="11.319733863288215"><ele>373.0</ele><time>2026-04-04T16:40:22Z</time></trkpt><trkpt lat="43.62899450788623" lon="11.319868354214496"><ele>374.0</ele><time>2026-04-04T16:40:24Z</time></trkpt><trkpt lat="43.62889832859816" lon="11.31991352340008"><ele>373.83333333333337</ele><time>2026-04-04T16:40:26Z</time></trkpt><trkpt lat="43.62883331553174" lon="11.31989514966422"><ele>373.6666666666667</ele><time>2026-04-04T16:40:27Z</time></trkpt><trkpt lat="43.628760281092944" lon="11.319870737903877"><ele>373.5</ele><time>2026-04-04T16:40:28Z</time></trkpt><trkpt lat="43.62866951226224" lon="11.31984947377829"><ele>373.3333333333333</ele><time>2026-04-04T16:40:29Z</time></trkpt><trkpt lat="43.628575804141185" lon="11.319837502276593"><ele>373.16666666666663</ele><time>2026-04-04T16:40:30Z</time></trkpt><trkpt lat="43.62847679063067" lon="11.31983073123185"><ele>373.0</ele><time>2026-04-04T16:40:31Z</time></trkpt><trkpt lat="43.6283887146308" lon="11.319836042855114"><ele>373.0</ele><time>2026-04-04T16:40:32Z</time></trkpt><trkpt lat="43.628317741605066" lon="11.319845503585395"><ele>373.0</ele><time>2026-04-04T16:40:33Z</time></trkpt><trkpt lat="43.62821735098455" lon="11.319936050860203"><ele>373.0</ele><time>2026-04-04T16:40:35Z</time></trkpt><trkpt lat="43.62816337958357" lon="11.320088936081918"><ele>373.0</ele><time>2026-04-04T16:40:37Z</time></trkpt><trkpt lat="43.628155196466835" lon="11.32019369563473"><ele>373.0</ele><time>2026-04-04T16:40:38Z</time></trkpt><trkpt lat="43.62814990621172" lon="11.320308619447196"><ele>373.0</ele><time>2026-04-04T16:40:39Z</time></trkpt><trkpt lat="43.6281425732979" lon="11.320417238374668"><ele>373.0</ele><time>2026-04-04T16:40:40Z</time></trkpt><trkpt lat="43.62813079493307" lon="11.320527099794493"><ele>373.0</ele><time>2026-04-04T16:40:41Z</time></trkpt><trkpt lat="43.628089284346636" lon="11.32061637570309"><ele>373.0</ele><time>2026-04-04T16:40:42Z</time></trkpt><trkpt lat="43.62804570101201" lon="11.320691772354726"><ele>373.0</ele><time>2026-04-04T16:40:43Z</time></trkpt><trkpt lat="43.62800152996843" lon="11.320771209602318"><ele>373.0</ele><time>2026-04-04T16:40:44Z</time></trkpt><trkpt lat="43.627967371284804" lon="11.320855281112893"><ele>373.0</ele><time>2026-04-04T16:40:45Z</time></trkpt><trkpt lat="43.62794060180915" lon="11.320963443337748"><ele>372.2</ele><time>2026-04-04T16:40:46Z</time></trkpt><trkpt lat="43.62791493459376" lon="11.32106708476582"><ele>371.4</ele><time>2026-04-04T16:40:47Z</time></trkpt><trkpt lat="43.62788556751626" lon="11.321151020542361"><ele>370.59999999999997</ele><time>2026-04-04T16:40:48Z</time></trkpt><trkpt lat="43.62783019444417" lon="11.321302885100291"><ele>369.79999999999995</ele><time>2026-04-04T16:40:50Z</time></trkpt><trkpt lat="43.62772367324615" lon="11.321366410648176"><ele>369.0</ele><time>2026-04-04T16:40:52Z</time></trkpt><trkpt lat="43.62762308986995" lon="11.32135931270771"><ele>369.0</ele><time>2026-04-04T16:40:54Z</time></trkpt><trkpt lat="43.62755164152419" lon="11.32133619182931"><ele>369.0</ele><time>2026-04-04T16:40:56Z</time></trkpt><trkpt lat="43.62750986476959" lon="11.32126419096745"><ele>369.0</ele><time>2026-04-04T16:40:59Z</time></trkpt><trkpt lat="43.6275723385701" lon="11.32131526346343"><ele>369.0</ele><time>2026-04-04T16:41:03Z</time></trkpt><trkpt lat="43.627163313644814" lon="11.321354122744236"><ele>369.0</ele><time>2026-04-04T16:41:04Z</time></trkpt><trkpt lat="43.62768309548185" lon="11.321378002801678"><ele>369.0</ele><time>2026-04-04T16:41:05Z</time></trkpt><trkpt lat="43.62774909886234" lon="11.321354155499222"><ele>369.0</ele><time>2026-04-04T16:41:06Z</time></trkpt><trkpt lat="43.6278411714002" lon="11.321261067835458"><ele>369.0</ele><time>2026-04-04T16:41:08Z</time></trkpt><trkpt lat="43.627900315457346" lon="11.321196602917396"><ele>369.0</ele><time>2026-04-04T16:41:11Z</time></trkpt><trkpt lat="43.62793819817583" lon="11.321112683243603"><ele>369.0</ele><time>2026-04-04T16:41:33Z</time></trkpt><trkpt lat="43.627957526466496" lon="11.321003762367212"><ele>369.0</ele><time>2026-04-04T16:41:35Z</time></trkpt><trkpt lat="43.62788674195524" lon="11.321053696113538"><ele>369.0</ele><time>2026-04-04T16:41:40.999Z</time></trkpt><trkpt lat="43.62791905037706" lon="11.321143457075461"><ele>369.0</ele><time>2026-04-04T16:41:43.999Z</time></trkpt><trkpt lat="43.62785502094001" lon="11.321250779839719"><ele>369.0</ele><time>2026-04-04T16:41:45.999Z</time></trkpt><trkpt lat="43.62774590967794" lon="11.321327556996085"><ele>369.0</ele><time>2026-04-04T16:41:47.999Z</time></trkpt><trkpt lat="43.62761558562556" lon="11.321344620741446"><ele>369.0</ele><time>2026-04-04T16:41:49.999Z</time></trkpt><trkpt lat="43.62754614636017" lon="11.321309982891389"><ele>369.0</ele><time>2026-04-04T16:41:50.999Z</time></trkpt><trkpt lat="43.6274654549634" lon="11.321247071106662"><ele>369.0</ele><time>2026-04-04T16:41:51.999Z</time></trkpt><trkpt lat="43.62740008457849" lon="11.321188535633366"><ele>369.0</ele><time>2026-04-04T16:41:52.999Z</time></trkpt><trkpt lat="43.62734199349408" lon="11.321132653086496"><ele>369.0</ele><time>2026-04-04T16:41:53.999Z</time></trkpt><trkpt lat="43.627286065600615" lon="11.321082976637664"><ele>369.0</ele><time>2026-04-04T16:41:54.999Z</time></trkpt><trkpt lat="43.627205963498284" lon="11.321032541974322"><ele>369.0</ele><time>2026-04-04T16:41:56.999Z</time></trkpt><trkpt lat="43.6271233134112" lon="11.321092950363305"><ele>369.0</ele><time>2026-04-04T16:41:58.999Z</time></trkpt><trkpt lat="43.62709916690043" lon="11.32126088611648"><ele>369.0</ele><time>2026-04-04T16:42:00.999Z</time></trkpt><trkpt lat="43.62709904843824" lon="11.321392484312574"><ele>369.0</ele><time>2026-04-04T16:42:01.999Z</time></trkpt><trkpt lat="43.627102181310285" lon="11.32152174721065"><ele>369.0</ele><time>2026-04-04T16:42:02.999Z</time></trkpt><trkpt lat="43.62710896098415" lon="11.32163630660892"><ele>369.0</ele><time>2026-04-04T16:42:03.999Z</time></trkpt><trkpt lat="43.62710748043616" lon="11.321732227414314"><ele>370.4</ele><time>2026-04-04T16:42:04.999Z</time></trkpt><trkpt lat="43.62709370359259" lon="11.321860108372539"><ele>371.79999999999995</ele><time>2026-04-04T16:42:06.999Z</time></trkpt><trkpt lat="43.62699464191228" lon="11.321866117474682"><ele>373.20000000000005</ele><time>2026-04-04T16:42:08.999Z</time></trkpt><trkpt lat="43.626899173443185" lon="11.321785442095175"><ele>374.6</ele><time>2026-04-04T16:42:10.999Z</time></trkpt><trkpt lat="43.62683772701734" lon="11.321684952455161"><ele>376.0</ele><time>2026-04-04T16:42:11.999Z</time></trkpt><trkpt lat="43.62676596584091" lon="11.321578423279245"><ele>376.0</ele><time>2026-04-04T16:42:12.999Z</time></trkpt><trkpt lat="43.62669466052515" lon="11.321454244385395"><ele>376.0</ele><time>2026-04-04T16:42:13.999Z</time></trkpt><trkpt lat="43.62662611208837" lon="11.321335806304369"><ele>376.0</ele><time>2026-04-04T16:42:14.999Z</time></trkpt><trkpt lat="43.626582006539174" lon="11.321219079530504"><ele>376.0</ele><time>2026-04-04T16:42:15.999Z</time></trkpt><trkpt lat="43.626537257781905" lon="11.321099533057454"><ele>376.0</ele><time>2026-04-04T16:42:16.999Z</time></trkpt><trkpt lat="43.62647728366304" lon="11.320986547502644"><ele>374.0</ele><time>2026-04-04T16:42:17.999Z</time></trkpt><trkpt lat="43.62642646882257" lon="11.32085664293244"><ele>372.0</ele><time>2026-04-04T16:42:19Z</time></trkpt><trkpt lat="43.62637095776291" lon="11.320733369970783"><ele>370.0</ele><time>2026-04-04T16:42:20Z</time></trkpt><trkpt lat="43.62632132683823" lon="11.320622531350349"><ele>368.0</ele><time>2026-04-04T16:42:21Z</time></trkpt><trkpt lat="43.62627174185026" lon="11.320506148300465"><ele>366.0</ele><time>2026-04-04T16:42:22Z</time></trkpt><trkpt lat="43.626232651256835" lon="11.320400486768998"><ele>365.3333333333333</ele><time>2026-04-04T16:42:23Z</time></trkpt><trkpt lat="43.62619898514393" lon="11.320300963403785"><ele>364.6666666666667</ele><time>2026-04-04T16:42:24Z</time></trkpt><trkpt lat="43.62617245117298" lon="11.320191973068239"><ele>364.0</ele><time>2026-04-04T16:42:25Z</time></trkpt><trkpt lat="43.62613755586828" lon="11.32010687319345"><ele>363.33333333333337</ele><time>2026-04-04T16:42:26Z</time></trkpt><trkpt lat="43.62609811643773" lon="11.32002735070188"><ele>362.6666666666667</ele><time>2026-04-04T16:42:27Z</time></trkpt><trkpt lat="43.62601273625773" lon="11.319887295927074"><ele>362.0</ele><time>2026-04-04T16:42:29Z</time></trkpt><trkpt lat="43.62591269531407" lon="11.319803614576482"><ele>362.0</ele><time>2026-04-04T16:42:31Z</time></trkpt><trkpt lat="43.62584553927959" lon="11.31979899149743"><ele>362.0</ele><time>2026-04-04T16:42:32Z</time></trkpt><trkpt lat="43.625735262600124" lon="11.31985986361994"><ele>362.0</ele><time>2026-04-04T16:42:34Z</time></trkpt><trkpt lat="43.62562876482855" lon="11.319959604673164"><ele>362.0</ele><time>2026-04-04T16:42:36Z</time></trkpt><trkpt lat="43.625591764557626" lon="11.320057105469768"><ele>362.0</ele><time>2026-04-04T16:42:37Z</time></trkpt><trkpt lat="43.625563648584134" lon="11.32016946203921"><ele>362.0</ele><time>2026-04-04T16:42:38Z</time></trkpt><trkpt lat="43.62553923779352" lon="11.320273093875183"><ele>362.0</ele><time>2026-04-04T16:42:39Z</time></trkpt><trkpt lat="43.625512998345705" lon="11.320390251880294"><ele>362.0</ele><time>2026-04-04T16:42:40Z</time></trkpt><trkpt lat="43.62548679630016" lon="11.320513055314274"><ele>362.0</ele><time>2026-04-04T16:42:41Z</time></trkpt><trkpt lat="43.62546114988421" lon="11.320627717914007"><ele>362.0</ele><time>2026-04-04T16:42:42Z</time></trkpt><trkpt lat="43.62544026326306" lon="11.320715134324319"><ele>362.0</ele><time>2026-04-04T16:42:43Z</time></trkpt><trkpt lat="43.62542073456532" lon="11.320843825288957"><ele>362.5</ele><time>2026-04-04T16:42:44Z</time></trkpt><trkpt lat="43.6253740254493" lon="11.32095963689741"><ele>363.0</ele><time>2026-04-04T16:42:45Z</time></trkpt><trkpt lat="43.625323980841856" lon="11.321058976850308"><ele>363.5</ele><time>2026-04-04T16:42:46Z</time></trkpt><trkpt lat="43.625295970390205" lon="11.321163190373287"><ele>364.0</ele><time>2026-04-04T16:42:47Z</time></trkpt><trkpt lat="43.62524734507426" lon="11.321252663947917"><ele>364.5</ele><time>2026-04-04T16:42:48Z</time></trkpt><trkpt lat="43.625220831003126" lon="11.321354398501255"><ele>365.0</ele><time>2026-04-04T16:42:49Z</time></trkpt><trkpt lat="43.62521846601527" lon="11.321471402214582"><ele>365.0</ele><time>2026-04-04T16:42:50Z</time></trkpt><trkpt lat="43.625205806987815" lon="11.32160324169599"><ele>365.0</ele><time>2026-04-04T16:42:51Z</time></trkpt><trkpt lat="43.625208759122444" lon="11.321738578248395"><ele>365.0</ele><time>2026-04-04T16:42:52Z</time></trkpt><trkpt lat="43.6252045591068" lon="11.321869314999956"><ele>365.0</ele><time>2026-04-04T16:42:53Z</time></trkpt><trkpt lat="43.62523189524777" lon="11.321986874147447"><ele>365.0</ele><time>2026-04-04T16:42:54Z</time></trkpt><trkpt lat="43.62525452702258" lon="11.322074146650836"><ele>365.0</ele><time>2026-04-04T16:42:55Z</time></trkpt><trkpt lat="43.62526695000688" lon="11.322204781701844"><ele>365.0</ele><time>2026-04-04T16:42:57Z</time></trkpt><trkpt lat="43.62518481924711" lon="11.322236454565829"><ele>365.0</ele><time>2026-04-04T16:42:59Z</time></trkpt><trkpt lat="43.62506338623878" lon="11.322155726360272"><ele>365.0</ele><time>2026-04-04T16:43:01Z</time></trkpt><trkpt lat="43.624984701450465" lon="11.322067140977945"><ele>365.0</ele><time>2026-04-04T16:43:02Z</time></trkpt><trkpt lat="43.62494317109609" lon="11.321949467358014"><ele>365.0</ele><time>2026-04-04T16:43:03Z</time></trkpt><trkpt lat="43.6248949428167" lon="11.321820996208944"><ele>365.0</ele><time>2026-04-04T16:43:04Z</time></trkpt><trkpt lat="43.624841275649544" lon="11.321671939642046"><ele>365.0</ele><time>2026-04-04T16:43:05Z</time></trkpt><trkpt lat="43.62478597060677" lon="11.321514332145439"><ele>365.0</ele><time>2026-04-04T16:43:06Z</time></trkpt><trkpt lat="43.624727495496394" lon="11.321346723313328"><ele>365.0</ele><time>2026-04-04T16:43:07Z</time></trkpt><trkpt lat="43.624674143137376" lon="11.321192978127867"><ele>363.2</ele><time>2026-04-04T16:43:08Z</time></trkpt><trkpt lat="43.62462328536678" lon="11.321046421504557"><ele>361.4</ele><time>2026-04-04T16:43:09Z</time></trkpt><trkpt lat="43.62457506280574" lon="11.32090867068521"><ele>359.6</ele><time>2026-04-04T16:43:10Z</time></trkpt><trkpt lat="43.62452845201748" lon="11.32077876120049"><ele>357.8</ele><time>2026-04-04T16:43:11Z</time></trkpt><trkpt lat="43.62448356623749" lon="11.320653659472653"><ele>356.0</ele><time>2026-04-04T16:43:12Z</time></trkpt><trkpt lat="43.624441174315685" lon="11.320535508297738"><ele>355.20000000000005</ele><time>2026-04-04T16:43:13Z</time></trkpt><trkpt lat="43.62439881648521" lon="11.320418084018904"><ele>354.40000000000003</ele><time>2026-04-04T16:43:14Z</time></trkpt><trkpt lat="43.62436007297208" lon="11.32030539725592"><ele>353.6</ele><time>2026-04-04T16:43:15Z</time></trkpt><trkpt lat="43.624332019036885" lon="11.320183083879598"><ele>352.8</ele><time>2026-04-04T16:43:16Z</time></trkpt><trkpt lat="43.624313960331406" lon="11.320058807037386"><ele>352.0</ele><time>2026-04-04T16:43:17Z</time></trkpt><trkpt lat="43.62429920638628" lon="11.319943211611488"><ele>352.0</ele><time>2026-04-04T16:43:18Z</time></trkpt><trkpt lat="43.624289009753525" lon="11.319837296547467"><ele>352.0</ele><time>2026-04-04T16:43:19Z</time></trkpt><trkpt lat="43.624277545323984" lon="11.319729920513517"><ele>352.0</ele><time>2026-04-04T16:43:20Z</time></trkpt><trkpt lat="43.624252553345144" lon="11.319646139439408"><ele>352.0</ele><time>2026-04-04T16:43:21Z</time></trkpt><trkpt lat="43.62423312646817" lon="11.319558217196782"><ele>352.0</ele><time>2026-04-04T16:43:22Z</time></trkpt><trkpt lat="43.62417841922155" lon="11.319425022486433"><ele>352.0</ele><time>2026-04-04T16:43:24Z</time></trkpt><trkpt lat="43.62411570286391" lon="11.31940225748541"><ele>352.0</ele><time>2026-04-04T16:43:25Z</time></trkpt><trkpt lat="43.62399162499772" lon="11.319394347195036"><ele>352.0</ele><time>2026-04-04T16:43:27Z</time></trkpt><trkpt lat="43.623938360963976" lon="11.319458116564814"><ele>352.0</ele><time>2026-04-04T16:43:28Z</time></trkpt><trkpt lat="43.623894114024154" lon="11.319525501988572"><ele>352.0</ele><time>2026-04-04T16:43:29Z</time></trkpt><trkpt lat="43.62382885705318" lon="11.319593970472376"><ele>352.0</ele><time>2026-04-04T16:43:30Z</time></trkpt><trkpt lat="43.6237653154839" lon="11.319677018376549"><ele>352.0</ele><time>2026-04-04T16:43:31Z</time></trkpt><trkpt lat="43.62370922517405" lon="11.319744527910537"><ele>352.0</ele><time>2026-04-04T16:43:32Z</time></trkpt><trkpt lat="43.623659989046956" lon="11.319808980928217"><ele>352.0</ele><time>2026-04-04T16:43:33Z</time></trkpt><trkpt lat="43.623591572281136" lon="11.319823748834924"><ele>352.0</ele><time>2026-04-04T16:43:34Z</time></trkpt><trkpt lat="43.623516703602135" lon="11.319823154788045"><ele>352.0</ele><time>2026-04-04T16:43:35Z</time></trkpt><trkpt lat="43.623436445552855" lon="11.319779304303285"><ele>352.0</ele><time>2026-04-04T16:43:36Z</time></trkpt><trkpt lat="43.62335178027001" lon="11.319767603778626"><ele>352.0</ele><time>2026-04-04T16:43:37Z</time></trkpt><trkpt lat="43.62327254606878" lon="11.31975339644891"><ele>350.0</ele><time>2026-04-04T16:43:38Z</time></trkpt><trkpt lat="43.62320578021174" lon="11.319734410465268"><ele>348.0</ele><time>2026-04-04T16:43:39Z</time></trkpt><trkpt lat="43.623088999119574" lon="11.319696817343981"><ele>346.0</ele><time>2026-04-04T16:43:41Z</time></trkpt><trkpt lat="43.623036106588614" lon="11.319611584532904"><ele>344.0</ele><time>2026-04-04T16:43:42Z</time></trkpt><trkpt lat="43.62297588845639" lon="11.31957176653542"><ele>342.0</ele><time>2026-04-04T16:43:43Z</time></trkpt><trkpt lat="43.62289491065809" lon="11.319452495811193"><ele>339.5</ele><time>2026-04-04T16:43:45Z</time></trkpt><trkpt lat="43.62281084391958" lon="11.319398146620875"><ele>337.0</ele><time>2026-04-04T16:43:46.999Z</time></trkpt><trkpt lat="43.6227510811446" lon="11.31943457507292"><ele>334.5</ele><time>2026-04-04T16:43:47.999Z</time></trkpt><trkpt lat="43.62269416894189" lon="11.319491776905524"><ele>332.0</ele><time>2026-04-04T16:43:48.999Z</time></trkpt><trkpt lat="43.62264865262979" lon="11.319594102593225"><ele>329.5</ele><time>2026-04-04T16:43:49.999Z</time></trkpt><trkpt lat="43.62260286181387" lon="11.319688584297067"><ele>327.0</ele><time>2026-04-04T16:43:50.999Z</time></trkpt><trkpt lat="43.62256090717245" lon="11.319797221364787"><ele>327.0</ele><time>2026-04-04T16:43:51.999Z</time></trkpt><trkpt lat="43.62253105253727" lon="11.319940027305094"><ele>327.0</ele><time>2026-04-04T16:43:52.999Z</time></trkpt><trkpt lat="43.622490038870815" lon="11.320085437529345"><ele>327.0</ele><time>2026-04-04T16:43:53.999Z</time></trkpt><trkpt lat="43.62245475586188" lon="11.3202510107041"><ele>327.0</ele><time>2026-04-04T16:43:54.999Z</time></trkpt><trkpt lat="43.62241718211278" lon="11.320409246817398"><ele>328.8</ele><time>2026-04-04T16:43:55.999Z</time></trkpt><trkpt lat="43.62236131990615" lon="11.32057206296182"><ele>330.6</ele><time>2026-04-04T16:43:56.999Z</time></trkpt><trkpt lat="43.62230107187741" lon="11.320715373178958"><ele>332.40000000000003</ele><time>2026-04-04T16:43:57.999Z</time></trkpt><trkpt lat="43.622249664102" lon="11.320821242038951"><ele>334.20000000000005</ele><time>2026-04-04T16:43:58.999Z</time></trkpt><trkpt lat="43.62220568047115" lon="11.320904436910732"><ele>336.0</ele><time>2026-04-04T16:43:59.999Z</time></trkpt><trkpt lat="43.62215517983681" lon="11.320990602444303"><ele>336.0</ele><time>2026-04-04T16:44:00.999Z</time></trkpt><trkpt lat="43.622097660655875" lon="11.321071218140212"><ele>336.0</ele><time>2026-04-04T16:44:01.999Z</time></trkpt><trkpt lat="43.62204101656919" lon="11.32113072769326"><ele>336.0</ele><time>2026-04-04T16:44:02.999Z</time></trkpt><trkpt lat="43.62197638431283" lon="11.321178523481617"><ele>336.0</ele><time>2026-04-04T16:44:03.999Z</time></trkpt><trkpt lat="43.62191240389874" lon="11.321222608517969"><ele>336.0</ele><time>2026-04-04T16:44:04.999Z</time></trkpt><trkpt lat="43.621851184022816" lon="11.32125660609077"><ele>336.0</ele><time>2026-04-04T16:44:05.999Z</time></trkpt><trkpt lat="43.621761418378895" lon="11.321270375396756"><ele>335.8333333333333</ele><time>2026-04-04T16:44:07.999Z</time></trkpt><trkpt lat="43.621708901009285" lon="11.321154663553697"><ele>335.6666666666667</ele><time>2026-04-04T16:44:09.999Z</time></trkpt><trkpt lat="43.62166964699385" lon="11.32098481244424"><ele>335.5</ele><time>2026-04-04T16:44:11.999Z</time></trkpt><trkpt lat="43.62165476762621" lon="11.320884208334586"><ele>335.33333333333337</ele><time>2026-04-04T16:44:12.999Z</time></trkpt><trkpt lat="43.62161750830093" lon="11.320809767873197"><ele>335.1666666666667</ele><time>2026-04-04T16:44:13.999Z</time></trkpt><trkpt lat="43.62157037766572" lon="11.320741402423767"><ele>335.0</ele><time>2026-04-04T16:44:14.999Z</time></trkpt><trkpt lat="43.62150924570359" lon="11.320696179489914"><ele>335.0</ele><time>2026-04-04T16:44:15.999Z</time></trkpt><trkpt lat="43.621444028864985" lon="11.320671477882142"><ele>335.0</ele><time>2026-04-04T16:44:16.999Z</time></trkpt><trkpt lat="43.62131627789486" lon="11.320681331006787"><ele>335.0</ele><time>2026-04-04T16:44:18.999Z</time></trkpt><trkpt lat="43.62124263925406" lon="11.320674380928914"><ele>335.0</ele><time>2026-04-04T16:44:19.999Z</time></trkpt><trkpt lat="43.6211776381856" lon="11.320683892497328"><ele>335.0</ele><time>2026-04-04T16:44:20.999Z</time></trkpt><trkpt lat="43.62108968918072" lon="11.320687584911534"><ele>335.0</ele><time>2026-04-04T16:44:22.999Z</time></trkpt><trkpt lat="43.62103611807059" lon="11.320538017206779"><ele>336.5</ele><time>2026-04-04T16:44:25Z</time></trkpt><trkpt lat="43.621008267925305" lon="11.32043773010526"><ele>338.0</ele><time>2026-04-04T16:44:26Z</time></trkpt><trkpt lat="43.62097765901602" lon="11.320344640422316"><ele>339.5</ele><time>2026-04-04T16:44:27Z</time></trkpt><trkpt lat="43.62093869765619" lon="11.320254926702546"><ele>341.0</ele><time>2026-04-04T16:44:28Z</time></trkpt><trkpt lat="43.620896973586234" lon="11.320144120762828"><ele>342.5</ele><time>2026-04-04T16:44:29Z</time></trkpt><trkpt lat="43.620869610038454" lon="11.320055283665837"><ele>344.0</ele><time>2026-04-04T16:44:30Z</time></trkpt><trkpt lat="43.620839809968054" lon="11.319966286155733"><ele>344.0</ele><time>2026-04-04T16:44:31Z</time></trkpt><trkpt lat="43.62079676628338" lon="11.319816221197378"><ele>344.0</ele><time>2026-04-04T16:44:33Z</time></trkpt><trkpt lat="43.6207842651094" lon="11.319706332662058"><ele>344.0</ele><time>2026-04-04T16:44:34Z</time></trkpt><trkpt lat="43.62077055414075" lon="11.319609602224272"><ele>344.0</ele><time>2026-04-04T16:44:35Z</time></trkpt><trkpt lat="43.62074753076557" lon="11.319512111175378"><ele>344.0</ele><time>2026-04-04T16:44:36Z</time></trkpt><trkpt lat="43.62072630391338" lon="11.319414207466796"><ele>344.0</ele><time>2026-04-04T16:44:37Z</time></trkpt><trkpt lat="43.62070136953785" lon="11.319318096695026"><ele>343.1666666666667</ele><time>2026-04-04T16:44:38Z</time></trkpt><trkpt lat="43.62066928543931" lon="11.319228348795026"><ele>342.33333333333337</ele><time>2026-04-04T16:44:39Z</time></trkpt><trkpt lat="43.62064452836709" lon="11.319144140924866"><ele>341.5</ele><time>2026-04-04T16:44:40Z</time></trkpt><trkpt lat="43.62060375423528" lon="11.31900570122845"><ele>340.6666666666667</ele><time>2026-04-04T16:44:42Z</time></trkpt><trkpt lat="43.62055896311814" lon="11.318909885183922"><ele>339.8333333333333</ele><time>2026-04-04T16:44:43Z</time></trkpt><trkpt lat="43.620518135313965" lon="11.318808619448147"><ele>339.0</ele><time>2026-04-04T16:44:44Z</time></trkpt><trkpt lat="43.620477207883475" lon="11.318728309591977"><ele>339.6666666666667</ele><time>2026-04-04T16:44:45Z</time></trkpt><trkpt lat="43.62043159790405" lon="11.31864970737214"><ele>340.3333333333333</ele><time>2026-04-04T16:44:46Z</time></trkpt><trkpt lat="43.62037843860741" lon="11.318574965507475"><ele>341.0</ele><time>2026-04-04T16:44:47Z</time></trkpt><trkpt lat="43.620327865465114" lon="11.31846636283237"><ele>341.66666666666663</ele><time>2026-04-04T16:44:49Z</time></trkpt><trkpt lat="43.620241389646814" lon="11.318473050136486"><ele>342.3333333333333</ele><time>2026-04-04T16:44:52Z</time></trkpt><trkpt lat="43.62018639966502" lon="11.318586008872051"><ele>343.0</ele><time>2026-04-04T16:44:54Z</time></trkpt><trkpt lat="43.620149781629415" lon="11.318663185783082"><ele>343.0</ele><time>2026-04-04T16:44:55Z</time></trkpt><trkpt lat="43.620107842899856" lon="11.318751680064636"><ele>343.0</ele><time>2026-04-04T16:44:56Z</time></trkpt><trkpt lat="43.62006076809228" lon="11.318843420881107"><ele>343.0</ele><time>2026-04-04T16:44:57Z</time></trkpt><trkpt lat="43.62001529762237" lon="11.318938589013097"><ele>343.0</ele><time>2026-04-04T16:44:58Z</time></trkpt><trkpt lat="43.6199701251514" lon="11.319034501028812"><ele>343.0</ele><time>2026-04-04T16:44:59Z</time></trkpt><trkpt lat="43.61991947244315" lon="11.319127690424699"><ele>343.0</ele><time>2026-04-04T16:45:00Z</time></trkpt><trkpt lat="43.61986862590334" lon="11.319214045932934"><ele>344.5</ele><time>2026-04-04T16:45:01Z</time></trkpt><trkpt lat="43.61982064059548" lon="11.31930127078506"><ele>346.0</ele><time>2026-04-04T16:45:02Z</time></trkpt><trkpt lat="43.619779679258734" lon="11.319375879628145"><ele>347.5</ele><time>2026-04-04T16:45:03Z</time></trkpt><trkpt lat="43.61973496723567" lon="11.319450702123277"><ele>349.0</ele><time>2026-04-04T16:45:04Z</time></trkpt><trkpt lat="43.61962736171385" lon="11.319505576500225"><ele>350.5</ele><time>2026-04-04T16:45:06Z</time></trkpt><trkpt lat="43.619566274193225" lon="11.31954209639012"><ele>352.0</ele><time>2026-04-04T16:45:07Z</time></trkpt><trkpt lat="43.61944604308391" lon="11.31950795169783"><ele>352.8333333333333</ele><time>2026-04-04T16:45:08Z</time></trkpt><trkpt lat="43.619364389398626" lon="11.319511598855753"><ele>353.66666666666663</ele><time>2026-04-04T16:45:09Z</time></trkpt><trkpt lat="43.61928458280492" lon="11.31953105316949"><ele>354.5</ele><time>2026-04-04T16:45:10Z</time></trkpt><trkpt lat="43.61921052945231" lon="11.319545006793136"><ele>355.3333333333333</ele><time>2026-04-04T16:45:11Z</time></trkpt><trkpt lat="43.61914422659482" lon="11.319557238457893"><ele>356.1666666666667</ele><time>2026-04-04T16:45:12Z</time></trkpt><trkpt lat="43.619032194156304" lon="11.319546182871587"><ele>357.0</ele><time>2026-04-04T16:45:14Z</time></trkpt><trkpt lat="43.61891516310642" lon="11.319371471252374"><ele>357.0</ele><time>2026-04-04T16:45:16Z</time></trkpt><trkpt lat="43.618837094938854" lon="11.319280926612882"><ele>357.0</ele><time>2026-04-04T16:45:17Z</time></trkpt><trkpt lat="43.61875439903438" lon="11.31920531339408"><ele>357.0</ele><time>2026-04-04T16:45:18Z</time></trkpt><trkpt lat="43.61866896275579" lon="11.319099485757848"><ele>357.0</ele><time>2026-04-04T16:45:19Z</time></trkpt><trkpt lat="43.618583533706875" lon="11.318988800496102"><ele>357.0</ele><time>2026-04-04T16:45:20Z</time></trkpt><trkpt lat="43.61849375654804" lon="11.318879024327572"><ele>358.0</ele><time>2026-04-04T16:45:21Z</time></trkpt><trkpt lat="43.618419024304096" lon="11.318771544898445"><ele>359.0</ele><time>2026-04-04T16:45:22Z</time></trkpt><trkpt lat="43.61834984624524" lon="11.318665161580958"><ele>360.0</ele><time>2026-04-04T16:45:23Z</time></trkpt><trkpt lat="43.618286059081925" lon="11.318565240803634"><ele>361.0</ele><time>2026-04-04T16:45:24Z</time></trkpt><trkpt lat="43.618218601439125" lon="11.318470906644533"><ele>362.0</ele><time>2026-04-04T16:45:25Z</time></trkpt><trkpt lat="43.6181418327114" lon="11.318395215344632"><ele>362.0</ele><time>2026-04-04T16:45:26Z</time></trkpt><trkpt lat="43.6180518181711" lon="11.318329682867125"><ele>362.0</ele><time>2026-04-04T16:45:27Z</time></trkpt><trkpt lat="43.61794836599503" lon="11.318267915502402"><ele>362.0</ele><time>2026-04-04T16:45:28Z</time></trkpt><trkpt lat="43.617839777213774" lon="11.318203348907149"><ele>362.0</ele><time>2026-04-04T16:45:29Z</time></trkpt><trkpt lat="43.61772734566115" lon="11.318112449981053"><ele>361.75</ele><time>2026-04-04T16:45:30Z</time></trkpt><trkpt lat="43.617613947695425" lon="11.31799430330563"><ele>361.5</ele><time>2026-04-04T16:45:31Z</time></trkpt><trkpt lat="43.617502055894576" lon="11.317903739338373"><ele>361.25</ele><time>2026-04-04T16:45:32Z</time></trkpt><trkpt lat="43.617407356440125" lon="11.317830848046626"><ele>361.0</ele><time>2026-04-04T16:45:33Z</time></trkpt><trkpt lat="43.6173205722195" lon="11.317767805730231"><ele>361.0</ele><time>2026-04-04T16:45:34Z</time></trkpt><trkpt lat="43.61723690741651" lon="11.317743643960602"><ele>361.0</ele><time>2026-04-04T16:45:35Z</time></trkpt><trkpt lat="43.61715719081984" lon="11.317696055957562"><ele>361.0</ele><time>2026-04-04T16:45:36Z</time></trkpt><trkpt lat="43.61708227107643" lon="11.317655400829286"><ele>361.0</ele><time>2026-04-04T16:45:37Z</time></trkpt><trkpt lat="43.617020210268066" lon="11.31760788400706"><ele>361.0</ele><time>2026-04-04T16:45:38Z</time></trkpt><trkpt lat="43.616963378456376" lon="11.317518997334965"><ele>361.0</ele><time>2026-04-04T16:45:39Z</time></trkpt><trkpt lat="43.61688299050488" lon="11.317451653172084"><ele>360.6</ele><time>2026-04-04T16:45:40Z</time></trkpt><trkpt lat="43.616810545039634" lon="11.317361787937614"><ele>360.20000000000005</ele><time>2026-04-04T16:45:41Z</time></trkpt><trkpt lat="43.616729465921" lon="11.317254935710015"><ele>359.79999999999995</ele><time>2026-04-04T16:45:42Z</time></trkpt><trkpt lat="43.616650240030076" lon="11.317148696730417"><ele>359.4</ele><time>2026-04-04T16:45:43Z</time></trkpt><trkpt lat="43.616577380493474" lon="11.317044080067795"><ele>359.0</ele><time>2026-04-04T16:45:44Z</time></trkpt><trkpt lat="43.61651335252442" lon="11.3169510769871"><ele>359.0</ele><time>2026-04-04T16:45:44.999Z</time></trkpt><trkpt lat="43.61647077568813" lon="11.316852067046081"><ele>359.0</ele><time>2026-04-04T16:45:45.999Z</time></trkpt><trkpt lat="43.61640744083878" lon="11.316772041311422"><ele>359.0</ele><time>2026-04-04T16:45:46.999Z</time></trkpt><trkpt lat="43.61634248500214" lon="11.316711665728883"><ele>359.0</ele><time>2026-04-04T16:45:47.999Z</time></trkpt><trkpt lat="43.616298301902134" lon="11.316610058284146"><ele>359.0</ele><time>2026-04-04T16:45:48.999Z</time></trkpt><trkpt lat="43.61622839730353" lon="11.316510185847786"><ele>359.0</ele><time>2026-04-04T16:45:49.999Z</time></trkpt><trkpt lat="43.61614981964883" lon="11.316399401493237"><ele>358.83333333333337</ele><time>2026-04-04T16:45:50.999Z</time></trkpt><trkpt lat="43.616067275618626" lon="11.316287665849401"><ele>358.6666666666667</ele><time>2026-04-04T16:45:51.999Z</time></trkpt><trkpt lat="43.6159854742556" lon="11.316217867905893"><ele>358.5</ele><time>2026-04-04T16:45:52.999Z</time></trkpt><trkpt lat="43.61592233402798" lon="11.316135427208309"><ele>358.3333333333333</ele><time>2026-04-04T16:45:53.999Z</time></trkpt><trkpt lat="43.61586349960464" lon="11.316061239138351"><ele>358.16666666666663</ele><time>2026-04-04T16:45:54.999Z</time></trkpt><trkpt lat="43.61580546387385" lon="11.31600909017135"><ele>358.0</ele><time>2026-04-04T16:45:55.999Z</time></trkpt><trkpt lat="43.61571539115997" lon="11.315903023625072"><ele>358.0</ele><time>2026-04-04T16:45:57.999Z</time></trkpt><trkpt lat="43.61572132749248" lon="11.315753384932309"><ele>358.0</ele><time>2026-04-04T16:45:59.999Z</time></trkpt><trkpt lat="43.615743350942715" lon="11.31565892662549"><ele>358.0</ele><time>2026-04-04T16:46:00.999Z</time></trkpt><trkpt lat="43.615755856377" lon="11.315536936621964"><ele>358.0</ele><time>2026-04-04T16:46:01.999Z</time></trkpt><trkpt lat="43.615785594443274" lon="11.315437611928077"><ele>358.0</ele><time>2026-04-04T16:46:02.999Z</time></trkpt><trkpt lat="43.61580982988314" lon="11.31532393391097"><ele>358.0</ele><time>2026-04-04T16:46:03.999Z</time></trkpt><trkpt lat="43.61582300349363" lon="11.31522240814503"><ele>357.5</ele><time>2026-04-04T16:46:04.999Z</time></trkpt><trkpt lat="43.61582366466177" lon="11.315107209771831"><ele>357.0</ele><time>2026-04-04T16:46:05.999Z</time></trkpt><trkpt lat="43.615843255611146" lon="11.314995284109976"><ele>356.5</ele><time>2026-04-04T16:46:06.999Z</time></trkpt><trkpt lat="43.615838449847885" lon="11.314904413540198"><ele>356.0</ele><time>2026-04-04T16:46:07.999Z</time></trkpt><trkpt lat="43.61581698834472" lon="11.31480762581652"><ele>355.5</ele><time>2026-04-04T16:46:08.999Z</time></trkpt><trkpt lat="43.615779651848676" lon="11.314721681894547"><ele>355.0</ele><time>2026-04-04T16:46:09.999Z</time></trkpt><trkpt lat="43.61570864421476" lon="11.314658037668742"><ele>354.2</ele><time>2026-04-04T16:46:10.999Z</time></trkpt><trkpt lat="43.615679546665135" lon="11.314560373004024"><ele>353.4</ele><time>2026-04-04T16:46:11.999Z</time></trkpt><trkpt lat="43.61564087406633" lon="11.314390540008679"><ele>352.6</ele><time>2026-04-04T16:46:13.999Z</time></trkpt><trkpt lat="43.615649429590434" lon="11.314278811490363"><ele>351.8</ele><time>2026-04-04T16:46:14.999Z</time></trkpt><trkpt lat="43.615654602172846" lon="11.314124304364373"><ele>351.0</ele><time>2026-04-04T16:46:15.999Z</time></trkpt><trkpt lat="43.61564594738085" lon="11.313995498416654"><ele>350.5</ele><time>2026-04-04T16:46:16.999Z</time></trkpt><trkpt lat="43.61565031683067" lon="11.313868712553093"><ele>350.0</ele><time>2026-04-04T16:46:17.999Z</time></trkpt><trkpt lat="43.61565655560385" lon="11.313735221567802"><ele>349.5</ele><time>2026-04-04T16:46:18.999Z</time></trkpt><trkpt lat="43.61565541306668" lon="11.313600184819025"><ele>349.0</ele><time>2026-04-04T16:46:19.999Z</time></trkpt><trkpt lat="43.61565541345629" lon="11.313496671773382"><ele>348.5</ele><time>2026-04-04T16:46:20.999Z</time></trkpt><trkpt lat="43.61566846966967" lon="11.313384998361375"><ele>348.0</ele><time>2026-04-04T16:46:21.999Z</time></trkpt><trkpt lat="43.61564787212154" lon="11.313267775843704"><ele>348.0</ele><time>2026-04-04T16:46:22.999Z</time></trkpt><trkpt lat="43.615611429754296" lon="11.313158266581079"><ele>348.0</ele><time>2026-04-04T16:46:23.999Z</time></trkpt><trkpt lat="43.61556960165888" lon="11.313036621545265"><ele>348.0</ele><time>2026-04-04T16:46:24.999Z</time></trkpt><trkpt lat="43.61552753574938" lon="11.312913615116182"><ele>348.0</ele><time>2026-04-04T16:46:25.999Z</time></trkpt><trkpt lat="43.61549239208261" lon="11.31280443679231"><ele>348.0</ele><time>2026-04-04T16:46:26.999Z</time></trkpt><trkpt lat="43.61547066695641" lon="11.312707789123225"><ele>348.0</ele><time>2026-04-04T16:46:27.999Z</time></trkpt><trkpt lat="43.61546184912995" lon="11.31260784433244"><ele>347.3333333333333</ele><time>2026-04-04T16:46:28.999Z</time></trkpt><trkpt lat="43.61545055596121" lon="11.312483856661526"><ele>346.6666666666667</ele><time>2026-04-04T16:46:29.999Z</time></trkpt><trkpt lat="43.6154398379853" lon="11.312369742551478"><ele>346.0</ele><time>2026-04-04T16:46:31Z</time></trkpt><trkpt lat="43.61542550881545" lon="11.31223466902863"><ele>345.33333333333337</ele><time>2026-04-04T16:46:32Z</time></trkpt><trkpt lat="43.61541371411044" lon="11.312123486585334"><ele>344.6666666666667</ele><time>2026-04-04T16:46:33Z</time></trkpt><trkpt lat="43.61540085874489" lon="11.312006238372753"><ele>344.0</ele><time>2026-04-04T16:46:34Z</time></trkpt><trkpt lat="43.615387298528525" lon="11.311885243969483"><ele>342.83333333333337</ele><time>2026-04-04T16:46:35Z</time></trkpt><trkpt lat="43.61537397989487" lon="11.311769867695979"><ele>341.6666666666667</ele><time>2026-04-04T16:46:36Z</time></trkpt><trkpt lat="43.615360993286444" lon="11.311669901646042"><ele>340.5</ele><time>2026-04-04T16:46:37Z</time></trkpt><trkpt lat="43.615348739966834" lon="11.311583069978738"><ele>339.3333333333333</ele><time>2026-04-04T16:46:38Z</time></trkpt><trkpt lat="43.615322730649034" lon="11.311410520907069"><ele>338.16666666666663</ele><time>2026-04-04T16:46:40Z</time></trkpt><trkpt lat="43.615295160822605" lon="11.311330804579065"><ele>337.0</ele><time>2026-04-04T16:46:41Z</time></trkpt><trkpt lat="43.61528787303145" lon="11.31120210336884"><ele>334.75</ele><time>2026-04-04T16:46:43Z</time></trkpt><trkpt lat="43.61526802537257" lon="11.311069383327615"><ele>332.5</ele><time>2026-04-04T16:46:45Z</time></trkpt><trkpt lat="43.61525374169192" lon="11.310963407338576"><ele>330.25</ele><time>2026-04-04T16:46:47Z</time></trkpt><trkpt lat="43.615226029355924" lon="11.310873337968902"><ele>328.0</ele><time>2026-04-04T16:46:50Z</time></trkpt><trkpt lat="43.615021887213814" lon="11.310924792693834"><ele>327.99999999999994</ele><time>2026-04-04T16:46:51Z</time></trkpt><trkpt lat="43.61495739321783" lon="11.31091637145742"><ele>328.0</ele><time>2026-04-04T16:46:52Z</time></trkpt><trkpt lat="43.614891726041144" lon="11.310909729056078"><ele>328.0</ele><time>2026-04-04T16:46:53Z</time></trkpt><trkpt lat="43.61482440978957" lon="11.310906103186479"><ele>328.0</ele><time>2026-04-04T16:46:54Z</time></trkpt><trkpt lat="43.6147558228821" lon="11.310908187443475"><ele>328.0</ele><time>2026-04-04T16:46:55Z</time></trkpt><trkpt lat="43.61468897851117" lon="11.31091043617752"><ele>327.99999999999994</ele><time>2026-04-04T16:46:56Z</time></trkpt><trkpt lat="43.61460907611894" lon="11.310909801553548"><ele>328.0</ele><time>2026-04-04T16:46:57Z</time></trkpt><trkpt lat="43.61453976386524" lon="11.310914803360658"><ele>325.8333333333333</ele><time>2026-04-04T16:46:58Z</time></trkpt><trkpt lat="43.61447663884367" lon="11.310921169381638"><ele>323.66666666666663</ele><time>2026-04-04T16:46:59Z</time></trkpt><trkpt lat="43.61434664563481" lon="11.310897869078401"><ele>321.5</ele><time>2026-04-04T16:47:01Z</time></trkpt><trkpt lat="43.614266839765655" lon="11.310896598840552"><ele>319.3333333333333</ele><time>2026-04-04T16:47:02Z</time></trkpt><trkpt lat="43.614182553633" lon="11.310885278552801"><ele>317.1666666666667</ele><time>2026-04-04T16:47:03Z</time></trkpt><trkpt lat="43.6141117919215" lon="11.310879226185333"><ele>315.0</ele><time>2026-04-04T16:47:04Z</time></trkpt><trkpt lat="43.61403346699799" lon="11.310878131766467"><ele>315.0</ele><time>2026-04-04T16:47:05Z</time></trkpt><trkpt lat="43.613956402153285" lon="11.310871194234492"><ele>315.0</ele><time>2026-04-04T16:47:06Z</time></trkpt><trkpt lat="43.61382870674943" lon="11.310877941346785"><ele>315.0</ele><time>2026-04-04T16:47:08Z</time></trkpt><trkpt lat="43.613762313241864" lon="11.310897973755356"><ele>315.0</ele><time>2026-04-04T16:47:09Z</time></trkpt><trkpt lat="43.613694044098416" lon="11.310897217574848"><ele>315.0</ele><time>2026-04-04T16:47:10Z</time></trkpt><trkpt lat="43.61362634750769" lon="11.310850597762926"><ele>315.0</ele><time>2026-04-04T16:47:11Z</time></trkpt><trkpt lat="43.61355717623068" lon="11.310798445676678"><ele>312.3333333333333</ele><time>2026-04-04T16:47:12Z</time></trkpt><trkpt lat="43.61348642855608" lon="11.31076056260033"><ele>309.6666666666667</ele><time>2026-04-04T16:47:13Z</time></trkpt><trkpt lat="43.61341170145734" lon="11.310722701342556"><ele>307.0</ele><time>2026-04-04T16:47:14Z</time></trkpt><trkpt lat="43.613331886122246" lon="11.310693383792259"><ele>304.33333333333337</ele><time>2026-04-04T16:47:15Z</time></trkpt><trkpt lat="43.61324573334105" lon="11.310655183298422"><ele>301.6666666666667</ele><time>2026-04-04T16:47:16Z</time></trkpt><trkpt lat="43.61314882238919" lon="11.310600983893796"><ele>299.0</ele><time>2026-04-04T16:47:17Z</time></trkpt><trkpt lat="43.61305464622533" lon="11.310549042674007"><ele>298.33333333333337</ele><time>2026-04-04T16:47:18Z</time></trkpt><trkpt lat="43.61297126604927" lon="11.310502938024735"><ele>297.6666666666667</ele><time>2026-04-04T16:47:19Z</time></trkpt><trkpt lat="43.61288721368123" lon="11.310459732485626"><ele>297.0</ele><time>2026-04-04T16:47:20Z</time></trkpt><trkpt lat="43.6128011627071" lon="11.31042070788554"><ele>296.3333333333333</ele><time>2026-04-04T16:47:21Z</time></trkpt><trkpt lat="43.61272359619188" lon="11.310379222841327"><ele>295.66666666666663</ele><time>2026-04-04T16:47:22Z</time></trkpt><trkpt lat="43.612653299379886" lon="11.310354527567641"><ele>295.0</ele><time>2026-04-04T16:47:23Z</time></trkpt><trkpt lat="43.61253417717452" lon="11.310320124267365"><ele>294.0</ele><time>2026-04-04T16:47:25Z</time></trkpt><trkpt lat="43.612471447157624" lon="11.310308803247247"><ele>293.0</ele><time>2026-04-04T16:47:26Z</time></trkpt><trkpt lat="43.61239508070582" lon="11.310271301634577"><ele>292.0</ele><time>2026-04-04T16:47:27Z</time></trkpt><trkpt lat="43.61231963168201" lon="11.310195567809348"><ele>291.0</ele><time>2026-04-04T16:47:28Z</time></trkpt><trkpt lat="43.612223577961096" lon="11.310109974414353"><ele>290.0</ele><time>2026-04-04T16:47:29Z</time></trkpt><trkpt lat="43.61211025019572" lon="11.310027017954473"><ele>288.75</ele><time>2026-04-04T16:47:30Z</time></trkpt><trkpt lat="43.61198625772499" lon="11.30993507848944"><ele>287.5</ele><time>2026-04-04T16:47:31Z</time></trkpt><trkpt lat="43.61188805466659" lon="11.309851299337625"><ele>286.25</ele><time>2026-04-04T16:47:32Z</time></trkpt><trkpt lat="43.61180229444424" lon="11.309773837432905"><ele>285.0</ele><time>2026-04-04T16:47:33Z</time></trkpt><trkpt lat="43.611736742456856" lon="11.309680925881283"><ele>285.0</ele><time>2026-04-04T16:47:34Z</time></trkpt><trkpt lat="43.61168224254385" lon="11.309572692450407"><ele>285.0</ele><time>2026-04-04T16:47:35Z</time></trkpt><trkpt lat="43.611632834457836" lon="11.309461998411736"><ele>285.0</ele><time>2026-04-04T16:47:36Z</time></trkpt><trkpt lat="43.61156916761005" lon="11.309377000378927"><ele>285.0</ele><time>2026-04-04T16:47:37Z</time></trkpt><trkpt lat="43.61150325408872" lon="11.309329252063419"><ele>285.0</ele><time>2026-04-04T16:47:38Z</time></trkpt><trkpt lat="43.61142702930299" lon="11.309310468853031"><ele>285.0</ele><time>2026-04-04T16:47:39Z</time></trkpt><trkpt lat="43.61136316039466" lon="11.309313830890256"><ele>285.0</ele><time>2026-04-04T16:47:40Z</time></trkpt><trkpt lat="43.611300348655064" lon="11.309302894788665"><ele>285.0</ele><time>2026-04-04T16:47:41Z</time></trkpt><trkpt lat="43.61123372330774" lon="11.309249826461588"><ele>285.0</ele><time>2026-04-04T16:47:42Z</time></trkpt><trkpt lat="43.6111675992159" lon="11.309139150838703"><ele>285.0</ele><time>2026-04-04T16:47:43Z</time></trkpt><trkpt lat="43.61109807223494" lon="11.309090123803589"><ele>285.0</ele><time>2026-04-04T16:47:44Z</time></trkpt><trkpt lat="43.61102656886731" lon="11.309042021890015"><ele>285.0</ele><time>2026-04-04T16:47:44.999Z</time></trkpt><trkpt lat="43.61095239483608" lon="11.309008145190129"><ele>285.3333333333333</ele><time>2026-04-04T16:47:45.999Z</time></trkpt><trkpt lat="43.610891440194045" lon="11.308955372152976"><ele>285.6666666666667</ele><time>2026-04-04T16:47:46.999Z</time></trkpt><trkpt lat="43.61080256872051" lon="11.308922942666388"><ele>286.0</ele><time>2026-04-04T16:47:47.999Z</time></trkpt><trkpt lat="43.61073228530622" lon="11.308874512312828"><ele>286.33333333333337</ele><time>2026-04-04T16:47:48.999Z</time></trkpt><trkpt lat="43.610651445643924" lon="11.30883647134932"><ele>286.6666666666667</ele><time>2026-04-04T16:47:49.999Z</time></trkpt><trkpt lat="43.610568728981626" lon="11.308802299368395"><ele>287.0</ele><time>2026-04-04T16:47:50.999Z</time></trkpt><trkpt lat="43.610499067891986" lon="11.308762921523499"><ele>286.5</ele><time>2026-04-04T16:47:51.999Z</time></trkpt><trkpt lat="43.61041298140992" lon="11.308703431956388"><ele>286.0</ele><time>2026-04-04T16:47:52.999Z</time></trkpt><trkpt lat="43.61034047060388" lon="11.308634539810681"><ele>285.5</ele><time>2026-04-04T16:47:53.999Z</time></trkpt><trkpt lat="43.61026378167169" lon="11.308594141682812"><ele>285.0</ele><time>2026-04-04T16:47:54.999Z</time></trkpt><trkpt lat="43.61019055212773" lon="11.308578879976336"><ele>284.5</ele><time>2026-04-04T16:47:55.999Z</time></trkpt><trkpt lat="43.61010810254251" lon="11.308538175579963"><ele>284.0</ele><time>2026-04-04T16:47:56.999Z</time></trkpt><trkpt lat="43.610019658711046" lon="11.308534879943702"><ele>284.0</ele><time>2026-04-04T16:47:57.999Z</time></trkpt><trkpt lat="43.60994072607699" lon="11.308514052397088"><ele>284.0</ele><time>2026-04-04T16:47:58.999Z</time></trkpt><trkpt lat="43.60986993066762" lon="11.308472892582522"><ele>284.0</ele><time>2026-04-04T16:47:59.999Z</time></trkpt><trkpt lat="43.609771058576236" lon="11.308444015042037"><ele>284.0</ele><time>2026-04-04T16:48:00.999Z</time></trkpt><trkpt lat="43.60965959171671" lon="11.30841015022847"><ele>284.0</ele><time>2026-04-04T16:48:01.999Z</time></trkpt><trkpt lat="43.60955172762971" lon="11.308375957201013"><ele>283.59999999999997</ele><time>2026-04-04T16:48:02.999Z</time></trkpt><trkpt lat="43.60945962456856" lon="11.308310076534278"><ele>283.2</ele><time>2026-04-04T16:48:03.999Z</time></trkpt><trkpt lat="43.6093767223144" lon="11.308248405602036"><ele>282.79999999999995</ele><time>2026-04-04T16:48:04.999Z</time></trkpt><trkpt lat="43.609302762120464" lon="11.30819162370906"><ele>282.4</ele><time>2026-04-04T16:48:05.999Z</time></trkpt><trkpt lat="43.60923122316814" lon="11.308132672957031"><ele>282.0</ele><time>2026-04-04T16:48:06.999Z</time></trkpt><trkpt lat="43.60915954159105" lon="11.30806807986178"><ele>280.42857142857144</ele><time>2026-04-04T16:48:07.999Z</time></trkpt><trkpt lat="43.60910631319317" lon="11.307980009031414"><ele>278.85714285714283</ele><time>2026-04-04T16:48:08.999Z</time></trkpt><trkpt lat="43.60905617989405" lon="11.30792601559319"><ele>277.2857142857143</ele><time>2026-04-04T16:48:09.999Z</time></trkpt><trkpt lat="43.60899391017227" lon="11.307906531597508"><ele>275.7142857142857</ele><time>2026-04-04T16:48:10.999Z</time></trkpt><trkpt lat="43.608925468235014" lon="11.307899674603958"><ele>274.14285714285717</ele><time>2026-04-04T16:48:11.999Z</time></trkpt><trkpt lat="43.60885401039663" lon="11.307935040929028"><ele>272.57142857142856</ele><time>2026-04-04T16:48:12.999Z</time></trkpt><trkpt lat="43.60878510376906" lon="11.30800130761173"><ele>271.0</ele><time>2026-04-04T16:48:13.999Z</time></trkpt><trkpt lat="43.60871296098084" lon="11.308048335049829"><ele>270.66666666666663</ele><time>2026-04-04T16:48:14.999Z</time></trkpt><trkpt lat="43.60864563874249" lon="11.308107537879174"><ele>270.3333333333333</ele><time>2026-04-04T16:48:15.999Z</time></trkpt><trkpt lat="43.60858371810928" lon="11.308128932848104"><ele>270.0</ele><time>2026-04-04T16:48:16.999Z</time></trkpt><trkpt lat="43.60848290648679" lon="11.308120468751362"><ele>269.6666666666667</ele><time>2026-04-04T16:48:18.999Z</time></trkpt><trkpt lat="43.60846676255338" lon="11.30802128526744"><ele>269.33333333333337</ele><time>2026-04-04T16:48:19.999Z</time></trkpt><trkpt lat="43.60847176203745" lon="11.307923254226875"><ele>269.0</ele><time>2026-04-04T16:48:20.999Z</time></trkpt><trkpt lat="43.60844558403062" lon="11.307808249392844"><ele>268.2</ele><time>2026-04-04T16:48:21.999Z</time></trkpt><trkpt lat="43.60841507366736" lon="11.30773171772884"><ele>267.4</ele><time>2026-04-04T16:48:22.999Z</time></trkpt><trkpt lat="43.6083524008674" lon="11.30762458974741"><ele>266.6</ele><time>2026-04-04T16:48:24.999Z</time></trkpt><trkpt lat="43.608270179605675" lon="11.307536207596616"><ele>265.8</ele><time>2026-04-04T16:48:26.999Z</time></trkpt><trkpt lat="43.6081525151671" lon="11.307551409270328"><ele>265.0</ele><time>2026-04-04T16:48:28.999Z</time></trkpt><trkpt lat="43.6080434652056" lon="11.307507005993712"><ele>265.0</ele><time>2026-04-04T16:48:30.999Z</time></trkpt><trkpt lat="43.607946279078035" lon="11.307448773970544"><ele>265.0</ele><time>2026-04-04T16:48:32.999Z</time></trkpt><trkpt lat="43.60783626571441" lon="11.307458751751149"><ele>265.0</ele><time>2026-04-04T16:48:34.999Z</time></trkpt><trkpt lat="43.60778360828222" lon="11.307591533971385"><ele>265.0</ele><time>2026-04-04T16:48:37Z</time></trkpt><trkpt lat="43.60773585245112" lon="11.307684604352213"><ele>265.0</ele><time>2026-04-04T16:48:39Z</time></trkpt><trkpt lat="43.60770253196274" lon="11.307774887773414"><ele>261.4</ele><time>2026-04-04T16:48:41Z</time></trkpt><trkpt lat="43.60761250065733" lon="11.307804779353596"><ele>257.8</ele><time>2026-04-04T16:48:45Z</time></trkpt><trkpt lat="43.607473866918276" lon="11.307763601600735"><ele>254.2</ele><time>2026-04-04T16:48:47Z</time></trkpt><trkpt lat="43.60740394899347" lon="11.307703343313952"><ele>250.6</ele><time>2026-04-04T16:48:48Z</time></trkpt><trkpt lat="43.60731087976699" lon="11.307660514059032"><ele>247.0</ele><time>2026-04-04T16:48:49Z</time></trkpt><trkpt lat="43.6072266356903" lon="11.30762962291466"><ele>247.0</ele><time>2026-04-04T16:48:50Z</time></trkpt><trkpt lat="43.607164415212516" lon="11.30758987242937"><ele>247.0</ele><time>2026-04-04T16:48:51Z</time></trkpt><trkpt lat="43.60709825662261" lon="11.307534940580995"><ele>247.0</ele><time>2026-04-04T16:48:52Z</time></trkpt><trkpt lat="43.60702630487955" lon="11.30751280253106"><ele>247.0</ele><time>2026-04-04T16:48:53Z</time></trkpt><trkpt lat="43.60696541500927" lon="11.30747633272968"><ele>247.0</ele><time>2026-04-04T16:48:54Z</time></trkpt><trkpt lat="43.60689383540585" lon="11.307433715098272"><ele>247.0</ele><time>2026-04-04T16:48:55Z</time></trkpt><trkpt lat="43.60682978688466" lon="11.307374883173601"><ele>247.0</ele><time>2026-04-04T16:48:56Z</time></trkpt><trkpt lat="43.60675595517161" lon="11.307351800981921"><ele>243.99999999999997</ele><time>2026-04-04T16:48:57Z</time></trkpt><trkpt lat="43.606699708535075" lon="11.307291294305845"><ele>241.0</ele><time>2026-04-04T16:48:58Z</time></trkpt><trkpt lat="43.606643812773534" lon="11.307250231896134"><ele>238.0</ele><time>2026-04-04T16:48:59Z</time></trkpt><trkpt lat="43.60656976986646" lon="11.30720939493399"><ele>235.0</ele><time>2026-04-04T16:49:01Z</time></trkpt><trkpt lat="43.60662054355963" lon="11.307101412281325"><ele>231.99999999999997</ele><time>2026-04-04T16:49:03Z</time></trkpt><trkpt lat="43.60664952714522" lon="11.306996919700975"><ele>229.0</ele><time>2026-04-04T16:49:04Z</time></trkpt><trkpt lat="43.606694349654916" lon="11.306889018863453"><ele>227.0</ele><time>2026-04-04T16:49:05Z</time></trkpt><trkpt lat="43.606725063548986" lon="11.306793780025739"><ele>227.0</ele><time>2026-04-04T16:49:06Z</time></trkpt><trkpt lat="43.60674922973821" lon="11.306701502772363"><ele>227.0</ele><time>2026-04-04T16:49:07Z</time></trkpt><trkpt lat="43.60679929007632" lon="11.30655095865881"><ele>227.0</ele><time>2026-04-04T16:49:09Z</time></trkpt><trkpt lat="43.60684838711855" lon="11.306449206726587"><ele>227.0</ele><time>2026-04-04T16:49:11Z</time></trkpt></trkseg><trkseg><trkpt lat="43.605963208783244" lon="11.306242105578782"><ele>213.0</ele><time>2026-04-04T17:14:59.798Z</time></trkpt><trkpt lat="43.60592035657303" lon="11.306171859825758"><ele>213.0</ele><time>2026-04-04T17:15:00.798Z</time></trkpt><trkpt lat="43.60585373799119" lon="11.30602118881847"><ele>213.0</ele><time>2026-04-04T17:15:02.797Z</time></trkpt><trkpt lat="43.605816932810335" lon="11.30591505261536"><ele>213.0</ele><time>2026-04-04T17:15:03.999Z</time></trkpt><trkpt lat="43.605787660562804" lon="11.305834605015699"><ele>213.0</ele><time>2026-04-04T17:15:05Z</time></trkpt><trkpt lat="43.60575818757496" lon="11.30575575346276"><ele>213.0</ele><time>2026-04-04T17:15:06Z</time></trkpt><trkpt lat="43.60571284561799" lon="11.305632544208056"><ele>213.0</ele><time>2026-04-04T17:15:08Z</time></trkpt><trkpt lat="43.60566791249341" lon="11.305522383554374"><ele>213.0</ele><time>2026-04-04T17:15:11Z</time></trkpt><trkpt lat="43.60558427569228" lon="11.305531700705817"><ele>213.0</ele><time>2026-04-04T17:15:15Z</time></trkpt><trkpt lat="43.605487924567456" lon="11.305600026270481"><ele>213.0</ele><time>2026-04-04T17:15:16Z</time></trkpt><trkpt lat="43.60540759672809" lon="11.30567997118601"><ele>213.0</ele><time>2026-04-04T17:15:17Z</time></trkpt><trkpt lat="43.60532128764075" lon="11.305764849542152"><ele>212.0</ele><time>2026-04-04T17:15:18Z</time></trkpt><trkpt lat="43.605245188421954" lon="11.305835984609466"><ele>211.0</ele><time>2026-04-04T17:15:19Z</time></trkpt><trkpt lat="43.605170923411045" lon="11.305908587385852"><ele>210.0</ele><time>2026-04-04T17:15:20Z</time></trkpt><trkpt lat="43.60508310765324" lon="11.305981181107821"><ele>209.0</ele><time>2026-04-04T17:15:21Z</time></trkpt><trkpt lat="43.604993507086284" lon="11.306052738193864"><ele>208.0</ele><time>2026-04-04T17:15:22Z</time></trkpt><trkpt lat="43.60490144903652" lon="11.306127310393915"><ele>208.0</ele><time>2026-04-04T17:15:23Z</time></trkpt><trkpt lat="43.604813224749066" lon="11.306197366452091"><ele>208.0</ele><time>2026-04-04T17:15:24Z</time></trkpt><trkpt lat="43.60472709784048" lon="11.306258986655632"><ele>208.0</ele><time>2026-04-04T17:15:26Z</time></trkpt><trkpt lat="43.604608467377744" lon="11.306359542719106"><ele>208.0</ele><time>2026-04-04T17:15:27Z</time></trkpt><trkpt lat="43.6045108751457" lon="11.306444347390324"><ele>208.2</ele><time>2026-04-04T17:15:28Z</time></trkpt><trkpt lat="43.604424042233525" lon="11.30652722288916"><ele>208.4</ele><time>2026-04-04T17:15:29Z</time></trkpt><trkpt lat="43.60435048614528" lon="11.306616279875387"><ele>208.6</ele><time>2026-04-04T17:15:30Z</time></trkpt><trkpt lat="43.6042683814485" lon="11.306747742599375"><ele>208.79999999999998</ele><time>2026-04-04T17:15:31Z</time></trkpt><trkpt lat="43.60421903023401" lon="11.30686489829418"><ele>209.0</ele><time>2026-04-04T17:15:32Z</time></trkpt><trkpt lat="43.604185240389576" lon="11.307002148402564"><ele>209.0</ele><time>2026-04-04T17:15:33Z</time></trkpt><trkpt lat="43.60416383532364" lon="11.307151441151897"><ele>209.0</ele><time>2026-04-04T17:15:34Z</time></trkpt><trkpt lat="43.60415816168329" lon="11.3073024455199"><ele>209.0</ele><time>2026-04-04T17:15:35Z</time></trkpt><trkpt lat="43.60416026794989" lon="11.307443934854861"><ele>209.0</ele><time>2026-04-04T17:15:36Z</time></trkpt><trkpt lat="43.60416643036006" lon="11.30758420063791"><ele>209.0</ele><time>2026-04-04T17:15:37Z</time></trkpt><trkpt lat="43.604164143698824" lon="11.30773591664251"><ele>210.25</ele><time>2026-04-04T17:15:38Z</time></trkpt><trkpt lat="43.60415966284758" lon="11.307888929743065"><ele>211.5</ele><time>2026-04-04T17:15:39Z</time></trkpt><trkpt lat="43.60415562475777" lon="11.308047025279942"><ele>212.75</ele><time>2026-04-04T17:15:40Z</time></trkpt><trkpt lat="43.60413517167347" lon="11.308202943646998"><ele>214.0</ele><time>2026-04-04T17:15:41Z</time></trkpt><trkpt lat="43.6041401326122" lon="11.308364589998634"><ele>214.5</ele><time>2026-04-04T17:15:42Z</time></trkpt><trkpt lat="43.604116200283606" lon="11.30852545712747"><ele>215.0</ele><time>2026-04-04T17:15:43Z</time></trkpt><trkpt lat="43.6040754734017" lon="11.308676019329946"><ele>215.5</ele><time>2026-04-04T17:15:44Z</time></trkpt><trkpt lat="43.604016091240254" lon="11.308817537175623"><ele>216.0</ele><time>2026-04-04T17:15:45Z</time></trkpt><trkpt lat="43.60392689432004" lon="11.308927545083613"><ele>216.0</ele><time>2026-04-04T17:15:46Z</time></trkpt><trkpt lat="43.603863230038066" lon="11.309042153486082"><ele>216.00000000000003</ele><time>2026-04-04T17:15:47Z</time></trkpt><trkpt lat="43.60379107150203" lon="11.30913440099863"><ele>216.00000000000003</ele><time>2026-04-04T17:15:48Z</time></trkpt><trkpt lat="43.60371641184024" lon="11.309210905458412"><ele>216.0</ele><time>2026-04-04T17:15:49Z</time></trkpt><trkpt lat="43.603650495494776" lon="11.309269504358623"><ele>216.0</ele><time>2026-04-04T17:15:50Z</time></trkpt><trkpt lat="43.603651456682414" lon="11.30945482840501"><ele>216.20000000000002</ele><time>2026-04-04T17:15:51Z</time></trkpt><trkpt lat="43.60359845346504" lon="11.30956524728894"><ele>216.40000000000003</ele><time>2026-04-04T17:15:52Z</time></trkpt><trkpt lat="43.603545715370124" lon="11.309704391815378"><ele>216.6</ele><time>2026-04-04T17:15:53Z</time></trkpt><trkpt lat="43.603497624292004" lon="11.309839635060154"><ele>216.8</ele><time>2026-04-04T17:15:54Z</time></trkpt><trkpt lat="43.60345145800576" lon="11.30995950096127"><ele>217.0</ele><time>2026-04-04T17:15:55Z</time></trkpt><trkpt lat="43.603411346217975" lon="11.310083067473322"><ele>217.0</ele><time>2026-04-04T17:15:56Z</time></trkpt><trkpt lat="43.603387358509586" lon="11.310217841006251"><ele>217.0</ele><time>2026-04-04T17:15:57Z</time></trkpt><trkpt lat="43.60338009884956" lon="11.3103642337285"><ele>217.0</ele><time>2026-04-04T17:15:57.999Z</time></trkpt><trkpt lat="43.603384736892885" lon="11.310511102921048"><ele>217.0</ele><time>2026-04-04T17:15:58.999Z</time></trkpt><trkpt lat="43.60338962304885" lon="11.310651254589493"><ele>217.0</ele><time>2026-04-04T17:15:59.999Z</time></trkpt><trkpt lat="43.60339743986119" lon="11.31078869318925"><ele>219.0</ele><time>2026-04-04T17:16:00.999Z</time></trkpt><trkpt lat="43.603427802019866" lon="11.310925555328026"><ele>221.0</ele><time>2026-04-04T17:16:01.999Z</time></trkpt><trkpt lat="43.603495623939885" lon="11.311051476733901"><ele>223.0</ele><time>2026-04-04T17:16:02.999Z</time></trkpt><trkpt lat="43.603560325757485" lon="11.31116952302277"><ele>225.0</ele><time>2026-04-04T17:16:03.999Z</time></trkpt><trkpt lat="43.60361757015696" lon="11.311291144390157"><ele>227.0</ele><time>2026-04-04T17:16:04.999Z</time></trkpt><trkpt lat="43.603667824652206" lon="11.31141221070514"><ele>230.8</ele><time>2026-04-04T17:16:05.999Z</time></trkpt><trkpt lat="43.603714090584205" lon="11.311536539574899"><ele>234.6</ele><time>2026-04-04T17:16:06.999Z</time></trkpt><trkpt lat="43.603755503259634" lon="11.311662094901436"><ele>238.40000000000003</ele><time>2026-04-04T17:16:07.999Z</time></trkpt><trkpt lat="43.603788670986766" lon="11.31179311436132"><ele>242.20000000000002</ele><time>2026-04-04T17:16:08.999Z</time></trkpt><trkpt lat="43.60381403904092" lon="11.311940933326628"><ele>246.0</ele><time>2026-04-04T17:16:09.999Z</time></trkpt><trkpt lat="43.603838881469855" lon="11.312101099917685"><ele>246.0</ele><time>2026-04-04T17:16:10.999Z</time></trkpt><trkpt lat="43.60386132109701" lon="11.31223549416793"><ele>246.00000000000003</ele><time>2026-04-04T17:16:11.999Z</time></trkpt><trkpt lat="43.603902354111774" lon="11.312371059337732"><ele>246.00000000000003</ele><time>2026-04-04T17:16:12.999Z</time></trkpt><trkpt lat="43.60392711746796" lon="11.312504435656399"><ele>246.0</ele><time>2026-04-04T17:16:13.999Z</time></trkpt><trkpt lat="43.60396943446153" lon="11.312617732745863"><ele>246.0</ele><time>2026-04-04T17:16:14.999Z</time></trkpt><trkpt lat="43.60401625503544" lon="11.312717258436866"><ele>247.0</ele><time>2026-04-04T17:16:15.999Z</time></trkpt><trkpt lat="43.60404779183206" lon="11.312814270692543"><ele>248.0</ele><time>2026-04-04T17:16:16.999Z</time></trkpt><trkpt lat="43.604094966777254" lon="11.312874810289912"><ele>249.0</ele><time>2026-04-04T17:16:17.999Z</time></trkpt><trkpt lat="43.60410923454184" lon="11.312967275842853"><ele>250.0</ele><time>2026-04-04T17:16:19.999Z</time></trkpt><trkpt lat="43.604075932100805" lon="11.312864902019424"><ele>251.0</ele><time>2026-04-04T17:16:28.999Z</time></trkpt><trkpt lat="43.60403608663782" lon="11.312791596273806"><ele>252.0</ele><time>2026-04-04T17:16:29.999Z</time></trkpt><trkpt lat="43.60399428414245" lon="11.31267531396819"><ele>252.0</ele><time>2026-04-04T17:16:30.999Z</time></trkpt><trkpt lat="43.603946715655866" lon="11.312545860339121"><ele>252.0</ele><time>2026-04-04T17:16:31.999Z</time></trkpt><trkpt lat="43.603903858812586" lon="11.312385007478904"><ele>252.0</ele><time>2026-04-04T17:16:32.999Z</time></trkpt><trkpt lat="43.603889857473234" lon="11.312202232537576"><ele>252.0</ele><time>2026-04-04T17:16:33.999Z</time></trkpt><trkpt lat="43.603850015469774" lon="11.312018389432682"><ele>250.8</ele><time>2026-04-04T17:16:34.999Z</time></trkpt><trkpt lat="43.603825503945636" lon="11.311851126428445"><ele>249.6</ele><time>2026-04-04T17:16:35.999Z</time></trkpt><trkpt lat="43.6037960299322" lon="11.311710965451763"><ele>248.40000000000003</ele><time>2026-04-04T17:16:36.999Z</time></trkpt><trkpt lat="43.60376175801858" lon="11.311568134199113"><ele>247.20000000000002</ele><time>2026-04-04T17:16:37.999Z</time></trkpt><trkpt lat="43.60370406303398" lon="11.311454080328554"><ele>246.0</ele><time>2026-04-04T17:16:38.999Z</time></trkpt><trkpt lat="43.60366182449076" lon="11.311302849323763"><ele>242.20000000000002</ele><time>2026-04-04T17:16:39.999Z</time></trkpt><trkpt lat="43.60359483626321" lon="11.311191213796587"><ele>238.40000000000003</ele><time>2026-04-04T17:16:40.999Z</time></trkpt><trkpt lat="43.60354473521635" lon="11.311077052350342"><ele>234.6</ele><time>2026-04-04T17:16:41.999Z</time></trkpt><trkpt lat="43.60349629723021" lon="11.310968678916922"><ele>230.8</ele><time>2026-04-04T17:16:42.999Z</time></trkpt><trkpt lat="43.60344690222208" lon="11.310864825397633"><ele>227.0</ele><time>2026-04-04T17:16:43.999Z</time></trkpt><trkpt lat="43.60341856651191" lon="11.310743120404279"><ele>227.0</ele><time>2026-04-04T17:16:44.999Z</time></trkpt><trkpt lat="43.603408563409" lon="11.31060785174795"><ele>227.0</ele><time>2026-04-04T17:16:45.999Z</time></trkpt><trkpt lat="43.60340420405766" lon="11.310467264335232"><ele>227.0</ele><time>2026-04-04T17:16:46.999Z</time></trkpt><trkpt lat="43.60340869029693" lon="11.310329868714202"><ele>227.0</ele><time>2026-04-04T17:16:47.999Z</time></trkpt><trkpt lat="43.603422325697274" lon="11.310207736578137"><ele>227.0</ele><time>2026-04-04T17:16:48.999Z</time></trkpt><trkpt lat="43.60344155292143" lon="11.310093091091444"><ele>225.33333333333334</ele><time>2026-04-04T17:16:49.999Z</time></trkpt><trkpt lat="43.603473563331846" lon="11.309975555815516"><ele>223.66666666666669</ele><time>2026-04-04T17:16:50.999Z</time></trkpt><trkpt lat="43.60351410290752" lon="11.30987107621957"><ele>222.0</ele><time>2026-04-04T17:16:51.999Z</time></trkpt><trkpt lat="43.6035558473388" lon="11.309763672912897"><ele>220.33333333333331</ele><time>2026-04-04T17:16:52.999Z</time></trkpt><trkpt lat="43.60360012863632" lon="11.309670674891393"><ele>218.66666666666666</ele><time>2026-04-04T17:16:53.999Z</time></trkpt><trkpt lat="43.60364205814245" lon="11.309593715854835"><ele>217.0</ele><time>2026-04-04T17:16:54.999Z</time></trkpt><trkpt lat="43.6037018118758" lon="11.309465376868792"><ele>216.83333333333331</ele><time>2026-04-04T17:16:56.999Z</time></trkpt><trkpt lat="43.603693630627866" lon="11.30937362064385"><ele>216.66666666666666</ele><time>2026-04-04T17:17:00.999Z</time></trkpt><trkpt lat="43.603601002072004" lon="11.30930279276498"><ele>216.5</ele><time>2026-04-04T17:17:01.999Z</time></trkpt><trkpt lat="43.60349573538463" lon="11.309373827767688"><ele>216.33333333333331</ele><time>2026-04-04T17:17:03.999Z</time></trkpt><trkpt lat="43.60343103694415" lon="11.30941434938515"><ele>216.16666666666666</ele><time>2026-04-04T17:17:04.999Z</time></trkpt><trkpt lat="43.60334683733783" lon="11.309445497589644"><ele>216.0</ele><time>2026-04-04T17:17:05.999Z</time></trkpt><trkpt lat="43.60326851265424" lon="11.309489985556349"><ele>215.60000000000002</ele><time>2026-04-04T17:17:06.999Z</time></trkpt><trkpt lat="43.60318160308273" lon="11.309539349692457"><ele>215.20000000000002</ele><time>2026-04-04T17:17:07.999Z</time></trkpt><trkpt lat="43.60309181305699" lon="11.309589399419545"><ele>214.79999999999998</ele><time>2026-04-04T17:17:08.999Z</time></trkpt><trkpt lat="43.60300201911362" lon="11.309639278775162"><ele>214.39999999999998</ele><time>2026-04-04T17:17:10Z</time></trkpt><trkpt lat="43.60290300689176" lon="11.309694278759789"><ele>214.0</ele><time>2026-04-04T17:17:11Z</time></trkpt><trkpt lat="43.60280500148337" lon="11.309748719548459"><ele>214.0</ele><time>2026-04-04T17:17:12Z</time></trkpt><trkpt lat="43.60270133472741" lon="11.309806248328712"><ele>214.0</ele><time>2026-04-04T17:17:13Z</time></trkpt><trkpt lat="43.602594520047305" lon="11.309865540159718"><ele>214.0</ele><time>2026-04-04T17:17:14Z</time></trkpt><trkpt lat="43.60248582513583" lon="11.309925875690356"><ele>214.0</ele><time>2026-04-04T17:17:15Z</time></trkpt><trkpt lat="43.60237678020771" lon="11.309986621647298"><ele>214.0</ele><time>2026-04-04T17:17:16Z</time></trkpt><trkpt lat="43.60226754872767" lon="11.310047886895"><ele>214.0</ele><time>2026-04-04T17:17:17Z</time></trkpt><trkpt lat="43.60215761486804" lon="11.310109546090237"><ele>214.0</ele><time>2026-04-04T17:17:18Z</time></trkpt><trkpt lat="43.6020425176244" lon="11.310174101303232"><ele>214.0</ele><time>2026-04-04T17:17:19Z</time></trkpt><trkpt lat="43.60193486439033" lon="11.310259098288212"><ele>213.5</ele><time>2026-04-04T17:17:20Z</time></trkpt><trkpt lat="43.60181699085023" lon="11.310324014033228"><ele>213.0</ele><time>2026-04-04T17:17:21Z</time></trkpt><trkpt lat="43.60169292539917" lon="11.310370178972939"><ele>212.5</ele><time>2026-04-04T17:17:22Z</time></trkpt><trkpt lat="43.60157456967671" lon="11.310436561781968"><ele>212.0</ele><time>2026-04-04T17:17:23Z</time></trkpt><trkpt lat="43.60145770097762" lon="11.31050211225338"><ele>212.0</ele><time>2026-04-04T17:17:24Z</time></trkpt><trkpt lat="43.60133886739507" lon="11.310571586300506"><ele>212.0</ele><time>2026-04-04T17:17:25Z</time></trkpt><trkpt lat="43.60121886508853" lon="11.310642768217171"><ele>212.0</ele><time>2026-04-04T17:17:26Z</time></trkpt><trkpt lat="43.60110220761513" lon="11.310715815968251"><ele>212.0</ele><time>2026-04-04T17:17:27Z</time></trkpt><trkpt lat="43.6009949633716" lon="11.310817457807737"><ele>212.75</ele><time>2026-04-04T17:17:28Z</time></trkpt><trkpt lat="43.600889888519916" lon="11.310911951026876"><ele>213.5</ele><time>2026-04-04T17:17:29Z</time></trkpt><trkpt lat="43.60078331850261" lon="11.311017493917552"><ele>214.25</ele><time>2026-04-04T17:17:30Z</time></trkpt><trkpt lat="43.60070662325729" lon="11.31116393058859"><ele>215.0</ele><time>2026-04-04T17:17:31Z</time></trkpt><trkpt lat="43.600624438647515" lon="11.311304440441365"><ele>214.5</ele><time>2026-04-04T17:17:32Z</time></trkpt><trkpt lat="43.60054814969085" lon="11.311444607861072"><ele>214.0</ele><time>2026-04-04T17:17:33Z</time></trkpt><trkpt lat="43.60045835319816" lon="11.311573086065794"><ele>213.5</ele><time>2026-04-04T17:17:34Z</time></trkpt><trkpt lat="43.600381881594686" lon="11.311713084365378"><ele>213.0</ele><time>2026-04-04T17:17:35Z</time></trkpt><trkpt lat="43.600306950237005" lon="11.311852537481203"><ele>213.0</ele><time>2026-04-04T17:17:36Z</time></trkpt><trkpt lat="43.60023210279228" lon="11.311993059595778"><ele>213.0</ele><time>2026-04-04T17:17:37Z</time></trkpt><trkpt lat="43.60015549275382" lon="11.312134421546531"><ele>213.0</ele><time>2026-04-04T17:17:38Z</time></trkpt><trkpt lat="43.60009266160968" lon="11.312292017039132"><ele>213.0</ele><time>2026-04-04T17:17:39Z</time></trkpt><trkpt lat="43.60001091565243" lon="11.312429445709048"><ele>213.0</ele><time>2026-04-04T17:17:40Z</time></trkpt><trkpt lat="43.599931406248636" lon="11.312571550111931"><ele>213.0</ele><time>2026-04-04T17:17:41Z</time></trkpt><trkpt lat="43.59985459022637" lon="11.312716629707138"><ele>213.0</ele><time>2026-04-04T17:17:42Z</time></trkpt><trkpt lat="43.599777441249444" lon="11.31286457967858"><ele>213.0</ele><time>2026-04-04T17:17:43Z</time></trkpt><trkpt lat="43.59967889793774" lon="11.312994888649966"><ele>213.25</ele><time>2026-04-04T17:17:44Z</time></trkpt><trkpt lat="43.59959738778162" lon="11.313140981338316"><ele>213.5</ele><time>2026-04-04T17:17:45Z</time></trkpt><trkpt lat="43.59951596749201" lon="11.313288222522006"><ele>213.75</ele><time>2026-04-04T17:17:46Z</time></trkpt><trkpt lat="43.59943450068134" lon="11.31343716225049"><ele>214.0</ele><time>2026-04-04T17:17:47Z</time></trkpt><trkpt lat="43.599356557563254" lon="11.313579659883965"><ele>214.0</ele><time>2026-04-04T17:17:48Z</time></trkpt><trkpt lat="43.599275117595326" lon="11.313728550532508"><ele>214.0</ele><time>2026-04-04T17:17:49Z</time></trkpt><trkpt lat="43.599195004532206" lon="11.313875015286591"><ele>214.0</ele><time>2026-04-04T17:17:50Z</time></trkpt><trkpt lat="43.59911385178083" lon="11.314022998648474"><ele>214.0</ele><time>2026-04-04T17:17:51Z</time></trkpt><trkpt lat="43.59903405413387" lon="11.314168428487617"><ele>214.75</ele><time>2026-04-04T17:17:52Z</time></trkpt><trkpt lat="43.59895375567774" lon="11.31431477106618"><ele>215.5</ele><time>2026-04-04T17:17:53Z</time></trkpt><trkpt lat="43.598874392342296" lon="11.314459011148378"><ele>216.25</ele><time>2026-04-04T17:17:54Z</time></trkpt><trkpt lat="43.59879336898619" lon="11.314605903489495"><ele>217.0</ele><time>2026-04-04T17:17:55Z</time></trkpt><trkpt lat="43.598712480756625" lon="11.314752550865014"><ele>216.75</ele><time>2026-04-04T17:17:55.999Z</time></trkpt><trkpt lat="43.59863151161632" lon="11.314899345195322"><ele>216.5</ele><time>2026-04-04T17:17:56.999Z</time></trkpt><trkpt lat="43.59854940532304" lon="11.315048780881941"><ele>216.25</ele><time>2026-04-04T17:17:57.999Z</time></trkpt><trkpt lat="43.59846930148887" lon="11.315194486269167"><ele>216.0</ele><time>2026-04-04T17:17:58.999Z</time></trkpt><trkpt lat="43.598388054519496" lon="11.315342270960853"><ele>216.0</ele><time>2026-04-04T17:17:59.999Z</time></trkpt><trkpt lat="43.59830624641114" lon="11.31549249815542"><ele>216.0</ele><time>2026-04-04T17:18:00.999Z</time></trkpt><trkpt lat="43.59822341414326" lon="11.315645188522096"><ele>216.0</ele><time>2026-04-04T17:18:01.999Z</time></trkpt><trkpt lat="43.59814001304107" lon="11.315798927465567"><ele>216.0</ele><time>2026-04-04T17:18:02.999Z</time></trkpt><trkpt lat="43.59806016778571" lon="11.315936361404425"><ele>216.0</ele><time>2026-04-04T17:18:03.999Z</time></trkpt><trkpt lat="43.5979737680094" lon="11.316070593112661"><ele>216.0</ele><time>2026-04-04T17:18:04.999Z</time></trkpt><trkpt lat="43.59787879688014" lon="11.316209701992552"><ele>216.0</ele><time>2026-04-04T17:18:05.999Z</time></trkpt><trkpt lat="43.59776418774334" lon="11.316314556443771"><ele>216.0</ele><time>2026-04-04T17:18:06.999Z</time></trkpt><trkpt lat="43.59764670062185" lon="11.316404208298371"><ele>217.0</ele><time>2026-04-04T17:18:07.999Z</time></trkpt><trkpt lat="43.597528422432596" lon="11.316482905107877"><ele>218.0</ele><time>2026-04-04T17:18:08.999Z</time></trkpt><trkpt lat="43.59740161613807" lon="11.316563450614211"><ele>219.0</ele><time>2026-04-04T17:18:09.999Z</time></trkpt><trkpt lat="43.59727289449854" lon="11.316650925213498"><ele>220.0</ele><time>2026-04-04T17:18:10.999Z</time></trkpt><trkpt lat="43.5971487243252" lon="11.316731437459755"><ele>220.0</ele><time>2026-04-04T17:18:11.999Z</time></trkpt><trkpt lat="43.59702375754843" lon="11.316813604414103"><ele>220.0</ele><time>2026-04-04T17:18:12.999Z</time></trkpt><trkpt lat="43.59689866457061" lon="11.316880034751684"><ele>220.0</ele><time>2026-04-04T17:18:13.999Z</time></trkpt><trkpt lat="43.596764532210614" lon="11.316928813782793"><ele>220.0</ele><time>2026-04-04T17:18:14.999Z</time></trkpt><trkpt lat="43.596627103129435" lon="11.31695587646814"><ele>219.5</ele><time>2026-04-04T17:18:15.999Z</time></trkpt><trkpt lat="43.596490450385765" lon="11.316954345134006"><ele>219.0</ele><time>2026-04-04T17:18:16.999Z</time></trkpt><trkpt lat="43.596352380622015" lon="11.316943613588"><ele>218.5</ele><time>2026-04-04T17:18:17.999Z</time></trkpt><trkpt lat="43.596216640154246" lon="11.316914358526565"><ele>218.0</ele><time>2026-04-04T17:18:18.999Z</time></trkpt><trkpt lat="43.59608419383653" lon="11.316873362966824"><ele>218.0</ele><time>2026-04-04T17:18:19.999Z</time></trkpt><trkpt lat="43.59595221531853" lon="11.31681978363626"><ele>218.0</ele><time>2026-04-04T17:18:20.999Z</time></trkpt><trkpt lat="43.59581764531949" lon="11.316765752235504"><ele>218.0</ele><time>2026-04-04T17:18:21.999Z</time></trkpt><trkpt lat="43.59568490173697" lon="11.316724731529662"><ele>218.0</ele><time>2026-04-04T17:18:22.999Z</time></trkpt><trkpt lat="43.5955551779527" lon="11.316685776131512"><ele>218.0</ele><time>2026-04-04T17:18:23.999Z</time></trkpt><trkpt lat="43.59542507255973" lon="11.31665806903229"><ele>218.0</ele><time>2026-04-04T17:18:24.999Z</time></trkpt><trkpt lat="43.59528901235464" lon="11.316644114604653"><ele>218.0</ele><time>2026-04-04T17:18:25.999Z</time></trkpt><trkpt lat="43.5951512202119" lon="11.31665079863847"><ele>218.0</ele><time>2026-04-04T17:18:26.999Z</time></trkpt><trkpt lat="43.59501479295188" lon="11.316668751694454"><ele>219.0</ele><time>2026-04-04T17:18:27.999Z</time></trkpt><trkpt lat="43.594876609209685" lon="11.316680436258023"><ele>220.0</ele><time>2026-04-04T17:18:28.999Z</time></trkpt><trkpt lat="43.59474173484806" lon="11.316683537284808"><ele>221.0</ele><time>2026-04-04T17:18:29.999Z</time></trkpt><trkpt lat="43.59460379833577" lon="11.316655667667963"><ele>222.0</ele><time>2026-04-04T17:18:30.999Z</time></trkpt><trkpt lat="43.594475008542155" lon="11.316593570623246"><ele>221.5</ele><time>2026-04-04T17:18:31.999Z</time></trkpt><trkpt lat="43.59435391478007" lon="11.316510824187663"><ele>221.0</ele><time>2026-04-04T17:18:32.999Z</time></trkpt><trkpt lat="43.59423087792294" lon="11.316423954980419"><ele>220.5</ele><time>2026-04-04T17:18:33.999Z</time></trkpt><trkpt lat="43.59411085438844" lon="11.316343101493553"><ele>220.0</ele><time>2026-04-04T17:18:34.999Z</time></trkpt><trkpt lat="43.59399063537314" lon="11.31626561296444"><ele>220.0</ele><time>2026-04-04T17:18:35.999Z</time></trkpt><trkpt lat="43.5938674641225" lon="11.31617754716237"><ele>220.0</ele><time>2026-04-04T17:18:36.999Z</time></trkpt><trkpt lat="43.5937490087252" lon="11.316098763856525"><ele>220.0</ele><time>2026-04-04T17:18:37.999Z</time></trkpt><trkpt lat="43.59363013533681" lon="11.316016936511817"><ele>220.0</ele><time>2026-04-04T17:18:38.999Z</time></trkpt><trkpt lat="43.5935130435113" lon="11.315936129183427"><ele>221.0</ele><time>2026-04-04T17:18:39.999Z</time></trkpt><trkpt lat="43.59339339487697" lon="11.31585830885839"><ele>222.0</ele><time>2026-04-04T17:18:40.999Z</time></trkpt><trkpt lat="43.5932708848053" lon="11.315786518810164"><ele>223.0</ele><time>2026-04-04T17:18:41.999Z</time></trkpt><trkpt lat="43.59314521953231" lon="11.315725849748423"><ele>224.0</ele><time>2026-04-04T17:18:42.999Z</time></trkpt><trkpt lat="43.59301994486187" lon="11.315669237065462"><ele>224.0</ele><time>2026-04-04T17:18:43.999Z</time></trkpt><trkpt lat="43.59289391265877" lon="11.315622237632766"><ele>224.0</ele><time>2026-04-04T17:18:44.999Z</time></trkpt><trkpt lat="43.592766324617976" lon="11.315578118702058"><ele>224.0</ele><time>2026-04-04T17:18:45.999Z</time></trkpt><trkpt lat="43.59264176531382" lon="11.315526491274342"><ele>224.0</ele><time>2026-04-04T17:18:46.999Z</time></trkpt><trkpt lat="43.592522711522726" lon="11.315459867349123"><ele>223.39999999999998</ele><time>2026-04-04T17:18:47.999Z</time></trkpt><trkpt lat="43.59241521216538" lon="11.315392503242649"><ele>222.79999999999998</ele><time>2026-04-04T17:18:48.999Z</time></trkpt><trkpt lat="43.59230993143921" lon="11.315324110759583"><ele>222.20000000000002</ele><time>2026-04-04T17:18:49.999Z</time></trkpt><trkpt lat="43.59221864451046" lon="11.315251425699008"><ele>221.60000000000002</ele><time>2026-04-04T17:18:50.999Z</time></trkpt><trkpt lat="43.59214540968679" lon="11.315162226455172"><ele>221.0</ele><time>2026-04-04T17:18:51.999Z</time></trkpt><trkpt lat="43.59209114304614" lon="11.315058123016929"><ele>221.0</ele><time>2026-04-04T17:18:52.999Z</time></trkpt><trkpt lat="43.592014553919405" lon="11.314979193393109"><ele>221.00000000000003</ele><time>2026-04-04T17:18:53.999Z</time></trkpt><trkpt lat="43.59190365447573" lon="11.31496314239266"><ele>221.00000000000003</ele><time>2026-04-04T17:18:54.999Z</time></trkpt><trkpt lat="43.591795785392726" lon="11.314919317516228"><ele>221.0</ele><time>2026-04-04T17:18:55.999Z</time></trkpt><trkpt lat="43.5916893636009" lon="11.314847657196626"><ele>221.0</ele><time>2026-04-04T17:18:56.999Z</time></trkpt><trkpt lat="43.591579972343474" lon="11.31477772743465"><ele>221.0</ele><time>2026-04-04T17:18:57.999Z</time></trkpt><trkpt lat="43.5914682859397" lon="11.314707179708343"><ele>221.0</ele><time>2026-04-04T17:18:58.999Z</time></trkpt><trkpt lat="43.59135090144556" lon="11.314657843975624"><ele>221.0</ele><time>2026-04-04T17:18:59.999Z</time></trkpt><trkpt lat="43.59123380473336" lon="11.314594859156452"><ele>221.0</ele><time>2026-04-04T17:19:00.999Z</time></trkpt><trkpt lat="43.59110807331929" lon="11.31454262294308"><ele>221.25</ele><time>2026-04-04T17:19:01.999Z</time></trkpt><trkpt lat="43.5909793690206" lon="11.314496340668416"><ele>221.5</ele><time>2026-04-04T17:19:02.999Z</time></trkpt><trkpt lat="43.59084854539537" lon="11.314455281520592"><ele>221.75</ele><time>2026-04-04T17:19:03.999Z</time></trkpt><trkpt lat="43.59071878661919" lon="11.314424866705833"><ele>222.0</ele><time>2026-04-04T17:19:04.999Z</time></trkpt><trkpt lat="43.590590629872736" lon="11.314406675610634"><ele>222.0</ele><time>2026-04-04T17:19:05.999Z</time></trkpt><trkpt lat="43.59045961096016" lon="11.314400920278572"><ele>222.0</ele><time>2026-04-04T17:19:06.999Z</time></trkpt><trkpt lat="43.59033212329921" lon="11.314386532157917"><ele>222.0</ele><time>2026-04-04T17:19:07.999Z</time></trkpt><trkpt lat="43.59020427141079" lon="11.314403781510306"><ele>222.0</ele><time>2026-04-04T17:19:08.999Z</time></trkpt><trkpt lat="43.59007837409464" lon="11.314423585320567"><ele>222.25</ele><time>2026-04-04T17:19:09.999Z</time></trkpt><trkpt lat="43.58995708170945" lon="11.314444989888505"><ele>222.5</ele><time>2026-04-04T17:19:10.999Z</time></trkpt><trkpt lat="43.58983805858555" lon="11.314466602627924"><ele>222.75</ele><time>2026-04-04T17:19:11.999Z</time></trkpt><trkpt lat="43.589716424623234" lon="11.31450996107374"><ele>223.0</ele><time>2026-04-04T17:19:12.999Z</time></trkpt><trkpt lat="43.58958322272163" lon="11.31451340777765"><ele>223.5</ele><time>2026-04-04T17:19:13.999Z</time></trkpt><trkpt lat="43.5894582943466" lon="11.314535923167195"><ele>224.0</ele><time>2026-04-04T17:19:14.999Z</time></trkpt><trkpt lat="43.589333304799155" lon="11.314558449574294"><ele>224.5</ele><time>2026-04-04T17:19:16Z</time></trkpt><trkpt lat="43.589212553947384" lon="11.314580212064218"><ele>225.0</ele><time>2026-04-04T17:19:17Z</time></trkpt><trkpt lat="43.589096302096344" lon="11.314601138796414"><ele>225.0</ele><time>2026-04-04T17:19:18Z</time></trkpt><trkpt lat="43.58898252658219" lon="11.31462131680289"><ele>225.0</ele><time>2026-04-04T17:19:19Z</time></trkpt><trkpt lat="43.588873012318246" lon="11.314640524806773"><ele>225.0</ele><time>2026-04-04T17:19:20Z</time></trkpt><trkpt lat="43.58877071524019" lon="11.314658869086834"><ele>225.0</ele><time>2026-04-04T17:19:21Z</time></trkpt><trkpt lat="43.588680529843025" lon="11.314675380663317"><ele>225.0</ele><time>2026-04-04T17:19:22Z</time></trkpt><trkpt lat="43.588596351893166" lon="11.314690796474249"><ele>225.2</ele><time>2026-04-04T17:19:23Z</time></trkpt><trkpt lat="43.588530570416225" lon="11.314702843273095"><ele>225.4</ele><time>2026-04-04T17:19:24Z</time></trkpt><trkpt lat="43.58847012412637" lon="11.314944933081176"><ele>225.60000000000002</ele><time>2026-04-04T17:19:26Z</time></trkpt><trkpt lat="43.58846898478906" lon="11.31506755848601"><ele>225.8</ele><time>2026-04-04T17:19:27Z</time></trkpt><trkpt lat="43.58846042977818" lon="11.315193493369947"><ele>226.0</ele><time>2026-04-04T17:19:28Z</time></trkpt><trkpt lat="43.58840864214217" lon="11.315320999427072"><ele>226.20000000000002</ele><time>2026-04-04T17:19:29Z</time></trkpt><trkpt lat="43.588360344840545" lon="11.315449144932506"><ele>226.40000000000003</ele><time>2026-04-04T17:19:30Z</time></trkpt><trkpt lat="43.58832452973826" lon="11.315586351116034"><ele>226.6</ele><time>2026-04-04T17:19:31Z</time></trkpt><trkpt lat="43.58834092498083" lon="11.315746886501097"><ele>226.8</ele><time>2026-04-04T17:19:32Z</time></trkpt><trkpt lat="43.588352988397126" lon="11.315891060924823"><ele>227.0</ele><time>2026-04-04T17:19:33Z</time></trkpt><trkpt lat="43.588344877370425" lon="11.316033203369571"><ele>228.0</ele><time>2026-04-04T17:19:34Z</time></trkpt><trkpt lat="43.58836915902249" lon="11.316162316962611"><ele>229.0</ele><time>2026-04-04T17:19:35Z</time></trkpt><trkpt lat="43.58834985480946" lon="11.316296485359285"><ele>230.0</ele><time>2026-04-04T17:19:36Z</time></trkpt><trkpt lat="43.58832028316575" lon="11.316441375046363"><ele>231.0</ele><time>2026-04-04T17:19:37Z</time></trkpt><trkpt lat="43.588233563590336" lon="11.316551303833906"><ele>232.0</ele><time>2026-04-04T17:19:38Z</time></trkpt><trkpt lat="43.58817671655233" lon="11.31668354957183"><ele>233.75</ele><time>2026-04-04T17:19:39Z</time></trkpt><trkpt lat="43.588116856720795" lon="11.316822804137102"><ele>235.5</ele><time>2026-04-04T17:19:40Z</time></trkpt><trkpt lat="43.58805952348115" lon="11.316956181058826"><ele>237.25</ele><time>2026-04-04T17:19:41Z</time></trkpt><trkpt lat="43.58800042864159" lon="11.317094106821372"><ele>239.0</ele><time>2026-04-04T17:19:42Z</time></trkpt><trkpt lat="43.587944074563126" lon="11.317226456527274"><ele>239.6</ele><time>2026-04-04T17:19:43Z</time></trkpt><trkpt lat="43.587886070069736" lon="11.31735923310232"><ele>240.2</ele><time>2026-04-04T17:19:44Z</time></trkpt><trkpt lat="43.587826283532756" lon="11.317496552965588"><ele>240.79999999999998</ele><time>2026-04-04T17:19:45Z</time></trkpt><trkpt lat="43.58776671807135" lon="11.317633365037434"><ele>241.39999999999998</ele><time>2026-04-04T17:19:46Z</time></trkpt><trkpt lat="43.58771355871889" lon="11.31775569198204"><ele>242.0</ele><time>2026-04-04T17:19:47Z</time></trkpt><trkpt lat="43.587665984177846" lon="11.317865233994366"><ele>243.00000000000003</ele><time>2026-04-04T17:19:48Z</time></trkpt><trkpt lat="43.58762107258807" lon="11.317968644292533"><ele>244.0</ele><time>2026-04-04T17:19:49Z</time></trkpt><trkpt lat="43.587577445318985" lon="11.31806909753497"><ele>245.0</ele><time>2026-04-04T17:19:50Z</time></trkpt><trkpt lat="43.58754234813127" lon="11.318149909904916"><ele>246.0</ele><time>2026-04-04T17:19:51Z</time></trkpt><trkpt lat="43.587480873717844" lon="11.318291456664772"><ele>247.00000000000003</ele><time>2026-04-04T17:19:53Z</time></trkpt><trkpt lat="43.58742895688339" lon="11.318356853463252"><ele>248.0</ele><time>2026-04-04T17:19:54.999Z</time></trkpt><trkpt lat="43.58735462061612" lon="11.318257635120952"><ele>248.0</ele><time>2026-04-04T17:19:55.999Z</time></trkpt><trkpt lat="43.58728116494776" lon="11.31822209599598"><ele>248.00000000000003</ele><time>2026-04-04T17:19:56.999Z</time></trkpt><trkpt lat="43.58721678019114" lon="11.318163065986905"><ele>248.0</ele><time>2026-04-04T17:19:57.999Z</time></trkpt><trkpt lat="43.58714890089024" lon="11.318107814517187"><ele>248.0</ele><time>2026-04-04T17:19:58.999Z</time></trkpt><trkpt lat="43.58708596618946" lon="11.318062739583988"><ele>248.00000000000003</ele><time>2026-04-04T17:19:59.999Z</time></trkpt><trkpt lat="43.58703658739559" lon="11.317997951534613"><ele>248.0</ele><time>2026-04-04T17:20:00.999Z</time></trkpt><trkpt lat="43.586977299442026" lon="11.317949915148782"><ele>248.0</ele><time>2026-04-04T17:20:01.999Z</time></trkpt><trkpt lat="43.586917112061734" lon="11.317900616325499"><ele>248.0</ele><time>2026-04-04T17:20:02.999Z</time></trkpt><trkpt lat="43.58685387543592" lon="11.317848679021715"><ele>248.0</ele><time>2026-04-04T17:20:03.999Z</time></trkpt><trkpt lat="43.58679610011924" lon="11.317801123938349"><ele>248.0</ele><time>2026-04-04T17:20:04.999Z</time></trkpt><trkpt lat="43.58674127720578" lon="11.31775599893274"><ele>248.0</ele><time>2026-04-04T17:20:05.999Z</time></trkpt><trkpt lat="43.58664617209414" lon="11.31766014904214"><ele>248.0</ele><time>2026-04-04T17:20:07.999Z</time></trkpt><trkpt lat="43.58652022975875" lon="11.31774532210566"><ele>248.0</ele><time>2026-04-04T17:20:10.999Z</time></trkpt><trkpt lat="43.58643036987522" lon="11.317707014993246"><ele>248.0</ele><time>2026-04-04T17:20:12.999Z</time></trkpt><trkpt lat="43.586434171238515" lon="11.317956542549512"><ele>248.0</ele><time>2026-04-04T17:20:15.999Z</time></trkpt><trkpt lat="43.58648473927298" lon="11.318015587481284"><ele>248.0</ele><time>2026-04-04T17:20:16.999Z</time></trkpt><trkpt lat="43.58654120253027" lon="11.318096757857823"><ele>248.0</ele><time>2026-04-04T17:20:17.999Z</time></trkpt><trkpt lat="43.58661282323281" lon="11.318181734743623"><ele>249.2</ele><time>2026-04-04T17:20:18.999Z</time></trkpt><trkpt lat="43.58666733029626" lon="11.318236589388187"><ele>250.4</ele><time>2026-04-04T17:20:19.999Z</time></trkpt><trkpt lat="43.586668561878604" lon="11.318336571348064"><ele>251.59999999999997</ele><time>2026-04-04T17:20:20.999Z</time></trkpt><trkpt lat="43.58658137568153" lon="11.318476658684423"><ele>252.79999999999998</ele><time>2026-04-04T17:20:22.999Z</time></trkpt><trkpt lat="43.586511255238385" lon="11.318574495830282"><ele>254.0</ele><time>2026-04-04T17:20:23.999Z</time></trkpt><trkpt lat="43.58645231195395" lon="11.318681927046452"><ele>254.0</ele><time>2026-04-04T17:20:24.999Z</time></trkpt><trkpt lat="43.58638551010516" lon="11.31879371156647"><ele>254.0</ele><time>2026-04-04T17:20:25.999Z</time></trkpt><trkpt lat="43.58633805256994" lon="11.318940315401662"><ele>254.0</ele><time>2026-04-04T17:20:26.999Z</time></trkpt><trkpt lat="43.586288040975724" lon="11.31907842374959"><ele>254.0</ele><time>2026-04-04T17:20:27.999Z</time></trkpt><trkpt lat="43.586185235638574" lon="11.319192915787426"><ele>256.2</ele><time>2026-04-04T17:20:28.999Z</time></trkpt><trkpt lat="43.586126757728124" lon="11.31933167855158"><ele>258.4</ele><time>2026-04-04T17:20:29.999Z</time></trkpt><trkpt lat="43.586080361231446" lon="11.319463259781791"><ele>260.6</ele><time>2026-04-04T17:20:30.999Z</time></trkpt><trkpt lat="43.58604524497922" lon="11.319572335941803"><ele>262.8</ele><time>2026-04-04T17:20:31.999Z</time></trkpt><trkpt lat="43.58602419530101" lon="11.319661648646235"><ele>265.0</ele><time>2026-04-04T17:20:32.999Z</time></trkpt><trkpt lat="43.58604747016437" lon="11.319811983546346"><ele>264.8</ele><time>2026-04-04T17:20:34.999Z</time></trkpt><trkpt lat="43.58609527604466" lon="11.319894612308081"><ele>264.6</ele><time>2026-04-04T17:20:35.999Z</time></trkpt><trkpt lat="43.58614929155037" lon="11.319994589427399"><ele>264.4</ele><time>2026-04-04T17:20:36.999Z</time></trkpt><trkpt lat="43.58619577750086" lon="11.32012639525542"><ele>264.2</ele><time>2026-04-04T17:20:37.999Z</time></trkpt><trkpt lat="43.586237201799115" lon="11.320294722929518"><ele>264.0</ele><time>2026-04-04T17:20:38.999Z</time></trkpt><trkpt lat="43.58628087478212" lon="11.320470792014861"><ele>264.4</ele><time>2026-04-04T17:20:39.999Z</time></trkpt><trkpt lat="43.58632571651472" lon="11.320610668635824"><ele>264.79999999999995</ele><time>2026-04-04T17:20:40.999Z</time></trkpt><trkpt lat="43.58637371603691" lon="11.320730063834429"><ele>265.20000000000005</ele><time>2026-04-04T17:20:41.999Z</time></trkpt><trkpt lat="43.586421414196074" lon="11.320879073380743"><ele>265.6</ele><time>2026-04-04T17:20:42.999Z</time></trkpt><trkpt lat="43.58646412005189" lon="11.321014842385086"><ele>266.0</ele><time>2026-04-04T17:20:43.999Z</time></trkpt><trkpt lat="43.586496400070075" lon="11.321135361939888"><ele>266.0</ele><time>2026-04-04T17:20:44.999Z</time></trkpt><trkpt lat="43.58653152084098" lon="11.32123102789668"><ele>266.0</ele><time>2026-04-04T17:20:45.999Z</time></trkpt><trkpt lat="43.586567388807445" lon="11.321334347689156"><ele>266.0</ele><time>2026-04-04T17:20:46.999Z</time></trkpt><trkpt lat="43.58659623484379" lon="11.321478254515402"><ele>266.0</ele><time>2026-04-04T17:20:48.999Z</time></trkpt><trkpt lat="43.58658042874785" lon="11.32167097532267"><ele>266.0</ele><time>2026-04-04T17:20:50.999Z</time></trkpt><trkpt lat="43.58658750231898" lon="11.321793744924621"><ele>267.1666666666667</ele><time>2026-04-04T17:20:51.999Z</time></trkpt><trkpt lat="43.58660604806089" lon="11.321907338130522"><ele>268.33333333333337</ele><time>2026-04-04T17:20:52.999Z</time></trkpt><trkpt lat="43.586619249155284" lon="11.322049220891898"><ele>269.5</ele><time>2026-04-04T17:20:53.999Z</time></trkpt><trkpt lat="43.58663246849149" lon="11.322160111829561"><ele>270.6666666666667</ele><time>2026-04-04T17:20:54.999Z</time></trkpt><trkpt lat="43.58664614144236" lon="11.322281665922876"><ele>271.8333333333333</ele><time>2026-04-04T17:20:55.999Z</time></trkpt><trkpt lat="43.58665797544688" lon="11.322378580789476"><ele>273.0</ele><time>2026-04-04T17:20:56.999Z</time></trkpt><trkpt lat="43.58669312472467" lon="11.322538607576899"><ele>272.3333333333333</ele><time>2026-04-04T17:20:58.999Z</time></trkpt><trkpt lat="43.58674869767167" lon="11.322585667378865"><ele>271.6666666666667</ele><time>2026-04-04T17:20:59.999Z</time></trkpt><trkpt lat="43.586817820486154" lon="11.322596216268908"><ele>271.0</ele><time>2026-04-04T17:21:00.999Z</time></trkpt><trkpt lat="43.586884251773924" lon="11.322576250595626"><ele>270.33333333333337</ele><time>2026-04-04T17:21:01.999Z</time></trkpt><trkpt lat="43.586947574711424" lon="11.322563501764483"><ele>269.6666666666667</ele><time>2026-04-04T17:21:02.999Z</time></trkpt><trkpt lat="43.587045849411055" lon="11.322632115635573"><ele>269.0</ele><time>2026-04-04T17:21:04.999Z</time></trkpt><trkpt lat="43.58708153468456" lon="11.322806318629318"><ele>269.0</ele><time>2026-04-04T17:21:06.999Z</time></trkpt><trkpt lat="43.58709050778344" lon="11.32290384833578"><ele>269.0</ele><time>2026-04-04T17:21:07.999Z</time></trkpt><trkpt lat="43.587107859798714" lon="11.322993269298232"><ele>269.0</ele><time>2026-04-04T17:21:08.999Z</time></trkpt><trkpt lat="43.58712496326269" lon="11.323081513334763"><ele>269.0</ele><time>2026-04-04T17:21:09.999Z</time></trkpt><trkpt lat="43.58712304213914" lon="11.323179167240633"><ele>269.0</ele><time>2026-04-04T17:21:10.999Z</time></trkpt><trkpt lat="43.58712403883977" lon="11.323350308383294"><ele>269.0</ele><time>2026-04-04T17:21:12.999Z</time></trkpt><trkpt lat="43.587117717903716" lon="11.323462529187646"><ele>271.33333333333337</ele><time>2026-04-04T17:21:13.999Z</time></trkpt><trkpt lat="43.58711612725829" lon="11.323575319832106"><ele>273.6666666666667</ele><time>2026-04-04T17:21:14.999Z</time></trkpt><trkpt lat="43.587129308035436" lon="11.323675236645547"><ele>276.0</ele><time>2026-04-04T17:21:15.999Z</time></trkpt><trkpt lat="43.587150220800666" lon="11.323784314449421"><ele>278.3333333333333</ele><time>2026-04-04T17:21:16.999Z</time></trkpt><trkpt lat="43.58715595643322" lon="11.323884127589661"><ele>280.66666666666663</ele><time>2026-04-04T17:21:17.999Z</time></trkpt><trkpt lat="43.58714860798646" lon="11.324003971079232"><ele>283.0</ele><time>2026-04-04T17:21:18.999Z</time></trkpt><trkpt lat="43.587127905144314" lon="11.32410773116709"><ele>284.5</ele><time>2026-04-04T17:21:19.999Z</time></trkpt><trkpt lat="43.58711480043155" lon="11.324225473789992"><ele>286.0</ele><time>2026-04-04T17:21:20.999Z</time></trkpt><trkpt lat="43.587113807838655" lon="11.324363762312947"><ele>287.5</ele><time>2026-04-04T17:21:22Z</time></trkpt><trkpt lat="43.58710770924055" lon="11.324491064777733"><ele>289.0</ele><time>2026-04-04T17:21:23Z</time></trkpt><trkpt lat="43.58711603690943" lon="11.324582368895001"><ele>290.5</ele><time>2026-04-04T17:21:24Z</time></trkpt><trkpt lat="43.587135672800756" lon="11.324678199645618"><ele>292.0</ele><time>2026-04-04T17:21:25Z</time></trkpt><trkpt lat="43.587153502118156" lon="11.324778219367495"><ele>294.0</ele><time>2026-04-04T17:21:26Z</time></trkpt><trkpt lat="43.58715733901179" lon="11.324869336726753"><ele>296.0</ele><time>2026-04-04T17:21:27Z</time></trkpt><trkpt lat="43.58715002611348" lon="11.32498368179733"><ele>298.0</ele><time>2026-04-04T17:21:28Z</time></trkpt><trkpt lat="43.587136961034574" lon="11.325089378989002"><ele>300.0</ele><time>2026-04-04T17:21:29Z</time></trkpt><trkpt lat="43.58709681620196" lon="11.325179516668356"><ele>302.0</ele><time>2026-04-04T17:21:30Z</time></trkpt><trkpt lat="43.58705835218948" lon="11.325257552069694"><ele>304.0</ele><time>2026-04-04T17:21:31Z</time></trkpt><trkpt lat="43.58701823450117" lon="11.325325272269717"><ele>306.0</ele><time>2026-04-04T17:21:32Z</time></trkpt><trkpt lat="43.58694084294003" lon="11.325464815147013"><ele>308.0</ele><time>2026-04-04T17:21:34Z</time></trkpt><trkpt lat="43.58687984910523" lon="11.325541404110204"><ele>310.0</ele><time>2026-04-04T17:21:35Z</time></trkpt><trkpt lat="43.586825732124616" lon="11.325609602252767"><ele>312.0</ele><time>2026-04-04T17:21:36Z</time></trkpt><trkpt lat="43.58677282046118" lon="11.325674205236245"><ele>314.0</ele><time>2026-04-04T17:21:37Z</time></trkpt><trkpt lat="43.58670782490853" lon="11.325732994410968"><ele>316.0</ele><time>2026-04-04T17:21:38Z</time></trkpt><trkpt lat="43.586716213596524" lon="11.32587012632961"><ele>318.0</ele><time>2026-04-04T17:21:41Z</time></trkpt><trkpt lat="43.586755381885254" lon="11.325977224451787"><ele>318.0</ele><time>2026-04-04T17:21:42Z</time></trkpt><trkpt lat="43.58678752833185" lon="11.326071471631982"><ele>318.0</ele><time>2026-04-04T17:21:43Z</time></trkpt><trkpt lat="43.586761229627406" lon="11.326213140157272"><ele>318.0</ele><time>2026-04-04T17:21:45Z</time></trkpt><trkpt lat="43.586642946506316" lon="11.326262318585208"><ele>318.0</ele><time>2026-04-04T17:21:47Z</time></trkpt><trkpt lat="43.586574260721" lon="11.32628251977669"><ele>318.0</ele><time>2026-04-04T17:21:48Z</time></trkpt><trkpt lat="43.586502132123655" lon="11.326300054485612"><ele>318.0</ele><time>2026-04-04T17:21:49Z</time></trkpt><trkpt lat="43.58643400100463" lon="11.326317591689879"><ele>318.0</ele><time>2026-04-04T17:21:50Z</time></trkpt><trkpt lat="43.58636475754085" lon="11.326332385041892"><ele>318.0</ele><time>2026-04-04T17:21:50.999Z</time></trkpt><trkpt lat="43.58625157775776" lon="11.326354905744894"><ele>318.0</ele><time>2026-04-04T17:21:52.999Z</time></trkpt><trkpt lat="43.586177999076206" lon="11.326494493614666"><ele>318.0</ele><time>2026-04-04T17:21:54.999Z</time></trkpt><trkpt lat="43.58615599224788" lon="11.326586215492757"><ele>318.0</ele><time>2026-04-04T17:21:55.999Z</time></trkpt><trkpt lat="43.58612077994208" lon="11.326712239237082"><ele>317.4</ele><time>2026-04-04T17:21:57.999Z</time></trkpt><trkpt lat="43.58617322948638" lon="11.326782358939866"><ele>316.8</ele><time>2026-04-04T17:22:00.999Z</time></trkpt><trkpt lat="43.5862991229349" lon="11.326748327390105"><ele>316.2</ele><time>2026-04-04T17:22:02.999Z</time></trkpt><trkpt lat="43.586368881620686" lon="11.326803754745244"><ele>315.6</ele><time>2026-04-04T17:22:03.999Z</time></trkpt><trkpt lat="43.5864214114933" lon="11.326909090639738"><ele>315.0</ele><time>2026-04-04T17:22:04.999Z</time></trkpt><trkpt lat="43.58639939507256" lon="11.327071661913298"><ele>315.0</ele><time>2026-04-04T17:22:05.999Z</time></trkpt><trkpt lat="43.586435191293205" lon="11.32716258975072"><ele>315.0</ele><time>2026-04-04T17:22:06.999Z</time></trkpt><trkpt lat="43.58651791399314" lon="11.327230876217069"><ele>315.0</ele><time>2026-04-04T17:22:07.999Z</time></trkpt><trkpt lat="43.58661191473252" lon="11.327273581810715"><ele>315.0</ele><time>2026-04-04T17:22:08.999Z</time></trkpt><trkpt lat="43.58669325331258" lon="11.32734195548439"><ele>315.0</ele><time>2026-04-04T17:22:09.999Z</time></trkpt><trkpt lat="43.586770129970716" lon="11.327424371711501"><ele>316.4</ele><time>2026-04-04T17:22:10.999Z</time></trkpt><trkpt lat="43.586803381385316" lon="11.327522892893224"><ele>317.8</ele><time>2026-04-04T17:22:11.999Z</time></trkpt><trkpt lat="43.58684244189804" lon="11.327650186996037"><ele>319.20000000000005</ele><time>2026-04-04T17:22:12.999Z</time></trkpt><trkpt lat="43.58691682075199" lon="11.327779844253671"><ele>320.6</ele><time>2026-04-04T17:22:13.999Z</time></trkpt><trkpt lat="43.58696295708429" lon="11.32790084287008"><ele>322.0</ele><time>2026-04-04T17:22:14.999Z</time></trkpt><trkpt lat="43.58702498168722" lon="11.32803775222651"><ele>322.0</ele><time>2026-04-04T17:22:15.999Z</time></trkpt><trkpt lat="43.58709737082121" lon="11.328150611295321"><ele>322.0</ele><time>2026-04-04T17:22:16.999Z</time></trkpt><trkpt lat="43.58718726558143" lon="11.328253817191511"><ele>322.0</ele><time>2026-04-04T17:22:17.999Z</time></trkpt><trkpt lat="43.58727350812036" lon="11.328367851360767"><ele>322.0</ele><time>2026-04-04T17:22:18.999Z</time></trkpt><trkpt lat="43.58729042705506" lon="11.328508149939445"><ele>322.0</ele><time>2026-04-04T17:22:19.999Z</time></trkpt><trkpt lat="43.58730628863242" lon="11.328624822967036"><ele>322.0</ele><time>2026-04-04T17:22:20.999Z</time></trkpt><trkpt lat="43.587356340281964" lon="11.32876695514446"><ele>322.0</ele><time>2026-04-04T17:22:21.999Z</time></trkpt><trkpt lat="43.58735521462917" lon="11.328940365782847"><ele>322.0</ele><time>2026-04-04T17:22:22.999Z</time></trkpt><trkpt lat="43.58736850932118" lon="11.32913684176333"><ele>322.0</ele><time>2026-04-04T17:22:23.999Z</time></trkpt><trkpt lat="43.58736716536113" lon="11.329319578075081"><ele>322.0</ele><time>2026-04-04T17:22:24.999Z</time></trkpt><trkpt lat="43.58738001794687" lon="11.32947915128784"><ele>322.0</ele><time>2026-04-04T17:22:25.999Z</time></trkpt><trkpt lat="43.587402681747214" lon="11.329647357173295"><ele>322.0</ele><time>2026-04-04T17:22:26.999Z</time></trkpt><trkpt lat="43.587431227220925" lon="11.329811233582815"><ele>322.0</ele><time>2026-04-04T17:22:27.999Z</time></trkpt><trkpt lat="43.587450275758016" lon="11.329947864440356"><ele>322.0</ele><time>2026-04-04T17:22:28.999Z</time></trkpt><trkpt lat="43.58746450892861" lon="11.33007084222022"><ele>322.0</ele><time>2026-04-04T17:22:29.999Z</time></trkpt><trkpt lat="43.587481838103166" lon="11.330160523126565"><ele>322.0</ele><time>2026-04-04T17:22:30.999Z</time></trkpt><trkpt lat="43.58749094979932" lon="11.330293378426088"><ele>322.0</ele><time>2026-04-04T17:22:32.999Z</time></trkpt><trkpt lat="43.5874632314277" lon="11.33042074569397"><ele>322.0</ele><time>2026-04-04T17:22:34.999Z</time></trkpt><trkpt lat="43.58740208732355" lon="11.3304437565161"><ele>322.0</ele><time>2026-04-04T17:22:35.999Z</time></trkpt><trkpt lat="43.58732832353853" lon="11.330437780048987"><ele>322.0</ele><time>2026-04-04T17:22:36.999Z</time></trkpt><trkpt lat="43.5872338313091" lon="11.33038722315088"><ele>322.0</ele><time>2026-04-04T17:22:37.999Z</time></trkpt><trkpt lat="43.58716280948216" lon="11.330365183178705"><ele>322.0</ele><time>2026-04-04T17:22:38.999Z</time></trkpt><trkpt lat="43.58708175275282" lon="11.330354056317264"><ele>322.0</ele><time>2026-04-04T17:22:39.999Z</time></trkpt><trkpt lat="43.58700565324995" lon="11.33034147444934"><ele>322.0</ele><time>2026-04-04T17:22:40.999Z</time></trkpt><trkpt lat="43.58694174277398" lon="11.330339049678823"><ele>322.0</ele><time>2026-04-04T17:22:41.999Z</time></trkpt><trkpt lat="43.58688018431302" lon="11.330378223682871"><ele>321.3333333333333</ele><time>2026-04-04T17:22:42.999Z</time></trkpt><trkpt lat="43.58680345346932" lon="11.33043339212965"><ele>320.66666666666663</ele><time>2026-04-04T17:22:43.999Z</time></trkpt><trkpt lat="43.58673780428367" lon="11.330488414247446"><ele>320.0</ele><time>2026-04-04T17:22:44.999Z</time></trkpt><trkpt lat="43.58666626912211" lon="11.33052828860431"><ele>319.3333333333333</ele><time>2026-04-04T17:22:45.999Z</time></trkpt><trkpt lat="43.586594554847046" lon="11.330568407775738"><ele>318.6666666666667</ele><time>2026-04-04T17:22:46.999Z</time></trkpt><trkpt lat="43.586510475995375" lon="11.330684988620932"><ele>318.0</ele><time>2026-04-04T17:22:48.999Z</time></trkpt><trkpt lat="43.58650210136883" lon="11.330850520323771"><ele>319.8333333333333</ele><time>2026-04-04T17:22:50.999Z</time></trkpt><trkpt lat="43.586520778144155" lon="11.33096099241041"><ele>321.6666666666667</ele><time>2026-04-04T17:22:51.999Z</time></trkpt><trkpt lat="43.58655325689319" lon="11.331074445093341"><ele>323.5</ele><time>2026-04-04T17:22:52.999Z</time></trkpt><trkpt lat="43.58658450503944" lon="11.331178243024231"><ele>325.33333333333337</ele><time>2026-04-04T17:22:53.999Z</time></trkpt><trkpt lat="43.58662378499253" lon="11.331281809292772"><ele>327.1666666666667</ele><time>2026-04-04T17:22:54.999Z</time></trkpt><trkpt lat="43.58665699395324" lon="11.331358988472243"><ele>329.0</ele><time>2026-04-04T17:22:55.999Z</time></trkpt><trkpt lat="43.58670673397393" lon="11.331462762837093"><ele>329.0</ele><time>2026-04-04T17:22:56.999Z</time></trkpt><trkpt lat="43.58676444643178" lon="11.331549697701154"><ele>329.0</ele><time>2026-04-04T17:22:57.999Z</time></trkpt><trkpt lat="43.58683787236028" lon="11.331611464083814"><ele>329.0</ele><time>2026-04-04T17:22:58.999Z</time></trkpt><trkpt lat="43.586922083625936" lon="11.331659363985867"><ele>329.0</ele><time>2026-04-04T17:22:59.999Z</time></trkpt><trkpt lat="43.58700955368981" lon="11.331722727982287"><ele>329.0</ele><time>2026-04-04T17:23:00.999Z</time></trkpt><trkpt lat="43.58710933237115" lon="11.331800120145948"><ele>332.0</ele><time>2026-04-04T17:23:01.999Z</time></trkpt><trkpt lat="43.58721882000244" lon="11.331876651270168"><ele>335.0</ele><time>2026-04-04T17:23:02.999Z</time></trkpt><trkpt lat="43.58731005163679" lon="11.331925986468763"><ele>338.0</ele><time>2026-04-04T17:23:03.999Z</time></trkpt><trkpt lat="43.58741058234292" lon="11.331968550869444"><ele>341.0</ele><time>2026-04-04T17:23:04.999Z</time></trkpt><trkpt lat="43.587525595724856" lon="11.33203376458559"><ele>341.0</ele><time>2026-04-04T17:23:05.999Z</time></trkpt><trkpt lat="43.58764027740619" lon="11.332120352656094"><ele>341.0</ele><time>2026-04-04T17:23:06.999Z</time></trkpt><trkpt lat="43.58776010889861" lon="11.332200118393189"><ele>341.0</ele><time>2026-04-04T17:23:07.999Z</time></trkpt><trkpt lat="43.58786795022085" lon="11.332248156581802"><ele>341.0</ele><time>2026-04-04T17:23:08.999Z</time></trkpt><trkpt lat="43.587964100689234" lon="11.332315931687857"><ele>341.8</ele><time>2026-04-04T17:23:09.999Z</time></trkpt><trkpt lat="43.588048447062086" lon="11.33239951702967"><ele>342.6</ele><time>2026-04-04T17:23:10.999Z</time></trkpt><trkpt lat="43.588147571081116" lon="11.332483705007656"><ele>343.4</ele><time>2026-04-04T17:23:11.999Z</time></trkpt><trkpt lat="43.588229744596966" lon="11.33257865353504"><ele>344.2</ele><time>2026-04-04T17:23:12.999Z</time></trkpt><trkpt lat="43.58831553227245" lon="11.332664081805023"><ele>345.0</ele><time>2026-04-04T17:23:13.999Z</time></trkpt><trkpt lat="43.58838023937611" lon="11.332732549300285"><ele>345.0</ele><time>2026-04-04T17:23:14.999Z</time></trkpt><trkpt lat="43.588464790447716" lon="11.332792613204127"><ele>345.0</ele><time>2026-04-04T17:23:16.999Z</time></trkpt><trkpt lat="43.58854255808235" lon="11.332653873282128"><ele>345.0</ele><time>2026-04-04T17:23:18.999Z</time></trkpt><trkpt lat="43.588607790174876" lon="11.332579843644742"><ele>345.0</ele><time>2026-04-04T17:23:19.999Z</time></trkpt><trkpt lat="43.58867728965446" lon="11.332524682325152"><ele>345.0</ele><time>2026-04-04T17:23:20.999Z</time></trkpt><trkpt lat="43.58874120951594" lon="11.332476699707415"><ele>344.8333333333333</ele><time>2026-04-04T17:23:21.999Z</time></trkpt><trkpt lat="43.58880876933844" lon="11.332423502034166"><ele>344.6666666666667</ele><time>2026-04-04T17:23:22.999Z</time></trkpt><trkpt lat="43.58887339862988" lon="11.332385447090724"><ele>344.5</ele><time>2026-04-04T17:23:23.999Z</time></trkpt><trkpt lat="43.588953773615714" lon="11.332364445727203"><ele>344.33333333333337</ele><time>2026-04-04T17:23:24.999Z</time></trkpt><trkpt lat="43.5890505153276" lon="11.332344688809583"><ele>344.1666666666667</ele><time>2026-04-04T17:23:25.999Z</time></trkpt><trkpt lat="43.58913179505974" lon="11.33232815997901"><ele>344.0</ele><time>2026-04-04T17:23:26.999Z</time></trkpt><trkpt lat="43.5892161928488" lon="11.33229781081753"><ele>344.0</ele><time>2026-04-04T17:23:28Z</time></trkpt><trkpt lat="43.58928971542356" lon="11.332261903795368"><ele>344.0</ele><time>2026-04-04T17:23:29Z</time></trkpt><trkpt lat="43.589359012283865" lon="11.332232465821226"><ele>344.0</ele><time>2026-04-04T17:23:30Z</time></trkpt><trkpt lat="43.58947077307132" lon="11.332156682783376"><ele>344.0</ele><time>2026-04-04T17:23:32Z</time></trkpt><trkpt lat="43.5895508264358" lon="11.332142351670585"><ele>344.0</ele><time>2026-04-04T17:23:34Z</time></trkpt><trkpt lat="43.58961561715329" lon="11.332271313582911"><ele>341.2</ele><time>2026-04-04T17:23:36Z</time></trkpt><trkpt lat="43.589651055395244" lon="11.332391689261671"><ele>338.4</ele><time>2026-04-04T17:23:37Z</time></trkpt><trkpt lat="43.58969942690069" lon="11.33251702346848"><ele>335.6</ele><time>2026-04-04T17:23:38Z</time></trkpt><trkpt lat="43.58974693041079" lon="11.332640032891488"><ele>332.8</ele><time>2026-04-04T17:23:39Z</time></trkpt><trkpt lat="43.58979640285534" lon="11.332786833130877"><ele>330.0</ele><time>2026-04-04T17:23:41Z</time></trkpt><trkpt lat="43.58984581995524" lon="11.332923667445328"><ele>330.0</ele><time>2026-04-04T17:23:43Z</time></trkpt><trkpt lat="43.589903785010634" lon="11.33305368541211"><ele>330.0</ele><time>2026-04-04T17:23:45Z</time></trkpt><trkpt lat="43.58994136366051" lon="11.333136334241999"><ele>330.0</ele><time>2026-04-04T17:23:46Z</time></trkpt><trkpt lat="43.58999273857241" lon="11.333253210716249"><ele>330.0</ele><time>2026-04-04T17:23:47Z</time></trkpt><trkpt lat="43.59003985726032" lon="11.333376571229822"><ele>330.0</ele><time>2026-04-04T17:23:48Z</time></trkpt><trkpt lat="43.590071622541" lon="11.333466658975755"><ele>331.6666666666667</ele><time>2026-04-04T17:23:49Z</time></trkpt><trkpt lat="43.59011205397393" lon="11.333569583999207"><ele>333.3333333333333</ele><time>2026-04-04T17:23:50Z</time></trkpt><trkpt lat="43.59015670803293" lon="11.333671406932572"><ele>335.0</ele><time>2026-04-04T17:23:51Z</time></trkpt><trkpt lat="43.59020039273306" lon="11.333765603346706"><ele>336.66666666666663</ele><time>2026-04-04T17:23:51.999Z</time></trkpt><trkpt lat="43.59025362857588" lon="11.33383795713026"><ele>338.3333333333333</ele><time>2026-04-04T17:23:52.999Z</time></trkpt><trkpt lat="43.59031710730761" lon="11.333921149924386"><ele>340.0</ele><time>2026-04-04T17:23:53.999Z</time></trkpt><trkpt lat="43.59036472928447" lon="11.334018570236195"><ele>340.0</ele><time>2026-04-04T17:23:54.999Z</time></trkpt><trkpt lat="43.5903976983786" lon="11.334127162547542"><ele>340.0</ele><time>2026-04-04T17:23:55.999Z</time></trkpt><trkpt lat="43.59040188659103" lon="11.334239777021185"><ele>340.0</ele><time>2026-04-04T17:23:56.999Z</time></trkpt><trkpt lat="43.59039840108812" lon="11.334347156985292"><ele>340.0</ele><time>2026-04-04T17:23:57.999Z</time></trkpt><trkpt lat="43.59042302201043" lon="11.334455908004072"><ele>340.0</ele><time>2026-04-04T17:23:58.999Z</time></trkpt><trkpt lat="43.59047811778998" lon="11.334571770505585"><ele>340.0</ele><time>2026-04-04T17:23:59.999Z</time></trkpt><trkpt lat="43.590538506917476" lon="11.334672545426312"><ele>340.0</ele><time>2026-04-04T17:24:00.999Z</time></trkpt><trkpt lat="43.59064738829844" lon="11.334754670185935"><ele>340.0</ele><time>2026-04-04T17:24:02.999Z</time></trkpt><trkpt lat="43.59071718850414" lon="11.334813073263504"><ele>340.0</ele><time>2026-04-04T17:24:04.999Z</time></trkpt><trkpt lat="43.59069098695155" lon="11.334895617860706"><ele>340.0</ele><time>2026-04-04T17:24:07.999Z</time></trkpt><trkpt lat="43.5906598166458" lon="11.334790921851408"><ele>340.0</ele><time>2026-04-04T17:24:10.999Z</time></trkpt><trkpt lat="43.590578058773424" lon="11.334705472961444"><ele>340.0</ele><time>2026-04-04T17:24:13.999Z</time></trkpt><trkpt lat="43.590475780721654" lon="11.334588911536027"><ele>340.0</ele><time>2026-04-04T17:24:15.999Z</time></trkpt><trkpt lat="43.59044091936925" lon="11.334515937421111"><ele>340.0</ele><time>2026-04-04T17:24:16.999Z</time></trkpt><trkpt lat="43.59039795747124" lon="11.334378816694066"><ele>340.0</ele><time>2026-04-04T17:24:18.999Z</time></trkpt><trkpt lat="43.59037947788354" lon="11.334227393292185"><ele>340.0</ele><time>2026-04-04T17:24:20.999Z</time></trkpt><trkpt lat="43.59036823697181" lon="11.334132917221382"><ele>341.4</ele><time>2026-04-04T17:24:21.999Z</time></trkpt><trkpt lat="43.59033711104233" lon="11.333961451861379"><ele>342.8</ele><time>2026-04-04T17:24:23.999Z</time></trkpt><trkpt lat="43.59028907846704" lon="11.33386784304998"><ele>344.20000000000005</ele><time>2026-04-04T17:24:24.999Z</time></trkpt><trkpt lat="43.590243175461936" lon="11.333800324953563"><ele>345.6</ele><time>2026-04-04T17:24:25.999Z</time></trkpt><trkpt lat="43.590146996507166" lon="11.333727225779919"><ele>347.0</ele><time>2026-04-04T17:24:27.999Z</time></trkpt><trkpt lat="43.59003790477418" lon="11.333693313504675"><ele>347.0</ele><time>2026-04-04T17:24:29.999Z</time></trkpt><trkpt lat="43.58995948916645" lon="11.333597329055337"><ele>347.0</ele><time>2026-04-04T17:24:31.999Z</time></trkpt><trkpt lat="43.589929828461095" lon="11.333488841793447"><ele>347.0</ele><time>2026-04-04T17:24:33.999Z</time></trkpt><trkpt lat="43.5899072203312" lon="11.333388565963782"><ele>347.0</ele><time>2026-04-04T17:24:45.999Z</time></trkpt></trkseg></trk></gpx>